<?xml version="1.0" encoding="UTF-8" standalone="no" ?>
<gpx xmlns="http://www.topografix.com/GPX/1/1" xmlns:xsi="http://www.w3.org/2001/XMLSchema-instance" xsi:schemaLocation="http://www.topografix.com/GPX/1/1 http://www.topografix.com/GPX/1/1/gpx.xsd" version="1.1" creator="VisuGPX - https://www.visugpx.com">
  <metadata>
    <name>Randonnée du 08/10/2021 à 14:36</name>
    <desc><![CDATA[Balade à vélo dans la Vallée du Lot]]></desc>
  </metadata>
  <trk>
    <name><![CDATA[Randonnée du 08/10/2021 à 14:36]]></name>
    <trkseg>
      <trkpt lat="44.48938" lon="1.85238">
        <ele>183</ele>
        <time>2021-10-08T17:46:33+02:00</time>
      </trkpt>
      <trkpt lat="44.48945" lon="1.85246">
        <ele>186</ele>
        <time>2021-10-08T17:46:33+02:00</time>
      </trkpt>
      <trkpt lat="44.4894" lon="1.85251">
        <ele>185</ele>
        <time>2021-10-08T17:46:33+02:00</time>
      </trkpt>
      <trkpt lat="44.48959" lon="1.85234">
        <ele>185</ele>
        <time>2021-10-08T17:46:33+02:00</time>
      </trkpt>
      <trkpt lat="44.48981" lon="1.85218">
        <ele>186</ele>
        <time>2021-10-08T17:46:33+02:00</time>
      </trkpt>
      <trkpt lat="44.48999" lon="1.85195">
        <ele>187</ele>
        <time>2021-10-08T17:46:33+02:00</time>
      </trkpt>
      <trkpt lat="44.49013" lon="1.85167">
        <ele>188</ele>
        <time>2021-10-08T17:46:33+02:00</time>
      </trkpt>
      <trkpt lat="44.49021" lon="1.85136">
        <ele>186</ele>
        <time>2021-10-08T17:46:33+02:00</time>
      </trkpt>
      <trkpt lat="44.49006" lon="1.85099">
        <ele>182</ele>
        <time>2021-10-08T17:46:33+02:00</time>
      </trkpt>
      <trkpt lat="44.48992" lon="1.85066">
        <ele>179</ele>
        <time>2021-10-08T17:46:33+02:00</time>
      </trkpt>
      <trkpt lat="44.48982" lon="1.85037">
        <ele>176</ele>
        <time>2021-10-08T17:46:33+02:00</time>
      </trkpt>
      <trkpt lat="44.48969" lon="1.85007">
        <ele>171</ele>
        <time>2021-10-08T17:46:33+02:00</time>
      </trkpt>
      <trkpt lat="44.48968" lon="1.84973">
        <ele>169</ele>
        <time>2021-10-08T17:46:33+02:00</time>
      </trkpt>
      <trkpt lat="44.48985" lon="1.84953">
        <ele>167</ele>
        <time>2021-10-08T17:46:33+02:00</time>
      </trkpt>
      <trkpt lat="44.49008" lon="1.84931">
        <ele>165</ele>
        <time>2021-10-08T17:46:33+02:00</time>
      </trkpt>
      <trkpt lat="44.49021" lon="1.84896">
        <ele>163</ele>
        <time>2021-10-08T17:46:33+02:00</time>
      </trkpt>
      <trkpt lat="44.4903" lon="1.84866">
        <ele>160</ele>
        <time>2021-10-08T17:46:33+02:00</time>
      </trkpt>
      <trkpt lat="44.49018" lon="1.84838">
        <ele>159</ele>
        <time>2021-10-08T17:46:33+02:00</time>
      </trkpt>
      <trkpt lat="44.49" lon="1.84814">
        <ele>159</ele>
        <time>2021-10-08T17:46:33+02:00</time>
      </trkpt>
      <trkpt lat="44.48983" lon="1.84787">
        <ele>158</ele>
        <time>2021-10-08T17:46:33+02:00</time>
      </trkpt>
      <trkpt lat="44.48967" lon="1.84763">
        <ele>158</ele>
        <time>2021-10-08T17:46:33+02:00</time>
      </trkpt>
      <trkpt lat="44.4895" lon="1.84739">
        <ele>157</ele>
        <time>2021-10-08T17:46:33+02:00</time>
      </trkpt>
      <trkpt lat="44.48933" lon="1.84712">
        <ele>156</ele>
        <time>2021-10-08T17:46:33+02:00</time>
      </trkpt>
      <trkpt lat="44.48916" lon="1.84689">
        <ele>157</ele>
        <time>2021-10-08T17:46:33+02:00</time>
      </trkpt>
      <trkpt lat="44.48901" lon="1.84661">
        <ele>155</ele>
        <time>2021-10-08T17:46:33+02:00</time>
      </trkpt>
      <trkpt lat="44.48887" lon="1.8463">
        <ele>155</ele>
        <time>2021-10-08T17:46:33+02:00</time>
      </trkpt>
      <trkpt lat="44.48874" lon="1.84599">
        <ele>155</ele>
        <time>2021-10-08T17:46:33+02:00</time>
      </trkpt>
      <trkpt lat="44.48861" lon="1.8457">
        <ele>154</ele>
        <time>2021-10-08T17:46:33+02:00</time>
      </trkpt>
      <trkpt lat="44.48844" lon="1.84539">
        <ele>154</ele>
        <time>2021-10-08T17:46:33+02:00</time>
      </trkpt>
      <trkpt lat="44.48827" lon="1.8451">
        <ele>153</ele>
        <time>2021-10-08T17:46:33+02:00</time>
      </trkpt>
      <trkpt lat="44.48813" lon="1.84478">
        <ele>153</ele>
        <time>2021-10-08T17:46:33+02:00</time>
      </trkpt>
      <trkpt lat="44.48798" lon="1.84453">
        <ele>153</ele>
        <time>2021-10-08T17:46:33+02:00</time>
      </trkpt>
      <trkpt lat="44.48782" lon="1.84427">
        <ele>153</ele>
        <time>2021-10-08T17:46:33+02:00</time>
      </trkpt>
      <trkpt lat="44.48768" lon="1.84399">
        <ele>153</ele>
        <time>2021-10-08T17:46:33+02:00</time>
      </trkpt>
      <trkpt lat="44.48754" lon="1.8437">
        <ele>152</ele>
        <time>2021-10-08T17:46:33+02:00</time>
      </trkpt>
      <trkpt lat="44.48738" lon="1.84343">
        <ele>152</ele>
        <time>2021-10-08T17:46:33+02:00</time>
      </trkpt>
      <trkpt lat="44.48724" lon="1.84319">
        <ele>152</ele>
        <time>2021-10-08T17:46:33+02:00</time>
      </trkpt>
      <trkpt lat="44.48708" lon="1.84289">
        <ele>152</ele>
        <time>2021-10-08T17:46:33+02:00</time>
      </trkpt>
      <trkpt lat="44.48692" lon="1.8426">
        <ele>152</ele>
        <time>2021-10-08T17:46:33+02:00</time>
      </trkpt>
      <trkpt lat="44.48673" lon="1.84234">
        <ele>152</ele>
        <time>2021-10-08T17:46:33+02:00</time>
      </trkpt>
      <trkpt lat="44.48652" lon="1.84211">
        <ele>152</ele>
        <time>2021-10-08T17:46:33+02:00</time>
      </trkpt>
      <trkpt lat="44.48631" lon="1.84194">
        <ele>152</ele>
        <time>2021-10-08T17:46:33+02:00</time>
      </trkpt>
      <trkpt lat="44.48608" lon="1.84187">
        <ele>151</ele>
        <time>2021-10-08T17:46:33+02:00</time>
      </trkpt>
      <trkpt lat="44.48586" lon="1.84177">
        <ele>151</ele>
        <time>2021-10-08T17:46:33+02:00</time>
      </trkpt>
      <trkpt lat="44.48585" lon="1.84146">
        <ele>151</ele>
        <time>2021-10-08T17:46:33+02:00</time>
      </trkpt>
      <trkpt lat="44.48584" lon="1.84114">
        <ele>152</ele>
        <time>2021-10-08T17:46:33+02:00</time>
      </trkpt>
      <trkpt lat="44.48583" lon="1.84082">
        <ele>151</ele>
        <time>2021-10-08T17:46:33+02:00</time>
      </trkpt>
      <trkpt lat="44.48583" lon="1.84043">
        <ele>152</ele>
        <time>2021-10-08T17:46:33+02:00</time>
      </trkpt>
      <trkpt lat="44.48584" lon="1.84007">
        <ele>152</ele>
        <time>2021-10-08T17:46:33+02:00</time>
      </trkpt>
      <trkpt lat="44.48586" lon="1.83971">
        <ele>153</ele>
        <time>2021-10-08T17:46:33+02:00</time>
      </trkpt>
      <trkpt lat="44.48586" lon="1.83939">
        <ele>154</ele>
        <time>2021-10-08T17:46:33+02:00</time>
      </trkpt>
      <trkpt lat="44.48582" lon="1.83905">
        <ele>155</ele>
        <time>2021-10-08T17:46:33+02:00</time>
      </trkpt>
      <trkpt lat="44.48566" lon="1.8388">
        <ele>157</ele>
        <time>2021-10-08T17:46:33+02:00</time>
      </trkpt>
      <trkpt lat="44.48547" lon="1.83864">
        <ele>157</ele>
        <time>2021-10-08T17:46:33+02:00</time>
      </trkpt>
      <trkpt lat="44.48524" lon="1.83851">
        <ele>159</ele>
        <time>2021-10-08T17:46:33+02:00</time>
      </trkpt>
      <trkpt lat="44.48501" lon="1.8384">
        <ele>159</ele>
        <time>2021-10-08T17:46:33+02:00</time>
      </trkpt>
      <trkpt lat="44.48476" lon="1.83832">
        <ele>159</ele>
        <time>2021-10-08T17:46:33+02:00</time>
      </trkpt>
      <trkpt lat="44.48451" lon="1.83823">
        <ele>159</ele>
        <time>2021-10-08T17:46:33+02:00</time>
      </trkpt>
      <trkpt lat="44.48428" lon="1.83814">
        <ele>159</ele>
        <time>2021-10-08T17:46:33+02:00</time>
      </trkpt>
      <trkpt lat="44.48405" lon="1.83807">
        <ele>160</ele>
        <time>2021-10-08T17:46:33+02:00</time>
      </trkpt>
      <trkpt lat="44.4838" lon="1.83794">
        <ele>160</ele>
        <time>2021-10-08T17:46:33+02:00</time>
      </trkpt>
      <trkpt lat="44.48358" lon="1.83782">
        <ele>160</ele>
        <time>2021-10-08T17:46:33+02:00</time>
      </trkpt>
      <trkpt lat="44.48333" lon="1.83769">
        <ele>159</ele>
        <time>2021-10-08T17:46:33+02:00</time>
      </trkpt>
      <trkpt lat="44.48309" lon="1.83758">
        <ele>161</ele>
        <time>2021-10-08T17:46:33+02:00</time>
      </trkpt>
      <trkpt lat="44.48284" lon="1.83744">
        <ele>161</ele>
        <time>2021-10-08T17:46:33+02:00</time>
      </trkpt>
      <trkpt lat="44.4826" lon="1.83733">
        <ele>162</ele>
        <time>2021-10-08T17:46:33+02:00</time>
      </trkpt>
      <trkpt lat="44.48238" lon="1.83724">
        <ele>161</ele>
        <time>2021-10-08T17:46:33+02:00</time>
      </trkpt>
      <trkpt lat="44.48215" lon="1.83718">
        <ele>161</ele>
        <time>2021-10-08T17:46:33+02:00</time>
      </trkpt>
      <trkpt lat="44.48189" lon="1.83711">
        <ele>162</ele>
        <time>2021-10-08T17:46:33+02:00</time>
      </trkpt>
      <trkpt lat="44.48164" lon="1.83705">
        <ele>163</ele>
        <time>2021-10-08T17:46:33+02:00</time>
      </trkpt>
      <trkpt lat="44.4814" lon="1.83699">
        <ele>163</ele>
        <time>2021-10-08T17:46:33+02:00</time>
      </trkpt>
      <trkpt lat="44.48117" lon="1.83694">
        <ele>164</ele>
        <time>2021-10-08T17:46:33+02:00</time>
      </trkpt>
      <trkpt lat="44.48094" lon="1.83687">
        <ele>163</ele>
        <time>2021-10-08T17:46:33+02:00</time>
      </trkpt>
      <trkpt lat="44.48071" lon="1.83681">
        <ele>164</ele>
        <time>2021-10-08T17:46:33+02:00</time>
      </trkpt>
      <trkpt lat="44.48048" lon="1.83673">
        <ele>166</ele>
        <time>2021-10-08T17:46:33+02:00</time>
      </trkpt>
      <trkpt lat="44.48027" lon="1.83664">
        <ele>167</ele>
        <time>2021-10-08T17:46:33+02:00</time>
      </trkpt>
      <trkpt lat="44.48005" lon="1.83656">
        <ele>168</ele>
        <time>2021-10-08T17:46:33+02:00</time>
      </trkpt>
      <trkpt lat="44.47981" lon="1.83647">
        <ele>169</ele>
        <time>2021-10-08T17:46:33+02:00</time>
      </trkpt>
      <trkpt lat="44.47955" lon="1.83639">
        <ele>170</ele>
        <time>2021-10-08T17:46:33+02:00</time>
      </trkpt>
      <trkpt lat="44.47933" lon="1.83633">
        <ele>171</ele>
        <time>2021-10-08T17:46:33+02:00</time>
      </trkpt>
      <trkpt lat="44.47909" lon="1.83628">
        <ele>172</ele>
        <time>2021-10-08T17:46:33+02:00</time>
      </trkpt>
      <trkpt lat="44.47885" lon="1.83625">
        <ele>173</ele>
        <time>2021-10-08T17:46:33+02:00</time>
      </trkpt>
      <trkpt lat="44.47862" lon="1.83622">
        <ele>173</ele>
        <time>2021-10-08T17:46:33+02:00</time>
      </trkpt>
      <trkpt lat="44.47836" lon="1.83619">
        <ele>173</ele>
        <time>2021-10-08T17:46:33+02:00</time>
      </trkpt>
      <trkpt lat="44.4781" lon="1.83621">
        <ele>173</ele>
        <time>2021-10-08T17:46:33+02:00</time>
      </trkpt>
      <trkpt lat="44.47784" lon="1.83625">
        <ele>173</ele>
        <time>2021-10-08T17:46:33+02:00</time>
      </trkpt>
      <trkpt lat="44.47761" lon="1.83633">
        <ele>171</ele>
        <time>2021-10-08T17:46:33+02:00</time>
      </trkpt>
      <trkpt lat="44.47737" lon="1.8364">
        <ele>170</ele>
        <time>2021-10-08T17:46:33+02:00</time>
      </trkpt>
      <trkpt lat="44.47713" lon="1.83641">
        <ele>170</ele>
        <time>2021-10-08T17:46:33+02:00</time>
      </trkpt>
      <trkpt lat="44.47689" lon="1.83639">
        <ele>170</ele>
        <time>2021-10-08T17:46:33+02:00</time>
      </trkpt>
      <trkpt lat="44.47666" lon="1.8363">
        <ele>173</ele>
        <time>2021-10-08T17:46:33+02:00</time>
      </trkpt>
      <trkpt lat="44.47645" lon="1.83616">
        <ele>176</ele>
        <time>2021-10-08T17:46:33+02:00</time>
      </trkpt>
      <trkpt lat="44.47623" lon="1.836">
        <ele>178</ele>
        <time>2021-10-08T17:46:33+02:00</time>
      </trkpt>
      <trkpt lat="44.47605" lon="1.83577">
        <ele>180</ele>
        <time>2021-10-08T17:46:33+02:00</time>
      </trkpt>
      <trkpt lat="44.47588" lon="1.83549">
        <ele>180</ele>
        <time>2021-10-08T17:46:33+02:00</time>
      </trkpt>
      <trkpt lat="44.47573" lon="1.83523">
        <ele>180</ele>
        <time>2021-10-08T17:46:33+02:00</time>
      </trkpt>
      <trkpt lat="44.47558" lon="1.83498">
        <ele>181</ele>
        <time>2021-10-08T17:46:33+02:00</time>
      </trkpt>
      <trkpt lat="44.47541" lon="1.83473">
        <ele>182</ele>
        <time>2021-10-08T17:46:33+02:00</time>
      </trkpt>
      <trkpt lat="44.47529" lon="1.83446">
        <ele>182</ele>
        <time>2021-10-08T17:46:33+02:00</time>
      </trkpt>
      <trkpt lat="44.47532" lon="1.83412">
        <ele>181</ele>
        <time>2021-10-08T17:46:33+02:00</time>
      </trkpt>
      <trkpt lat="44.47546" lon="1.83383">
        <ele>180</ele>
        <time>2021-10-08T17:46:33+02:00</time>
      </trkpt>
      <trkpt lat="44.47565" lon="1.83356">
        <ele>179</ele>
        <time>2021-10-08T17:46:33+02:00</time>
      </trkpt>
      <trkpt lat="44.47586" lon="1.83332">
        <ele>178</ele>
        <time>2021-10-08T17:46:33+02:00</time>
      </trkpt>
      <trkpt lat="44.47607" lon="1.83312">
        <ele>177</ele>
        <time>2021-10-08T17:46:33+02:00</time>
      </trkpt>
      <trkpt lat="44.47631" lon="1.83298">
        <ele>176</ele>
        <time>2021-10-08T17:46:33+02:00</time>
      </trkpt>
      <trkpt lat="44.47656" lon="1.83293">
        <ele>175</ele>
        <time>2021-10-08T17:46:33+02:00</time>
      </trkpt>
      <trkpt lat="44.47682" lon="1.83293">
        <ele>176</ele>
        <time>2021-10-08T17:46:33+02:00</time>
      </trkpt>
      <trkpt lat="44.47707" lon="1.83293">
        <ele>176</ele>
        <time>2021-10-08T17:46:33+02:00</time>
      </trkpt>
      <trkpt lat="44.47733" lon="1.8329">
        <ele>177</ele>
        <time>2021-10-08T17:46:33+02:00</time>
      </trkpt>
      <trkpt lat="44.47757" lon="1.83277">
        <ele>178</ele>
        <time>2021-10-08T17:46:33+02:00</time>
      </trkpt>
      <trkpt lat="44.47775" lon="1.83252">
        <ele>179</ele>
        <time>2021-10-08T17:46:33+02:00</time>
      </trkpt>
      <trkpt lat="44.47785" lon="1.83219">
        <ele>180</ele>
        <time>2021-10-08T17:46:33+02:00</time>
      </trkpt>
      <trkpt lat="44.47789" lon="1.83182">
        <ele>179</ele>
        <time>2021-10-08T17:46:33+02:00</time>
      </trkpt>
      <trkpt lat="44.47792" lon="1.83144">
        <ele>179</ele>
        <time>2021-10-08T17:46:33+02:00</time>
      </trkpt>
      <trkpt lat="44.47794" lon="1.83106">
        <ele>179</ele>
        <time>2021-10-08T17:46:33+02:00</time>
      </trkpt>
      <trkpt lat="44.47797" lon="1.83075">
        <ele>178</ele>
        <time>2021-10-08T17:46:33+02:00</time>
      </trkpt>
      <trkpt lat="44.478" lon="1.83042">
        <ele>180</ele>
        <time>2021-10-08T17:46:33+02:00</time>
      </trkpt>
      <trkpt lat="44.47802" lon="1.83005">
        <ele>181</ele>
        <time>2021-10-08T17:46:33+02:00</time>
      </trkpt>
      <trkpt lat="44.47805" lon="1.82968">
        <ele>183</ele>
        <time>2021-10-08T17:46:33+02:00</time>
      </trkpt>
      <trkpt lat="44.47809" lon="1.82936">
        <ele>182</ele>
        <time>2021-10-08T17:46:33+02:00</time>
      </trkpt>
      <trkpt lat="44.47813" lon="1.82903">
        <ele>182</ele>
        <time>2021-10-08T17:46:33+02:00</time>
      </trkpt>
      <trkpt lat="44.47817" lon="1.82871">
        <ele>181</ele>
        <time>2021-10-08T17:46:33+02:00</time>
      </trkpt>
      <trkpt lat="44.47819" lon="1.82833">
        <ele>181</ele>
        <time>2021-10-08T17:46:33+02:00</time>
      </trkpt>
      <trkpt lat="44.47816" lon="1.82794">
        <ele>182</ele>
        <time>2021-10-08T17:46:33+02:00</time>
      </trkpt>
      <trkpt lat="44.47817" lon="1.82756">
        <ele>182</ele>
        <time>2021-10-08T17:46:33+02:00</time>
      </trkpt>
      <trkpt lat="44.47816" lon="1.82719">
        <ele>182</ele>
        <time>2021-10-08T17:46:33+02:00</time>
      </trkpt>
      <trkpt lat="44.47812" lon="1.82684">
        <ele>184</ele>
        <time>2021-10-08T17:46:33+02:00</time>
      </trkpt>
      <trkpt lat="44.47809" lon="1.82647">
        <ele>183</ele>
        <time>2021-10-08T17:46:33+02:00</time>
      </trkpt>
      <trkpt lat="44.47805" lon="1.8261">
        <ele>183</ele>
        <time>2021-10-08T17:46:33+02:00</time>
      </trkpt>
      <trkpt lat="44.47806" lon="1.82574">
        <ele>183</ele>
        <time>2021-10-08T17:46:33+02:00</time>
      </trkpt>
      <trkpt lat="44.47801" lon="1.82538">
        <ele>182</ele>
        <time>2021-10-08T17:46:33+02:00</time>
      </trkpt>
      <trkpt lat="44.47797" lon="1.82501">
        <ele>182</ele>
        <time>2021-10-08T17:46:33+02:00</time>
      </trkpt>
      <trkpt lat="44.47795" lon="1.82464">
        <ele>184</ele>
        <time>2021-10-08T17:46:33+02:00</time>
      </trkpt>
      <trkpt lat="44.4779" lon="1.82427">
        <ele>184</ele>
        <time>2021-10-08T17:46:33+02:00</time>
      </trkpt>
      <trkpt lat="44.47785" lon="1.82391">
        <ele>183</ele>
        <time>2021-10-08T17:46:33+02:00</time>
      </trkpt>
      <trkpt lat="44.47781" lon="1.82355">
        <ele>183</ele>
        <time>2021-10-08T17:46:33+02:00</time>
      </trkpt>
      <trkpt lat="44.47775" lon="1.82319">
        <ele>183</ele>
        <time>2021-10-08T17:46:33+02:00</time>
      </trkpt>
      <trkpt lat="44.47769" lon="1.82289">
        <ele>181</ele>
        <time>2021-10-08T17:46:33+02:00</time>
      </trkpt>
      <trkpt lat="44.47764" lon="1.82254">
        <ele>181</ele>
        <time>2021-10-08T17:46:33+02:00</time>
      </trkpt>
      <trkpt lat="44.47759" lon="1.82216">
        <ele>181</ele>
        <time>2021-10-08T17:46:33+02:00</time>
      </trkpt>
      <trkpt lat="44.47753" lon="1.8218">
        <ele>179</ele>
        <time>2021-10-08T17:46:33+02:00</time>
      </trkpt>
      <trkpt lat="44.47747" lon="1.82143">
        <ele>179</ele>
        <time>2021-10-08T17:46:33+02:00</time>
      </trkpt>
      <trkpt lat="44.47741" lon="1.82107">
        <ele>179</ele>
        <time>2021-10-08T17:46:33+02:00</time>
      </trkpt>
      <trkpt lat="44.47735" lon="1.82071">
        <ele>181</ele>
        <time>2021-10-08T17:46:33+02:00</time>
      </trkpt>
      <trkpt lat="44.47728" lon="1.8204">
        <ele>184</ele>
        <time>2021-10-08T17:46:33+02:00</time>
      </trkpt>
      <trkpt lat="44.47712" lon="1.82016">
        <ele>184</ele>
        <time>2021-10-08T17:46:33+02:00</time>
      </trkpt>
      <trkpt lat="44.477" lon="1.81989">
        <ele>183</ele>
        <time>2021-10-08T17:46:33+02:00</time>
      </trkpt>
      <trkpt lat="44.47687" lon="1.81963">
        <ele>181</ele>
        <time>2021-10-08T17:46:33+02:00</time>
      </trkpt>
      <trkpt lat="44.47675" lon="1.81935">
        <ele>180</ele>
        <time>2021-10-08T17:46:33+02:00</time>
      </trkpt>
      <trkpt lat="44.47658" lon="1.81905">
        <ele>179</ele>
        <time>2021-10-08T17:46:33+02:00</time>
      </trkpt>
      <trkpt lat="44.47644" lon="1.81872">
        <ele>178</ele>
        <time>2021-10-08T17:46:33+02:00</time>
      </trkpt>
      <trkpt lat="44.47632" lon="1.8184">
        <ele>178</ele>
        <time>2021-10-08T17:46:33+02:00</time>
      </trkpt>
      <trkpt lat="44.47621" lon="1.81806">
        <ele>179</ele>
        <time>2021-10-08T17:46:33+02:00</time>
      </trkpt>
      <trkpt lat="44.47602" lon="1.8178">
        <ele>180</ele>
        <time>2021-10-08T17:46:33+02:00</time>
      </trkpt>
      <trkpt lat="44.47581" lon="1.81754">
        <ele>179</ele>
        <time>2021-10-08T17:46:33+02:00</time>
      </trkpt>
      <trkpt lat="44.47564" lon="1.81724">
        <ele>176</ele>
        <time>2021-10-08T17:46:33+02:00</time>
      </trkpt>
      <trkpt lat="44.47547" lon="1.81696">
        <ele>177</ele>
        <time>2021-10-08T17:46:33+02:00</time>
      </trkpt>
      <trkpt lat="44.47523" lon="1.8168">
        <ele>174</ele>
        <time>2021-10-08T17:46:33+02:00</time>
      </trkpt>
      <trkpt lat="44.47503" lon="1.81651">
        <ele>172</ele>
        <time>2021-10-08T17:46:33+02:00</time>
      </trkpt>
      <trkpt lat="44.47491" lon="1.81617">
        <ele>171</ele>
        <time>2021-10-08T17:46:33+02:00</time>
      </trkpt>
      <trkpt lat="44.47483" lon="1.81582">
        <ele>173</ele>
        <time>2021-10-08T17:46:33+02:00</time>
      </trkpt>
      <trkpt lat="44.47477" lon="1.81545">
        <ele>175</ele>
        <time>2021-10-08T17:46:33+02:00</time>
      </trkpt>
      <trkpt lat="44.47477" lon="1.81513">
        <ele>178</ele>
        <time>2021-10-08T17:46:33+02:00</time>
      </trkpt>
      <trkpt lat="44.47483" lon="1.8148">
        <ele>178</ele>
        <time>2021-10-08T17:46:33+02:00</time>
      </trkpt>
      <trkpt lat="44.47492" lon="1.8145">
        <ele>180</ele>
        <time>2021-10-08T17:46:33+02:00</time>
      </trkpt>
      <trkpt lat="44.47503" lon="1.81421">
        <ele>180</ele>
        <time>2021-10-08T17:46:33+02:00</time>
      </trkpt>
      <trkpt lat="44.4752" lon="1.81389">
        <ele>180</ele>
        <time>2021-10-08T17:46:33+02:00</time>
      </trkpt>
      <trkpt lat="44.47538" lon="1.81369">
        <ele>180</ele>
        <time>2021-10-08T17:46:33+02:00</time>
      </trkpt>
      <trkpt lat="44.47561" lon="1.81361">
        <ele>180</ele>
        <time>2021-10-08T17:46:33+02:00</time>
      </trkpt>
      <trkpt lat="44.47584" lon="1.81362">
        <ele>180</ele>
        <time>2021-10-08T17:46:33+02:00</time>
      </trkpt>
      <trkpt lat="44.47611" lon="1.81358">
        <ele>180</ele>
        <time>2021-10-08T17:46:33+02:00</time>
      </trkpt>
      <trkpt lat="44.47637" lon="1.81342">
        <ele>177</ele>
        <time>2021-10-08T17:46:33+02:00</time>
      </trkpt>
      <trkpt lat="44.47662" lon="1.81323">
        <ele>174</ele>
        <time>2021-10-08T17:46:33+02:00</time>
      </trkpt>
      <trkpt lat="44.47681" lon="1.81306">
        <ele>174</ele>
        <time>2021-10-08T17:46:33+02:00</time>
      </trkpt>
      <trkpt lat="44.47696" lon="1.81276">
        <ele>176</ele>
        <time>2021-10-08T17:46:33+02:00</time>
      </trkpt>
      <trkpt lat="44.47693" lon="1.8124">
        <ele>179</ele>
        <time>2021-10-08T17:46:33+02:00</time>
      </trkpt>
      <trkpt lat="44.47684" lon="1.81202">
        <ele>180</ele>
        <time>2021-10-08T17:46:33+02:00</time>
      </trkpt>
      <trkpt lat="44.47676" lon="1.81171">
        <ele>180</ele>
        <time>2021-10-08T17:46:33+02:00</time>
      </trkpt>
      <trkpt lat="44.47664" lon="1.81137">
        <ele>180</ele>
        <time>2021-10-08T17:46:33+02:00</time>
      </trkpt>
      <trkpt lat="44.47654" lon="1.81109">
        <ele>179</ele>
        <time>2021-10-08T17:46:33+02:00</time>
      </trkpt>
      <trkpt lat="44.47647" lon="1.81077">
        <ele>178</ele>
        <time>2021-10-08T17:46:33+02:00</time>
      </trkpt>
      <trkpt lat="44.47645" lon="1.81043">
        <ele>179</ele>
        <time>2021-10-08T17:46:33+02:00</time>
      </trkpt>
      <trkpt lat="44.47647" lon="1.81009">
        <ele>179</ele>
        <time>2021-10-08T17:46:33+02:00</time>
      </trkpt>
      <trkpt lat="44.47649" lon="1.80976">
        <ele>179</ele>
        <time>2021-10-08T17:46:33+02:00</time>
      </trkpt>
      <trkpt lat="44.47652" lon="1.80943">
        <ele>180</ele>
        <time>2021-10-08T17:46:33+02:00</time>
      </trkpt>
      <trkpt lat="44.47655" lon="1.80904">
        <ele>180</ele>
        <time>2021-10-08T17:46:33+02:00</time>
      </trkpt>
      <trkpt lat="44.47658" lon="1.80867">
        <ele>180</ele>
        <time>2021-10-08T17:46:33+02:00</time>
      </trkpt>
      <trkpt lat="44.47663" lon="1.80829">
        <ele>180</ele>
        <time>2021-10-08T17:46:33+02:00</time>
      </trkpt>
      <trkpt lat="44.47671" lon="1.80792">
        <ele>179</ele>
        <time>2021-10-08T17:46:33+02:00</time>
      </trkpt>
      <trkpt lat="44.47681" lon="1.80759">
        <ele>179</ele>
        <time>2021-10-08T17:46:33+02:00</time>
      </trkpt>
      <trkpt lat="44.47693" lon="1.80723">
        <ele>179</ele>
        <time>2021-10-08T17:46:33+02:00</time>
      </trkpt>
      <trkpt lat="44.47706" lon="1.80698">
        <ele>179</ele>
        <time>2021-10-08T17:46:33+02:00</time>
      </trkpt>
      <trkpt lat="44.47724" lon="1.80669">
        <ele>180</ele>
        <time>2021-10-08T17:46:33+02:00</time>
      </trkpt>
      <trkpt lat="44.47744" lon="1.80644">
        <ele>181</ele>
        <time>2021-10-08T17:46:33+02:00</time>
      </trkpt>
      <trkpt lat="44.47764" lon="1.80617">
        <ele>182</ele>
        <time>2021-10-08T17:46:33+02:00</time>
      </trkpt>
      <trkpt lat="44.47783" lon="1.80588">
        <ele>182</ele>
        <time>2021-10-08T17:46:33+02:00</time>
      </trkpt>
      <trkpt lat="44.47802" lon="1.80563">
        <ele>180</ele>
        <time>2021-10-08T17:46:33+02:00</time>
      </trkpt>
      <trkpt lat="44.47817" lon="1.8054">
        <ele>180</ele>
        <time>2021-10-08T17:46:33+02:00</time>
      </trkpt>
      <trkpt lat="44.47836" lon="1.80514">
        <ele>180</ele>
        <time>2021-10-08T17:46:33+02:00</time>
      </trkpt>
      <trkpt lat="44.47856" lon="1.80487">
        <ele>181</ele>
        <time>2021-10-08T17:46:33+02:00</time>
      </trkpt>
      <trkpt lat="44.47875" lon="1.80459">
        <ele>181</ele>
        <time>2021-10-08T17:46:33+02:00</time>
      </trkpt>
      <trkpt lat="44.47891" lon="1.80429">
        <ele>180</ele>
        <time>2021-10-08T17:46:33+02:00</time>
      </trkpt>
      <trkpt lat="44.47905" lon="1.80397">
        <ele>181</ele>
        <time>2021-10-08T17:46:33+02:00</time>
      </trkpt>
      <trkpt lat="44.47918" lon="1.80364">
        <ele>180</ele>
        <time>2021-10-08T17:46:33+02:00</time>
      </trkpt>
      <trkpt lat="44.47932" lon="1.80331">
        <ele>180</ele>
        <time>2021-10-08T17:46:33+02:00</time>
      </trkpt>
      <trkpt lat="44.47945" lon="1.80298">
        <ele>180</ele>
        <time>2021-10-08T17:46:33+02:00</time>
      </trkpt>
      <trkpt lat="44.47958" lon="1.80266">
        <ele>180</ele>
        <time>2021-10-08T17:46:33+02:00</time>
      </trkpt>
      <trkpt lat="44.47972" lon="1.80235">
        <ele>180</ele>
        <time>2021-10-08T17:46:33+02:00</time>
      </trkpt>
      <trkpt lat="44.47986" lon="1.80202">
        <ele>180</ele>
        <time>2021-10-08T17:46:33+02:00</time>
      </trkpt>
      <trkpt lat="44.48" lon="1.80169">
        <ele>180</ele>
        <time>2021-10-08T17:46:33+02:00</time>
      </trkpt>
      <trkpt lat="44.48013" lon="1.80135">
        <ele>181</ele>
        <time>2021-10-08T17:46:33+02:00</time>
      </trkpt>
      <trkpt lat="44.48022" lon="1.80099">
        <ele>181</ele>
        <time>2021-10-08T17:46:33+02:00</time>
      </trkpt>
      <trkpt lat="44.4803" lon="1.80063">
        <ele>180</ele>
        <time>2021-10-08T17:46:33+02:00</time>
      </trkpt>
      <trkpt lat="44.48037" lon="1.80027">
        <ele>180</ele>
        <time>2021-10-08T17:46:33+02:00</time>
      </trkpt>
      <trkpt lat="44.48041" lon="1.79996">
        <ele>180</ele>
        <time>2021-10-08T17:46:33+02:00</time>
      </trkpt>
      <trkpt lat="44.48042" lon="1.79963">
        <ele>179</ele>
        <time>2021-10-08T17:46:33+02:00</time>
      </trkpt>
      <trkpt lat="44.48039" lon="1.79931">
        <ele>178</ele>
        <time>2021-10-08T17:46:33+02:00</time>
      </trkpt>
      <trkpt lat="44.48033" lon="1.79899">
        <ele>177</ele>
        <time>2021-10-08T17:46:33+02:00</time>
      </trkpt>
      <trkpt lat="44.48026" lon="1.79861">
        <ele>176</ele>
        <time>2021-10-08T17:46:33+02:00</time>
      </trkpt>
      <trkpt lat="44.48019" lon="1.79825">
        <ele>176</ele>
        <time>2021-10-08T17:46:33+02:00</time>
      </trkpt>
      <trkpt lat="44.48013" lon="1.7979">
        <ele>177</ele>
        <time>2021-10-08T17:46:33+02:00</time>
      </trkpt>
      <trkpt lat="44.48005" lon="1.79753">
        <ele>178</ele>
        <time>2021-10-08T17:46:33+02:00</time>
      </trkpt>
      <trkpt lat="44.47992" lon="1.7972">
        <ele>179</ele>
        <time>2021-10-08T17:46:33+02:00</time>
      </trkpt>
      <trkpt lat="44.47979" lon="1.79687">
        <ele>178</ele>
        <time>2021-10-08T17:46:33+02:00</time>
      </trkpt>
      <trkpt lat="44.47961" lon="1.7966">
        <ele>178</ele>
        <time>2021-10-08T17:46:33+02:00</time>
      </trkpt>
      <trkpt lat="44.47941" lon="1.79631">
        <ele>175</ele>
        <time>2021-10-08T17:46:33+02:00</time>
      </trkpt>
      <trkpt lat="44.47925" lon="1.79601">
        <ele>173</ele>
        <time>2021-10-08T17:46:33+02:00</time>
      </trkpt>
      <trkpt lat="44.47911" lon="1.79575">
        <ele>172</ele>
        <time>2021-10-08T17:46:33+02:00</time>
      </trkpt>
      <trkpt lat="44.47894" lon="1.79546">
        <ele>172</ele>
        <time>2021-10-08T17:46:33+02:00</time>
      </trkpt>
      <trkpt lat="44.4788" lon="1.7952">
        <ele>174</ele>
        <time>2021-10-08T17:46:33+02:00</time>
      </trkpt>
      <trkpt lat="44.47857" lon="1.79502">
        <ele>176</ele>
        <time>2021-10-08T17:46:33+02:00</time>
      </trkpt>
      <trkpt lat="44.47835" lon="1.79491">
        <ele>176</ele>
        <time>2021-10-08T17:46:33+02:00</time>
      </trkpt>
      <trkpt lat="44.47809" lon="1.7948">
        <ele>172</ele>
        <time>2021-10-08T17:46:33+02:00</time>
      </trkpt>
      <trkpt lat="44.47786" lon="1.79475">
        <ele>169</ele>
        <time>2021-10-08T17:46:33+02:00</time>
      </trkpt>
      <trkpt lat="44.47763" lon="1.79466">
        <ele>168</ele>
        <time>2021-10-08T17:46:33+02:00</time>
      </trkpt>
      <trkpt lat="44.47739" lon="1.79445">
        <ele>166</ele>
        <time>2021-10-08T17:46:33+02:00</time>
      </trkpt>
      <trkpt lat="44.47717" lon="1.79423">
        <ele>166</ele>
        <time>2021-10-08T17:46:33+02:00</time>
      </trkpt>
      <trkpt lat="44.47695" lon="1.794">
        <ele>166</ele>
        <time>2021-10-08T17:46:33+02:00</time>
      </trkpt>
      <trkpt lat="44.47676" lon="1.79382">
        <ele>167</ele>
        <time>2021-10-08T17:46:33+02:00</time>
      </trkpt>
      <trkpt lat="44.47656" lon="1.79367">
        <ele>168</ele>
        <time>2021-10-08T17:46:33+02:00</time>
      </trkpt>
      <trkpt lat="44.47629" lon="1.79353">
        <ele>168</ele>
        <time>2021-10-08T17:46:33+02:00</time>
      </trkpt>
      <trkpt lat="44.47606" lon="1.79346">
        <ele>169</ele>
        <time>2021-10-08T17:46:33+02:00</time>
      </trkpt>
      <trkpt lat="44.47582" lon="1.79339">
        <ele>169</ele>
        <time>2021-10-08T17:46:33+02:00</time>
      </trkpt>
      <trkpt lat="44.47559" lon="1.79331">
        <ele>169</ele>
        <time>2021-10-08T17:46:33+02:00</time>
      </trkpt>
      <trkpt lat="44.47532" lon="1.79321">
        <ele>168</ele>
        <time>2021-10-08T17:46:33+02:00</time>
      </trkpt>
      <trkpt lat="44.47509" lon="1.79316">
        <ele>168</ele>
        <time>2021-10-08T17:46:33+02:00</time>
      </trkpt>
      <trkpt lat="44.47486" lon="1.79307">
        <ele>167</ele>
        <time>2021-10-08T17:46:33+02:00</time>
      </trkpt>
      <trkpt lat="44.47463" lon="1.793">
        <ele>167</ele>
        <time>2021-10-08T17:46:33+02:00</time>
      </trkpt>
      <trkpt lat="44.47438" lon="1.79291">
        <ele>167</ele>
        <time>2021-10-08T17:46:33+02:00</time>
      </trkpt>
      <trkpt lat="44.47414" lon="1.79284">
        <ele>168</ele>
        <time>2021-10-08T17:46:33+02:00</time>
      </trkpt>
      <trkpt lat="44.47389" lon="1.79282">
        <ele>167</ele>
        <time>2021-10-08T17:46:33+02:00</time>
      </trkpt>
      <trkpt lat="44.47363" lon="1.7928">
        <ele>167</ele>
        <time>2021-10-08T17:46:33+02:00</time>
      </trkpt>
      <trkpt lat="44.47339" lon="1.7928">
        <ele>166</ele>
        <time>2021-10-08T17:46:33+02:00</time>
      </trkpt>
      <trkpt lat="44.47316" lon="1.7928">
        <ele>165</ele>
        <time>2021-10-08T17:46:33+02:00</time>
      </trkpt>
      <trkpt lat="44.47291" lon="1.79276">
        <ele>164</ele>
        <time>2021-10-08T17:46:33+02:00</time>
      </trkpt>
      <trkpt lat="44.47266" lon="1.79267">
        <ele>164</ele>
        <time>2021-10-08T17:46:33+02:00</time>
      </trkpt>
      <trkpt lat="44.47242" lon="1.7926">
        <ele>165</ele>
        <time>2021-10-08T17:46:33+02:00</time>
      </trkpt>
      <trkpt lat="44.47217" lon="1.79252">
        <ele>164</ele>
        <time>2021-10-08T17:46:33+02:00</time>
      </trkpt>
      <trkpt lat="44.47193" lon="1.79249">
        <ele>164</ele>
        <time>2021-10-08T17:46:33+02:00</time>
      </trkpt>
      <trkpt lat="44.47168" lon="1.79248">
        <ele>164</ele>
        <time>2021-10-08T17:46:33+02:00</time>
      </trkpt>
      <trkpt lat="44.47142" lon="1.79244">
        <ele>163</ele>
        <time>2021-10-08T17:46:33+02:00</time>
      </trkpt>
      <trkpt lat="44.47115" lon="1.79238">
        <ele>162</ele>
        <time>2021-10-08T17:46:33+02:00</time>
      </trkpt>
      <trkpt lat="44.47089" lon="1.7923">
        <ele>161</ele>
        <time>2021-10-08T17:46:33+02:00</time>
      </trkpt>
      <trkpt lat="44.47064" lon="1.7922">
        <ele>161</ele>
        <time>2021-10-08T17:46:33+02:00</time>
      </trkpt>
      <trkpt lat="44.47041" lon="1.79211">
        <ele>161</ele>
        <time>2021-10-08T17:46:33+02:00</time>
      </trkpt>
      <trkpt lat="44.47016" lon="1.79198">
        <ele>161</ele>
        <time>2021-10-08T17:46:33+02:00</time>
      </trkpt>
      <trkpt lat="44.46992" lon="1.79184">
        <ele>161</ele>
        <time>2021-10-08T17:46:33+02:00</time>
      </trkpt>
      <trkpt lat="44.46969" lon="1.79168">
        <ele>161</ele>
        <time>2021-10-08T17:46:33+02:00</time>
      </trkpt>
      <trkpt lat="44.46946" lon="1.7915">
        <ele>162</ele>
        <time>2021-10-08T17:46:33+02:00</time>
      </trkpt>
      <trkpt lat="44.46925" lon="1.7913">
        <ele>161</ele>
        <time>2021-10-08T17:46:33+02:00</time>
      </trkpt>
      <trkpt lat="44.46903" lon="1.79115">
        <ele>162</ele>
        <time>2021-10-08T17:46:33+02:00</time>
      </trkpt>
      <trkpt lat="44.46881" lon="1.79098">
        <ele>163</ele>
        <time>2021-10-08T17:46:33+02:00</time>
      </trkpt>
      <trkpt lat="44.46859" lon="1.79083">
        <ele>162</ele>
        <time>2021-10-08T17:46:33+02:00</time>
      </trkpt>
      <trkpt lat="44.46836" lon="1.79071">
        <ele>163</ele>
        <time>2021-10-08T17:46:33+02:00</time>
      </trkpt>
      <trkpt lat="44.46813" lon="1.79061">
        <ele>162</ele>
        <time>2021-10-08T17:46:33+02:00</time>
      </trkpt>
      <trkpt lat="44.46787" lon="1.79046">
        <ele>161</ele>
        <time>2021-10-08T17:46:33+02:00</time>
      </trkpt>
      <trkpt lat="44.46765" lon="1.79035">
        <ele>160</ele>
        <time>2021-10-08T17:46:33+02:00</time>
      </trkpt>
      <trkpt lat="44.46743" lon="1.79023">
        <ele>160</ele>
        <time>2021-10-08T17:46:33+02:00</time>
      </trkpt>
      <trkpt lat="44.4672" lon="1.79012">
        <ele>161</ele>
        <time>2021-10-08T17:46:33+02:00</time>
      </trkpt>
      <trkpt lat="44.46696" lon="1.79002">
        <ele>160</ele>
        <time>2021-10-08T17:46:33+02:00</time>
      </trkpt>
      <trkpt lat="44.46671" lon="1.78996">
        <ele>160</ele>
        <time>2021-10-08T17:46:33+02:00</time>
      </trkpt>
      <trkpt lat="44.46647" lon="1.78989">
        <ele>160</ele>
        <time>2021-10-08T17:46:33+02:00</time>
      </trkpt>
      <trkpt lat="44.46622" lon="1.78984">
        <ele>160</ele>
        <time>2021-10-08T17:46:33+02:00</time>
      </trkpt>
      <trkpt lat="44.46598" lon="1.78978">
        <ele>158</ele>
        <time>2021-10-08T17:46:33+02:00</time>
      </trkpt>
      <trkpt lat="44.46572" lon="1.78973">
        <ele>158</ele>
        <time>2021-10-08T17:46:33+02:00</time>
      </trkpt>
      <trkpt lat="44.46547" lon="1.78966">
        <ele>157</ele>
        <time>2021-10-08T17:46:33+02:00</time>
      </trkpt>
      <trkpt lat="44.46521" lon="1.78959">
        <ele>156</ele>
        <time>2021-10-08T17:46:33+02:00</time>
      </trkpt>
      <trkpt lat="44.46495" lon="1.78953">
        <ele>155</ele>
        <time>2021-10-08T17:46:33+02:00</time>
      </trkpt>
      <trkpt lat="44.46469" lon="1.78946">
        <ele>154</ele>
        <time>2021-10-08T17:46:33+02:00</time>
      </trkpt>
      <trkpt lat="44.46441" lon="1.78941">
        <ele>153</ele>
        <time>2021-10-08T17:46:33+02:00</time>
      </trkpt>
      <trkpt lat="44.46416" lon="1.78934">
        <ele>154</ele>
        <time>2021-10-08T17:46:33+02:00</time>
      </trkpt>
      <trkpt lat="44.4639" lon="1.78926">
        <ele>154</ele>
        <time>2021-10-08T17:46:33+02:00</time>
      </trkpt>
      <trkpt lat="44.46367" lon="1.78907">
        <ele>153</ele>
        <time>2021-10-08T17:46:33+02:00</time>
      </trkpt>
      <trkpt lat="44.46349" lon="1.78882">
        <ele>153</ele>
        <time>2021-10-08T17:46:33+02:00</time>
      </trkpt>
      <trkpt lat="44.46339" lon="1.78853">
        <ele>152</ele>
        <time>2021-10-08T17:46:33+02:00</time>
      </trkpt>
      <trkpt lat="44.46332" lon="1.78822">
        <ele>150</ele>
        <time>2021-10-08T17:46:33+02:00</time>
      </trkpt>
      <trkpt lat="44.46333" lon="1.78784">
        <ele>149</ele>
        <time>2021-10-08T17:46:33+02:00</time>
      </trkpt>
      <trkpt lat="44.4634" lon="1.78746">
        <ele>148</ele>
        <time>2021-10-08T17:46:33+02:00</time>
      </trkpt>
      <trkpt lat="44.4635" lon="1.78711">
        <ele>148</ele>
        <time>2021-10-08T17:46:33+02:00</time>
      </trkpt>
      <trkpt lat="44.46364" lon="1.7868">
        <ele>148</ele>
        <time>2021-10-08T17:46:33+02:00</time>
      </trkpt>
      <trkpt lat="44.46386" lon="1.78658">
        <ele>149</ele>
        <time>2021-10-08T17:46:33+02:00</time>
      </trkpt>
      <trkpt lat="44.4641" lon="1.78641">
        <ele>149</ele>
        <time>2021-10-08T17:46:33+02:00</time>
      </trkpt>
      <trkpt lat="44.46434" lon="1.78626">
        <ele>150</ele>
        <time>2021-10-08T17:46:33+02:00</time>
      </trkpt>
      <trkpt lat="44.46458" lon="1.7861">
        <ele>151</ele>
        <time>2021-10-08T17:46:33+02:00</time>
      </trkpt>
      <trkpt lat="44.4648" lon="1.78593">
        <ele>151</ele>
        <time>2021-10-08T17:46:33+02:00</time>
      </trkpt>
      <trkpt lat="44.46504" lon="1.78579">
        <ele>151</ele>
        <time>2021-10-08T17:46:33+02:00</time>
      </trkpt>
      <trkpt lat="44.46528" lon="1.78562">
        <ele>151</ele>
        <time>2021-10-08T17:46:33+02:00</time>
      </trkpt>
      <trkpt lat="44.46551" lon="1.78547">
        <ele>150</ele>
        <time>2021-10-08T17:46:33+02:00</time>
      </trkpt>
      <trkpt lat="44.46574" lon="1.78531">
        <ele>151</ele>
        <time>2021-10-08T17:46:33+02:00</time>
      </trkpt>
      <trkpt lat="44.46597" lon="1.78516">
        <ele>150</ele>
        <time>2021-10-08T17:46:33+02:00</time>
      </trkpt>
      <trkpt lat="44.4662" lon="1.78501">
        <ele>150</ele>
        <time>2021-10-08T17:46:33+02:00</time>
      </trkpt>
      <trkpt lat="44.46643" lon="1.78483">
        <ele>149</ele>
        <time>2021-10-08T17:46:33+02:00</time>
      </trkpt>
      <trkpt lat="44.46669" lon="1.78468">
        <ele>149</ele>
        <time>2021-10-08T17:46:33+02:00</time>
      </trkpt>
      <trkpt lat="44.46695" lon="1.7846">
        <ele>148</ele>
        <time>2021-10-08T17:46:33+02:00</time>
      </trkpt>
      <trkpt lat="44.46721" lon="1.78458">
        <ele>147</ele>
        <time>2021-10-08T17:46:33+02:00</time>
      </trkpt>
      <trkpt lat="44.46747" lon="1.78455">
        <ele>148</ele>
        <time>2021-10-08T17:46:33+02:00</time>
      </trkpt>
      <trkpt lat="44.46773" lon="1.78452">
        <ele>148</ele>
        <time>2021-10-08T17:46:33+02:00</time>
      </trkpt>
      <trkpt lat="44.468" lon="1.78449">
        <ele>147</ele>
        <time>2021-10-08T17:46:33+02:00</time>
      </trkpt>
      <trkpt lat="44.46829" lon="1.78449">
        <ele>147</ele>
        <time>2021-10-08T17:46:33+02:00</time>
      </trkpt>
      <trkpt lat="44.46856" lon="1.78449">
        <ele>146</ele>
        <time>2021-10-08T17:46:33+02:00</time>
      </trkpt>
      <trkpt lat="44.46881" lon="1.78449">
        <ele>147</ele>
        <time>2021-10-08T17:46:33+02:00</time>
      </trkpt>
      <trkpt lat="44.46908" lon="1.78447">
        <ele>147</ele>
        <time>2021-10-08T17:46:33+02:00</time>
      </trkpt>
      <trkpt lat="44.46935" lon="1.78446">
        <ele>146</ele>
        <time>2021-10-08T17:46:33+02:00</time>
      </trkpt>
      <trkpt lat="44.46961" lon="1.78444">
        <ele>146</ele>
        <time>2021-10-08T17:46:33+02:00</time>
      </trkpt>
      <trkpt lat="44.46987" lon="1.78442">
        <ele>145</ele>
        <time>2021-10-08T17:46:33+02:00</time>
      </trkpt>
      <trkpt lat="44.47014" lon="1.78437">
        <ele>146</ele>
        <time>2021-10-08T17:46:33+02:00</time>
      </trkpt>
      <trkpt lat="44.4704" lon="1.78434">
        <ele>145</ele>
        <time>2021-10-08T17:46:33+02:00</time>
      </trkpt>
      <trkpt lat="44.47065" lon="1.78425">
        <ele>146</ele>
        <time>2021-10-08T17:46:33+02:00</time>
      </trkpt>
      <trkpt lat="44.47089" lon="1.78412">
        <ele>148</ele>
        <time>2021-10-08T17:46:33+02:00</time>
      </trkpt>
      <trkpt lat="44.47114" lon="1.78402">
        <ele>147</ele>
        <time>2021-10-08T17:46:33+02:00</time>
      </trkpt>
      <trkpt lat="44.47138" lon="1.78389">
        <ele>147</ele>
        <time>2021-10-08T17:46:33+02:00</time>
      </trkpt>
      <trkpt lat="44.47161" lon="1.78379">
        <ele>147</ele>
        <time>2021-10-08T17:46:33+02:00</time>
      </trkpt>
      <trkpt lat="44.47183" lon="1.78367">
        <ele>147</ele>
        <time>2021-10-08T17:46:33+02:00</time>
      </trkpt>
      <trkpt lat="44.47207" lon="1.78359">
        <ele>147</ele>
        <time>2021-10-08T17:46:33+02:00</time>
      </trkpt>
      <trkpt lat="44.47229" lon="1.78348">
        <ele>147</ele>
        <time>2021-10-08T17:46:33+02:00</time>
      </trkpt>
      <trkpt lat="44.47253" lon="1.7834">
        <ele>145</ele>
        <time>2021-10-08T17:46:33+02:00</time>
      </trkpt>
      <trkpt lat="44.47276" lon="1.78327">
        <ele>145</ele>
        <time>2021-10-08T17:46:33+02:00</time>
      </trkpt>
      <trkpt lat="44.47293" lon="1.78305">
        <ele>144</ele>
        <time>2021-10-08T17:46:33+02:00</time>
      </trkpt>
      <trkpt lat="44.47297" lon="1.7827">
        <ele>144</ele>
        <time>2021-10-08T17:46:33+02:00</time>
      </trkpt>
      <trkpt lat="44.47309" lon="1.78238">
        <ele>146</ele>
        <time>2021-10-08T17:46:33+02:00</time>
      </trkpt>
      <trkpt lat="44.47327" lon="1.78212">
        <ele>147</ele>
        <time>2021-10-08T17:46:33+02:00</time>
      </trkpt>
      <trkpt lat="44.47344" lon="1.78185">
        <ele>148</ele>
        <time>2021-10-08T17:46:33+02:00</time>
      </trkpt>
      <trkpt lat="44.47362" lon="1.78158">
        <ele>148</ele>
        <time>2021-10-08T17:46:33+02:00</time>
      </trkpt>
      <trkpt lat="44.47381" lon="1.78132">
        <ele>147</ele>
        <time>2021-10-08T17:46:33+02:00</time>
      </trkpt>
      <trkpt lat="44.47399" lon="1.78105">
        <ele>148</ele>
        <time>2021-10-08T17:46:33+02:00</time>
      </trkpt>
      <trkpt lat="44.47415" lon="1.78081">
        <ele>148</ele>
        <time>2021-10-08T17:46:33+02:00</time>
      </trkpt>
      <trkpt lat="44.47427" lon="1.78052">
        <ele>148</ele>
        <time>2021-10-08T17:46:33+02:00</time>
      </trkpt>
      <trkpt lat="44.47406" lon="1.78032">
        <ele>141</ele>
        <time>2021-10-08T17:46:33+02:00</time>
      </trkpt>
      <trkpt lat="44.47388" lon="1.78012">
        <ele>139</ele>
        <time>2021-10-08T17:46:33+02:00</time>
      </trkpt>
      <trkpt lat="44.47368" lon="1.77989">
        <ele>138</ele>
        <time>2021-10-08T17:46:33+02:00</time>
      </trkpt>
      <trkpt lat="44.47347" lon="1.77965">
        <ele>138</ele>
        <time>2021-10-08T17:46:33+02:00</time>
      </trkpt>
      <trkpt lat="44.47326" lon="1.77941">
        <ele>138</ele>
        <time>2021-10-08T17:46:33+02:00</time>
      </trkpt>
      <trkpt lat="44.47303" lon="1.7792">
        <ele>139</ele>
        <time>2021-10-08T17:46:33+02:00</time>
      </trkpt>
      <trkpt lat="44.47278" lon="1.77909">
        <ele>139</ele>
        <time>2021-10-08T17:46:33+02:00</time>
      </trkpt>
      <trkpt lat="44.47254" lon="1.77909">
        <ele>140</ele>
        <time>2021-10-08T17:46:33+02:00</time>
      </trkpt>
      <trkpt lat="44.47228" lon="1.77919">
        <ele>140</ele>
        <time>2021-10-08T17:46:33+02:00</time>
      </trkpt>
      <trkpt lat="44.47205" lon="1.7793">
        <ele>140</ele>
        <time>2021-10-08T17:46:33+02:00</time>
      </trkpt>
      <trkpt lat="44.47183" lon="1.7794">
        <ele>141</ele>
        <time>2021-10-08T17:46:33+02:00</time>
      </trkpt>
      <trkpt lat="44.47157" lon="1.7795">
        <ele>140</ele>
        <time>2021-10-08T17:46:33+02:00</time>
      </trkpt>
      <trkpt lat="44.47131" lon="1.77957">
        <ele>140</ele>
        <time>2021-10-08T17:46:33+02:00</time>
      </trkpt>
      <trkpt lat="44.47108" lon="1.77959">
        <ele>138</ele>
        <time>2021-10-08T17:46:33+02:00</time>
      </trkpt>
      <trkpt lat="44.47095" lon="1.77928">
        <ele>138</ele>
        <time>2021-10-08T17:46:33+02:00</time>
      </trkpt>
      <trkpt lat="44.47107" lon="1.77901">
        <ele>140</ele>
        <time>2021-10-08T17:46:33+02:00</time>
      </trkpt>
      <trkpt lat="44.47121" lon="1.77869">
        <ele>144</ele>
        <time>2021-10-08T17:46:33+02:00</time>
      </trkpt>
      <trkpt lat="44.47136" lon="1.77842">
        <ele>149</ele>
        <time>2021-10-08T17:46:33+02:00</time>
      </trkpt>
      <trkpt lat="44.4715" lon="1.77816">
        <ele>152</ele>
        <time>2021-10-08T17:46:33+02:00</time>
      </trkpt>
      <trkpt lat="44.47157" lon="1.77782">
        <ele>153</ele>
        <time>2021-10-08T17:46:33+02:00</time>
      </trkpt>
      <trkpt lat="44.47151" lon="1.77747">
        <ele>154</ele>
        <time>2021-10-08T17:46:33+02:00</time>
      </trkpt>
      <trkpt lat="44.47138" lon="1.77716">
        <ele>154</ele>
        <time>2021-10-08T17:46:33+02:00</time>
      </trkpt>
      <trkpt lat="44.47121" lon="1.77686">
        <ele>154</ele>
        <time>2021-10-08T17:46:33+02:00</time>
      </trkpt>
      <trkpt lat="44.471" lon="1.77658">
        <ele>154</ele>
        <time>2021-10-08T17:46:33+02:00</time>
      </trkpt>
      <trkpt lat="44.47083" lon="1.77634">
        <ele>153</ele>
        <time>2021-10-08T17:46:33+02:00</time>
      </trkpt>
      <trkpt lat="44.4706" lon="1.77613">
        <ele>152</ele>
        <time>2021-10-08T17:46:33+02:00</time>
      </trkpt>
      <trkpt lat="44.47034" lon="1.77595">
        <ele>150</ele>
        <time>2021-10-08T17:46:33+02:00</time>
      </trkpt>
      <trkpt lat="44.47008" lon="1.77583">
        <ele>147</ele>
        <time>2021-10-08T17:46:33+02:00</time>
      </trkpt>
      <trkpt lat="44.46984" lon="1.7757">
        <ele>146</ele>
        <time>2021-10-08T17:46:33+02:00</time>
      </trkpt>
      <trkpt lat="44.46958" lon="1.77561">
        <ele>144</ele>
        <time>2021-10-08T17:46:33+02:00</time>
      </trkpt>
      <trkpt lat="44.46931" lon="1.77557">
        <ele>144</ele>
        <time>2021-10-08T17:46:33+02:00</time>
      </trkpt>
      <trkpt lat="44.46905" lon="1.77559">
        <ele>143</ele>
        <time>2021-10-08T17:46:33+02:00</time>
      </trkpt>
      <trkpt lat="44.46881" lon="1.77563">
        <ele>142</ele>
        <time>2021-10-08T17:46:33+02:00</time>
      </trkpt>
      <trkpt lat="44.46857" lon="1.77567">
        <ele>142</ele>
        <time>2021-10-08T17:46:33+02:00</time>
      </trkpt>
      <trkpt lat="44.46833" lon="1.77571">
        <ele>143</ele>
        <time>2021-10-08T17:46:33+02:00</time>
      </trkpt>
      <trkpt lat="44.46809" lon="1.77573">
        <ele>143</ele>
        <time>2021-10-08T17:46:33+02:00</time>
      </trkpt>
      <trkpt lat="44.46786" lon="1.77571">
        <ele>143</ele>
        <time>2021-10-08T17:46:33+02:00</time>
      </trkpt>
      <trkpt lat="44.46764" lon="1.77567">
        <ele>141</ele>
        <time>2021-10-08T17:46:33+02:00</time>
      </trkpt>
      <trkpt lat="44.46741" lon="1.77563">
        <ele>142</ele>
        <time>2021-10-08T17:46:33+02:00</time>
      </trkpt>
      <trkpt lat="44.46713" lon="1.77558">
        <ele>141</ele>
        <time>2021-10-08T17:46:33+02:00</time>
      </trkpt>
      <trkpt lat="44.46686" lon="1.77551">
        <ele>141</ele>
        <time>2021-10-08T17:46:33+02:00</time>
      </trkpt>
      <trkpt lat="44.4666" lon="1.77545">
        <ele>142</ele>
        <time>2021-10-08T17:46:33+02:00</time>
      </trkpt>
      <trkpt lat="44.46632" lon="1.77544">
        <ele>141</ele>
        <time>2021-10-08T17:46:33+02:00</time>
      </trkpt>
      <trkpt lat="44.46605" lon="1.7755">
        <ele>141</ele>
        <time>2021-10-08T17:46:33+02:00</time>
      </trkpt>
      <trkpt lat="44.46583" lon="1.77559">
        <ele>141</ele>
        <time>2021-10-08T17:46:33+02:00</time>
      </trkpt>
      <trkpt lat="44.46561" lon="1.7757">
        <ele>141</ele>
        <time>2021-10-08T17:46:33+02:00</time>
      </trkpt>
      <trkpt lat="44.46538" lon="1.77578">
        <ele>141</ele>
        <time>2021-10-08T17:46:33+02:00</time>
      </trkpt>
      <trkpt lat="44.46516" lon="1.77586">
        <ele>140</ele>
        <time>2021-10-08T17:46:33+02:00</time>
      </trkpt>
      <trkpt lat="44.46492" lon="1.77591">
        <ele>140</ele>
        <time>2021-10-08T17:46:33+02:00</time>
      </trkpt>
      <trkpt lat="44.46468" lon="1.77597">
        <ele>140</ele>
        <time>2021-10-08T17:46:33+02:00</time>
      </trkpt>
      <trkpt lat="44.4644" lon="1.77597">
        <ele>139</ele>
        <time>2021-10-08T17:46:33+02:00</time>
      </trkpt>
      <trkpt lat="44.46413" lon="1.77588">
        <ele>140</ele>
        <time>2021-10-08T17:46:33+02:00</time>
      </trkpt>
      <trkpt lat="44.46391" lon="1.77581">
        <ele>140</ele>
        <time>2021-10-08T17:46:33+02:00</time>
      </trkpt>
      <trkpt lat="44.46365" lon="1.7757">
        <ele>140</ele>
        <time>2021-10-08T17:46:33+02:00</time>
      </trkpt>
      <trkpt lat="44.4634" lon="1.77557">
        <ele>140</ele>
        <time>2021-10-08T17:46:33+02:00</time>
      </trkpt>
      <trkpt lat="44.46313" lon="1.77549">
        <ele>142</ele>
        <time>2021-10-08T17:46:33+02:00</time>
      </trkpt>
      <trkpt lat="44.46287" lon="1.77541">
        <ele>142</ele>
        <time>2021-10-08T17:46:33+02:00</time>
      </trkpt>
      <trkpt lat="44.4626" lon="1.7753">
        <ele>142</ele>
        <time>2021-10-08T17:46:33+02:00</time>
      </trkpt>
      <trkpt lat="44.46236" lon="1.77513">
        <ele>143</ele>
        <time>2021-10-08T17:46:33+02:00</time>
      </trkpt>
      <trkpt lat="44.46212" lon="1.77496">
        <ele>143</ele>
        <time>2021-10-08T17:46:33+02:00</time>
      </trkpt>
      <trkpt lat="44.46189" lon="1.77478">
        <ele>143</ele>
        <time>2021-10-08T17:46:33+02:00</time>
      </trkpt>
      <trkpt lat="44.46168" lon="1.7746">
        <ele>143</ele>
        <time>2021-10-08T17:46:33+02:00</time>
      </trkpt>
      <trkpt lat="44.46153" lon="1.77432">
        <ele>142</ele>
        <time>2021-10-08T17:46:33+02:00</time>
      </trkpt>
      <trkpt lat="44.46144" lon="1.77398">
        <ele>142</ele>
        <time>2021-10-08T17:46:33+02:00</time>
      </trkpt>
      <trkpt lat="44.46138" lon="1.7736">
        <ele>141</ele>
        <time>2021-10-08T17:46:33+02:00</time>
      </trkpt>
      <trkpt lat="44.46127" lon="1.77331">
        <ele>140</ele>
        <time>2021-10-08T17:46:33+02:00</time>
      </trkpt>
      <trkpt lat="44.46114" lon="1.77304">
        <ele>140</ele>
        <time>2021-10-08T17:46:33+02:00</time>
      </trkpt>
      <trkpt lat="44.46096" lon="1.77274">
        <ele>140</ele>
        <time>2021-10-08T17:46:33+02:00</time>
      </trkpt>
      <trkpt lat="44.46082" lon="1.77247">
        <ele>141</ele>
        <time>2021-10-08T17:46:33+02:00</time>
      </trkpt>
      <trkpt lat="44.46069" lon="1.77221">
        <ele>141</ele>
        <time>2021-10-08T17:46:33+02:00</time>
      </trkpt>
      <trkpt lat="44.46055" lon="1.77195">
        <ele>141</ele>
        <time>2021-10-08T17:46:33+02:00</time>
      </trkpt>
      <trkpt lat="44.46041" lon="1.77163">
        <ele>141</ele>
        <time>2021-10-08T17:46:33+02:00</time>
      </trkpt>
      <trkpt lat="44.46035" lon="1.77132">
        <ele>140</ele>
        <time>2021-10-08T17:46:33+02:00</time>
      </trkpt>
      <trkpt lat="44.46029" lon="1.771">
        <ele>140</ele>
        <time>2021-10-08T17:46:33+02:00</time>
      </trkpt>
      <trkpt lat="44.46024" lon="1.77068">
        <ele>140</ele>
        <time>2021-10-08T17:46:33+02:00</time>
      </trkpt>
      <trkpt lat="44.46019" lon="1.77036">
        <ele>139</ele>
        <time>2021-10-08T17:46:33+02:00</time>
      </trkpt>
      <trkpt lat="44.46014" lon="1.77005">
        <ele>139</ele>
        <time>2021-10-08T17:46:33+02:00</time>
      </trkpt>
      <trkpt lat="44.4601" lon="1.76974">
        <ele>140</ele>
        <time>2021-10-08T17:46:33+02:00</time>
      </trkpt>
      <trkpt lat="44.46005" lon="1.76943">
        <ele>139</ele>
        <time>2021-10-08T17:46:33+02:00</time>
      </trkpt>
      <trkpt lat="44.45999" lon="1.76911">
        <ele>140</ele>
        <time>2021-10-08T17:46:33+02:00</time>
      </trkpt>
      <trkpt lat="44.45995" lon="1.76878">
        <ele>140</ele>
        <time>2021-10-08T17:46:33+02:00</time>
      </trkpt>
      <trkpt lat="44.4599" lon="1.76847">
        <ele>139</ele>
        <time>2021-10-08T17:46:33+02:00</time>
      </trkpt>
      <trkpt lat="44.45983" lon="1.7681">
        <ele>139</ele>
        <time>2021-10-08T17:46:33+02:00</time>
      </trkpt>
      <trkpt lat="44.45977" lon="1.76773">
        <ele>140</ele>
        <time>2021-10-08T17:46:33+02:00</time>
      </trkpt>
      <trkpt lat="44.45971" lon="1.76742">
        <ele>140</ele>
        <time>2021-10-08T17:46:33+02:00</time>
      </trkpt>
      <trkpt lat="44.45965" lon="1.7671">
        <ele>140</ele>
        <time>2021-10-08T17:46:33+02:00</time>
      </trkpt>
      <trkpt lat="44.4596" lon="1.76679">
        <ele>140</ele>
        <time>2021-10-08T17:46:33+02:00</time>
      </trkpt>
      <trkpt lat="44.45956" lon="1.76646">
        <ele>139</ele>
        <time>2021-10-08T17:46:33+02:00</time>
      </trkpt>
      <trkpt lat="44.45954" lon="1.76608">
        <ele>139</ele>
        <time>2021-10-08T17:46:33+02:00</time>
      </trkpt>
      <trkpt lat="44.45956" lon="1.76576">
        <ele>138</ele>
        <time>2021-10-08T17:46:33+02:00</time>
      </trkpt>
      <trkpt lat="44.45958" lon="1.76543">
        <ele>139</ele>
        <time>2021-10-08T17:46:33+02:00</time>
      </trkpt>
      <trkpt lat="44.45963" lon="1.76511">
        <ele>138</ele>
        <time>2021-10-08T17:46:33+02:00</time>
      </trkpt>
      <trkpt lat="44.45967" lon="1.76479">
        <ele>139</ele>
        <time>2021-10-08T17:46:33+02:00</time>
      </trkpt>
      <trkpt lat="44.45972" lon="1.76447">
        <ele>139</ele>
        <time>2021-10-08T17:46:33+02:00</time>
      </trkpt>
      <trkpt lat="44.45977" lon="1.76416">
        <ele>139</ele>
        <time>2021-10-08T17:46:33+02:00</time>
      </trkpt>
      <trkpt lat="44.45982" lon="1.76378">
        <ele>139</ele>
        <time>2021-10-08T17:46:33+02:00</time>
      </trkpt>
      <trkpt lat="44.45988" lon="1.7634">
        <ele>138</ele>
        <time>2021-10-08T17:46:33+02:00</time>
      </trkpt>
      <trkpt lat="44.45995" lon="1.76302">
        <ele>138</ele>
        <time>2021-10-08T17:46:33+02:00</time>
      </trkpt>
      <trkpt lat="44.45999" lon="1.76271">
        <ele>138</ele>
        <time>2021-10-08T17:46:33+02:00</time>
      </trkpt>
      <trkpt lat="44.46005" lon="1.76239">
        <ele>138</ele>
        <time>2021-10-08T17:46:33+02:00</time>
      </trkpt>
      <trkpt lat="44.46009" lon="1.76208">
        <ele>139</ele>
        <time>2021-10-08T17:46:33+02:00</time>
      </trkpt>
      <trkpt lat="44.46012" lon="1.76169">
        <ele>137</ele>
        <time>2021-10-08T17:46:33+02:00</time>
      </trkpt>
      <trkpt lat="44.46012" lon="1.76131">
        <ele>138</ele>
        <time>2021-10-08T17:46:33+02:00</time>
      </trkpt>
      <trkpt lat="44.46012" lon="1.76093">
        <ele>137</ele>
        <time>2021-10-08T17:46:33+02:00</time>
      </trkpt>
      <trkpt lat="44.46013" lon="1.76055">
        <ele>137</ele>
        <time>2021-10-08T17:46:33+02:00</time>
      </trkpt>
      <trkpt lat="44.46012" lon="1.76017">
        <ele>137</ele>
        <time>2021-10-08T17:46:33+02:00</time>
      </trkpt>
      <trkpt lat="44.46014" lon="1.75985">
        <ele>136</ele>
        <time>2021-10-08T17:46:33+02:00</time>
      </trkpt>
      <trkpt lat="44.46014" lon="1.75953">
        <ele>137</ele>
        <time>2021-10-08T17:46:33+02:00</time>
      </trkpt>
      <trkpt lat="44.46014" lon="1.75918">
        <ele>137</ele>
        <time>2021-10-08T17:46:33+02:00</time>
      </trkpt>
      <trkpt lat="44.46011" lon="1.75887">
        <ele>137</ele>
        <time>2021-10-08T17:46:33+02:00</time>
      </trkpt>
      <trkpt lat="44.46009" lon="1.7585">
        <ele>137</ele>
        <time>2021-10-08T17:46:33+02:00</time>
      </trkpt>
      <trkpt lat="44.46001" lon="1.75812">
        <ele>137</ele>
        <time>2021-10-08T17:46:33+02:00</time>
      </trkpt>
      <trkpt lat="44.45995" lon="1.75782">
        <ele>138</ele>
        <time>2021-10-08T17:46:33+02:00</time>
      </trkpt>
      <trkpt lat="44.4599" lon="1.7575">
        <ele>137</ele>
        <time>2021-10-08T17:46:33+02:00</time>
      </trkpt>
      <trkpt lat="44.45992" lon="1.75719">
        <ele>138</ele>
        <time>2021-10-08T17:46:33+02:00</time>
      </trkpt>
      <trkpt lat="44.46002" lon="1.75687">
        <ele>138</ele>
        <time>2021-10-08T17:46:33+02:00</time>
      </trkpt>
      <trkpt lat="44.46023" lon="1.75664">
        <ele>140</ele>
        <time>2021-10-08T17:46:33+02:00</time>
      </trkpt>
      <trkpt lat="44.46043" lon="1.75644">
        <ele>140</ele>
        <time>2021-10-08T17:46:33+02:00</time>
      </trkpt>
      <trkpt lat="44.46061" lon="1.75623">
        <ele>141</ele>
        <time>2021-10-08T17:46:33+02:00</time>
      </trkpt>
      <trkpt lat="44.46081" lon="1.75603">
        <ele>143</ele>
        <time>2021-10-08T17:46:33+02:00</time>
      </trkpt>
      <trkpt lat="44.46102" lon="1.75585">
        <ele>144</ele>
        <time>2021-10-08T17:46:33+02:00</time>
      </trkpt>
      <trkpt lat="44.46125" lon="1.75568">
        <ele>145</ele>
        <time>2021-10-08T17:46:33+02:00</time>
      </trkpt>
      <trkpt lat="44.46145" lon="1.75553">
        <ele>145</ele>
        <time>2021-10-08T17:46:33+02:00</time>
      </trkpt>
      <trkpt lat="44.46127" lon="1.75574">
        <ele>144</ele>
        <time>2021-10-08T17:46:33+02:00</time>
      </trkpt>
      <trkpt lat="44.46144" lon="1.75553">
        <ele>147</ele>
        <time>2021-10-08T17:46:33+02:00</time>
      </trkpt>
      <trkpt lat="44.46167" lon="1.75539">
        <ele>147</ele>
        <time>2021-10-08T17:46:33+02:00</time>
      </trkpt>
      <trkpt lat="44.46191" lon="1.75521">
        <ele>146</ele>
        <time>2021-10-08T17:46:33+02:00</time>
      </trkpt>
      <trkpt lat="44.46216" lon="1.75504">
        <ele>146</ele>
        <time>2021-10-08T17:46:33+02:00</time>
      </trkpt>
      <trkpt lat="44.46238" lon="1.75486">
        <ele>144</ele>
        <time>2021-10-08T17:46:33+02:00</time>
      </trkpt>
      <trkpt lat="44.46261" lon="1.75467">
        <ele>143</ele>
        <time>2021-10-08T17:46:33+02:00</time>
      </trkpt>
      <trkpt lat="44.46282" lon="1.75448">
        <ele>142</ele>
        <time>2021-10-08T17:46:33+02:00</time>
      </trkpt>
      <trkpt lat="44.46304" lon="1.75428">
        <ele>141</ele>
        <time>2021-10-08T17:46:33+02:00</time>
      </trkpt>
      <trkpt lat="44.46323" lon="1.7541">
        <ele>140</ele>
        <time>2021-10-08T17:46:33+02:00</time>
      </trkpt>
      <trkpt lat="44.46345" lon="1.75388">
        <ele>140</ele>
        <time>2021-10-08T17:46:33+02:00</time>
      </trkpt>
      <trkpt lat="44.46365" lon="1.75367">
        <ele>140</ele>
        <time>2021-10-08T17:46:33+02:00</time>
      </trkpt>
      <trkpt lat="44.46386" lon="1.75346">
        <ele>139</ele>
        <time>2021-10-08T17:46:33+02:00</time>
      </trkpt>
      <trkpt lat="44.46408" lon="1.75325">
        <ele>139</ele>
        <time>2021-10-08T17:46:33+02:00</time>
      </trkpt>
      <trkpt lat="44.46426" lon="1.75302">
        <ele>139</ele>
        <time>2021-10-08T17:46:33+02:00</time>
      </trkpt>
      <trkpt lat="44.46442" lon="1.75274">
        <ele>140</ele>
        <time>2021-10-08T17:46:33+02:00</time>
      </trkpt>
      <trkpt lat="44.46458" lon="1.75252">
        <ele>141</ele>
        <time>2021-10-08T17:46:33+02:00</time>
      </trkpt>
      <trkpt lat="44.46478" lon="1.75235">
        <ele>143</ele>
        <time>2021-10-08T17:46:33+02:00</time>
      </trkpt>
      <trkpt lat="44.46499" lon="1.75218">
        <ele>144</ele>
        <time>2021-10-08T17:46:33+02:00</time>
      </trkpt>
      <trkpt lat="44.46519" lon="1.75201">
        <ele>145</ele>
        <time>2021-10-08T17:46:33+02:00</time>
      </trkpt>
      <trkpt lat="44.46541" lon="1.75184">
        <ele>146</ele>
        <time>2021-10-08T17:46:33+02:00</time>
      </trkpt>
      <trkpt lat="44.4656" lon="1.75165">
        <ele>146</ele>
        <time>2021-10-08T17:46:33+02:00</time>
      </trkpt>
      <trkpt lat="44.46584" lon="1.75145">
        <ele>145</ele>
        <time>2021-10-08T17:46:33+02:00</time>
      </trkpt>
      <trkpt lat="44.46607" lon="1.75124">
        <ele>144</ele>
        <time>2021-10-08T17:46:33+02:00</time>
      </trkpt>
      <trkpt lat="44.46624" lon="1.75103">
        <ele>142</ele>
        <time>2021-10-08T17:46:33+02:00</time>
      </trkpt>
      <trkpt lat="44.46638" lon="1.75069">
        <ele>141</ele>
        <time>2021-10-08T17:46:33+02:00</time>
      </trkpt>
      <trkpt lat="44.46644" lon="1.75036">
        <ele>140</ele>
        <time>2021-10-08T17:46:33+02:00</time>
      </trkpt>
      <trkpt lat="44.46642" lon="1.74999">
        <ele>142</ele>
        <time>2021-10-08T17:46:33+02:00</time>
      </trkpt>
      <trkpt lat="44.46639" lon="1.74967">
        <ele>142</ele>
        <time>2021-10-08T17:46:33+02:00</time>
      </trkpt>
      <trkpt lat="44.4663" lon="1.74938">
        <ele>143</ele>
        <time>2021-10-08T17:46:33+02:00</time>
      </trkpt>
      <trkpt lat="44.46619" lon="1.74909">
        <ele>143</ele>
        <time>2021-10-08T17:46:33+02:00</time>
      </trkpt>
      <trkpt lat="44.46602" lon="1.7488">
        <ele>143</ele>
        <time>2021-10-08T17:46:33+02:00</time>
      </trkpt>
      <trkpt lat="44.46589" lon="1.74854">
        <ele>143</ele>
        <time>2021-10-08T17:46:33+02:00</time>
      </trkpt>
      <trkpt lat="44.46574" lon="1.74829">
        <ele>143</ele>
        <time>2021-10-08T17:46:33+02:00</time>
      </trkpt>
      <trkpt lat="44.46552" lon="1.74814">
        <ele>144</ele>
        <time>2021-10-08T17:46:33+02:00</time>
      </trkpt>
      <trkpt lat="44.4653" lon="1.74803">
        <ele>144</ele>
        <time>2021-10-08T17:46:33+02:00</time>
      </trkpt>
      <trkpt lat="44.46507" lon="1.74797">
        <ele>144</ele>
        <time>2021-10-08T17:46:33+02:00</time>
      </trkpt>
      <trkpt lat="44.46485" lon="1.74809">
        <ele>144</ele>
        <time>2021-10-08T17:46:33+02:00</time>
      </trkpt>
      <trkpt lat="44.46466" lon="1.74828">
        <ele>145</ele>
        <time>2021-10-08T17:46:33+02:00</time>
      </trkpt>
      <trkpt lat="44.46445" lon="1.74845">
        <ele>145</ele>
        <time>2021-10-08T17:46:33+02:00</time>
      </trkpt>
      <trkpt lat="44.46421" lon="1.74854">
        <ele>145</ele>
        <time>2021-10-08T17:46:33+02:00</time>
      </trkpt>
      <trkpt lat="44.464" lon="1.74864">
        <ele>145</ele>
        <time>2021-10-08T17:46:33+02:00</time>
      </trkpt>
      <trkpt lat="44.46375" lon="1.74871">
        <ele>146</ele>
        <time>2021-10-08T17:46:33+02:00</time>
      </trkpt>
      <trkpt lat="44.46348" lon="1.74878">
        <ele>145</ele>
        <time>2021-10-08T17:46:33+02:00</time>
      </trkpt>
      <trkpt lat="44.46325" lon="1.74887">
        <ele>146</ele>
        <time>2021-10-08T17:46:33+02:00</time>
      </trkpt>
      <trkpt lat="44.46302" lon="1.74902">
        <ele>147</ele>
        <time>2021-10-08T17:46:33+02:00</time>
      </trkpt>
      <trkpt lat="44.46281" lon="1.74912">
        <ele>147</ele>
        <time>2021-10-08T17:46:33+02:00</time>
      </trkpt>
      <trkpt lat="44.46257" lon="1.74912">
        <ele>147</ele>
        <time>2021-10-08T17:46:33+02:00</time>
      </trkpt>
      <trkpt lat="44.46242" lon="1.74888">
        <ele>148</ele>
        <time>2021-10-08T17:46:33+02:00</time>
      </trkpt>
      <trkpt lat="44.46226" lon="1.74857">
        <ele>146</ele>
        <time>2021-10-08T17:46:33+02:00</time>
      </trkpt>
      <trkpt lat="44.46225" lon="1.74821">
        <ele>146</ele>
        <time>2021-10-08T17:46:33+02:00</time>
      </trkpt>
      <trkpt lat="44.46242" lon="1.74798">
        <ele>146</ele>
        <time>2021-10-08T17:46:33+02:00</time>
      </trkpt>
      <trkpt lat="44.46261" lon="1.74769">
        <ele>144</ele>
        <time>2021-10-08T17:46:33+02:00</time>
      </trkpt>
      <trkpt lat="44.46277" lon="1.74742">
        <ele>145</ele>
        <time>2021-10-08T17:46:33+02:00</time>
      </trkpt>
      <trkpt lat="44.4629" lon="1.74712">
        <ele>144</ele>
        <time>2021-10-08T17:46:33+02:00</time>
      </trkpt>
      <trkpt lat="44.46288" lon="1.74677">
        <ele>144</ele>
        <time>2021-10-08T17:46:33+02:00</time>
      </trkpt>
      <trkpt lat="44.46283" lon="1.74645">
        <ele>144</ele>
        <time>2021-10-08T17:46:33+02:00</time>
      </trkpt>
      <trkpt lat="44.46274" lon="1.74611">
        <ele>144</ele>
        <time>2021-10-08T17:46:33+02:00</time>
      </trkpt>
      <trkpt lat="44.46264" lon="1.74579">
        <ele>144</ele>
        <time>2021-10-08T17:46:33+02:00</time>
      </trkpt>
      <trkpt lat="44.46255" lon="1.74548">
        <ele>143</ele>
        <time>2021-10-08T17:46:33+02:00</time>
      </trkpt>
      <trkpt lat="44.46246" lon="1.74519">
        <ele>143</ele>
        <time>2021-10-08T17:46:33+02:00</time>
      </trkpt>
      <trkpt lat="44.46236" lon="1.74489">
        <ele>143</ele>
        <time>2021-10-08T17:46:33+02:00</time>
      </trkpt>
      <trkpt lat="44.46223" lon="1.74462">
        <ele>143</ele>
        <time>2021-10-08T17:46:33+02:00</time>
      </trkpt>
      <trkpt lat="44.46201" lon="1.74445">
        <ele>141</ele>
        <time>2021-10-08T17:46:33+02:00</time>
      </trkpt>
      <trkpt lat="44.46179" lon="1.74429">
        <ele>141</ele>
        <time>2021-10-08T17:46:33+02:00</time>
      </trkpt>
      <trkpt lat="44.46157" lon="1.74412">
        <ele>140</ele>
        <time>2021-10-08T17:46:33+02:00</time>
      </trkpt>
      <trkpt lat="44.46135" lon="1.744">
        <ele>140</ele>
        <time>2021-10-08T17:46:33+02:00</time>
      </trkpt>
      <trkpt lat="44.46111" lon="1.74389">
        <ele>140</ele>
        <time>2021-10-08T17:46:33+02:00</time>
      </trkpt>
      <trkpt lat="44.46087" lon="1.7438">
        <ele>139</ele>
        <time>2021-10-08T17:46:33+02:00</time>
      </trkpt>
      <trkpt lat="44.46064" lon="1.74372">
        <ele>140</ele>
        <time>2021-10-08T17:46:33+02:00</time>
      </trkpt>
      <trkpt lat="44.46041" lon="1.7435">
        <ele>142</ele>
        <time>2021-10-08T17:46:33+02:00</time>
      </trkpt>
      <trkpt lat="44.4602" lon="1.74327">
        <ele>146</ele>
        <time>2021-10-08T17:46:33+02:00</time>
      </trkpt>
      <trkpt lat="44.46" lon="1.743">
        <ele>148</ele>
        <time>2021-10-08T17:46:33+02:00</time>
      </trkpt>
      <trkpt lat="44.45984" lon="1.74278">
        <ele>148</ele>
        <time>2021-10-08T17:46:33+02:00</time>
      </trkpt>
      <trkpt lat="44.45971" lon="1.7425">
        <ele>148</ele>
        <time>2021-10-08T17:46:33+02:00</time>
      </trkpt>
      <trkpt lat="44.45958" lon="1.74222">
        <ele>147</ele>
        <time>2021-10-08T17:46:33+02:00</time>
      </trkpt>
      <trkpt lat="44.45947" lon="1.74193">
        <ele>144</ele>
        <time>2021-10-08T17:46:33+02:00</time>
      </trkpt>
      <trkpt lat="44.45933" lon="1.74161">
        <ele>144</ele>
        <time>2021-10-08T17:46:33+02:00</time>
      </trkpt>
      <trkpt lat="44.45918" lon="1.74128">
        <ele>145</ele>
        <time>2021-10-08T17:46:33+02:00</time>
      </trkpt>
      <trkpt lat="44.45906" lon="1.74093">
        <ele>147</ele>
        <time>2021-10-08T17:46:33+02:00</time>
      </trkpt>
      <trkpt lat="44.45901" lon="1.74055">
        <ele>149</ele>
        <time>2021-10-08T17:46:33+02:00</time>
      </trkpt>
      <trkpt lat="44.45899" lon="1.74017">
        <ele>148</ele>
        <time>2021-10-08T17:46:33+02:00</time>
      </trkpt>
      <trkpt lat="44.45899" lon="1.73978">
        <ele>149</ele>
        <time>2021-10-08T17:46:33+02:00</time>
      </trkpt>
      <trkpt lat="44.45907" lon="1.7394">
        <ele>148</ele>
        <time>2021-10-08T17:46:33+02:00</time>
      </trkpt>
      <trkpt lat="44.45916" lon="1.73909">
        <ele>145</ele>
        <time>2021-10-08T17:46:33+02:00</time>
      </trkpt>
      <trkpt lat="44.45924" lon="1.73878">
        <ele>142</ele>
        <time>2021-10-08T17:46:33+02:00</time>
      </trkpt>
      <trkpt lat="44.45935" lon="1.73849">
        <ele>140</ele>
        <time>2021-10-08T17:46:33+02:00</time>
      </trkpt>
      <trkpt lat="44.45949" lon="1.73816">
        <ele>140</ele>
        <time>2021-10-08T17:46:33+02:00</time>
      </trkpt>
      <trkpt lat="44.45957" lon="1.73778">
        <ele>140</ele>
        <time>2021-10-08T17:46:33+02:00</time>
      </trkpt>
      <trkpt lat="44.45961" lon="1.73742">
        <ele>139</ele>
        <time>2021-10-08T17:46:33+02:00</time>
      </trkpt>
      <trkpt lat="44.45963" lon="1.73703">
        <ele>140</ele>
        <time>2021-10-08T17:46:33+02:00</time>
      </trkpt>
      <trkpt lat="44.45971" lon="1.73666">
        <ele>140</ele>
        <time>2021-10-08T17:46:33+02:00</time>
      </trkpt>
      <trkpt lat="44.45981" lon="1.73632">
        <ele>140</ele>
        <time>2021-10-08T17:46:33+02:00</time>
      </trkpt>
      <trkpt lat="44.4599" lon="1.73597">
        <ele>140</ele>
        <time>2021-10-08T17:46:33+02:00</time>
      </trkpt>
      <trkpt lat="44.45996" lon="1.7356">
        <ele>141</ele>
        <time>2021-10-08T17:46:33+02:00</time>
      </trkpt>
      <trkpt lat="44.46001" lon="1.73525">
        <ele>141</ele>
        <time>2021-10-08T17:46:33+02:00</time>
      </trkpt>
      <trkpt lat="44.46012" lon="1.73489">
        <ele>144</ele>
        <time>2021-10-08T17:46:33+02:00</time>
      </trkpt>
      <trkpt lat="44.46024" lon="1.73464">
        <ele>144</ele>
        <time>2021-10-08T17:46:33+02:00</time>
      </trkpt>
      <trkpt lat="44.4604" lon="1.73434">
        <ele>144</ele>
        <time>2021-10-08T17:46:33+02:00</time>
      </trkpt>
      <trkpt lat="44.46055" lon="1.73405">
        <ele>144</ele>
        <time>2021-10-08T17:46:33+02:00</time>
      </trkpt>
      <trkpt lat="44.46069" lon="1.73378">
        <ele>144</ele>
        <time>2021-10-08T17:46:33+02:00</time>
      </trkpt>
      <trkpt lat="44.46087" lon="1.73348">
        <ele>143</ele>
        <time>2021-10-08T17:46:33+02:00</time>
      </trkpt>
      <trkpt lat="44.46102" lon="1.73316">
        <ele>142</ele>
        <time>2021-10-08T17:46:33+02:00</time>
      </trkpt>
      <trkpt lat="44.46116" lon="1.7329">
        <ele>142</ele>
        <time>2021-10-08T17:46:33+02:00</time>
      </trkpt>
      <trkpt lat="44.46129" lon="1.73263">
        <ele>144</ele>
        <time>2021-10-08T17:46:33+02:00</time>
      </trkpt>
      <trkpt lat="44.46145" lon="1.73232">
        <ele>145</ele>
        <time>2021-10-08T17:46:33+02:00</time>
      </trkpt>
      <trkpt lat="44.46163" lon="1.73203">
        <ele>146</ele>
        <time>2021-10-08T17:46:33+02:00</time>
      </trkpt>
      <trkpt lat="44.46176" lon="1.73177">
        <ele>147</ele>
        <time>2021-10-08T17:46:33+02:00</time>
      </trkpt>
      <trkpt lat="44.46192" lon="1.73148">
        <ele>147</ele>
        <time>2021-10-08T17:46:33+02:00</time>
      </trkpt>
      <trkpt lat="44.46205" lon="1.73118">
        <ele>147</ele>
        <time>2021-10-08T17:46:33+02:00</time>
      </trkpt>
      <trkpt lat="44.46221" lon="1.73088">
        <ele>147</ele>
        <time>2021-10-08T17:46:33+02:00</time>
      </trkpt>
      <trkpt lat="44.46233" lon="1.73058">
        <ele>147</ele>
        <time>2021-10-08T17:46:33+02:00</time>
      </trkpt>
      <trkpt lat="44.46249" lon="1.7303">
        <ele>148</ele>
        <time>2021-10-08T17:46:33+02:00</time>
      </trkpt>
      <trkpt lat="44.46265" lon="1.73002">
        <ele>148</ele>
        <time>2021-10-08T17:46:33+02:00</time>
      </trkpt>
      <trkpt lat="44.46275" lon="1.72973">
        <ele>147</ele>
        <time>2021-10-08T17:46:33+02:00</time>
      </trkpt>
      <trkpt lat="44.46283" lon="1.72943">
        <ele>148</ele>
        <time>2021-10-08T17:46:33+02:00</time>
      </trkpt>
      <trkpt lat="44.46292" lon="1.72913">
        <ele>150</ele>
        <time>2021-10-08T17:46:33+02:00</time>
      </trkpt>
      <trkpt lat="44.46304" lon="1.72878">
        <ele>149</ele>
        <time>2021-10-08T17:46:33+02:00</time>
      </trkpt>
      <trkpt lat="44.46317" lon="1.72844">
        <ele>145</ele>
        <time>2021-10-08T17:46:33+02:00</time>
      </trkpt>
      <trkpt lat="44.4633" lon="1.72816">
        <ele>143</ele>
        <time>2021-10-08T17:46:33+02:00</time>
      </trkpt>
      <trkpt lat="44.46342" lon="1.72787">
        <ele>142</ele>
        <time>2021-10-08T17:46:33+02:00</time>
      </trkpt>
      <trkpt lat="44.46355" lon="1.72761">
        <ele>142</ele>
        <time>2021-10-08T17:46:33+02:00</time>
      </trkpt>
      <trkpt lat="44.4637" lon="1.72731">
        <ele>141</ele>
        <time>2021-10-08T17:46:33+02:00</time>
      </trkpt>
      <trkpt lat="44.46382" lon="1.72702">
        <ele>142</ele>
        <time>2021-10-08T17:46:33+02:00</time>
      </trkpt>
      <trkpt lat="44.46397" lon="1.72674">
        <ele>140</ele>
        <time>2021-10-08T17:46:33+02:00</time>
      </trkpt>
      <trkpt lat="44.46409" lon="1.72641">
        <ele>141</ele>
        <time>2021-10-08T17:46:33+02:00</time>
      </trkpt>
      <trkpt lat="44.46415" lon="1.72605">
        <ele>141</ele>
        <time>2021-10-08T17:46:33+02:00</time>
      </trkpt>
      <trkpt lat="44.46411" lon="1.72574">
        <ele>141</ele>
        <time>2021-10-08T17:46:33+02:00</time>
      </trkpt>
      <trkpt lat="44.46408" lon="1.72541">
        <ele>141</ele>
        <time>2021-10-08T17:46:33+02:00</time>
      </trkpt>
      <trkpt lat="44.46415" lon="1.72508">
        <ele>140</ele>
        <time>2021-10-08T17:46:33+02:00</time>
      </trkpt>
      <trkpt lat="44.46424" lon="1.72474">
        <ele>139</ele>
        <time>2021-10-08T17:46:33+02:00</time>
      </trkpt>
      <trkpt lat="44.46433" lon="1.72441">
        <ele>139</ele>
        <time>2021-10-08T17:46:33+02:00</time>
      </trkpt>
      <trkpt lat="44.46444" lon="1.72408">
        <ele>139</ele>
        <time>2021-10-08T17:46:33+02:00</time>
      </trkpt>
      <trkpt lat="44.46454" lon="1.72377">
        <ele>139</ele>
        <time>2021-10-08T17:46:33+02:00</time>
      </trkpt>
      <trkpt lat="44.46456" lon="1.72338">
        <ele>139</ele>
        <time>2021-10-08T17:46:33+02:00</time>
      </trkpt>
      <trkpt lat="44.46457" lon="1.72305">
        <ele>139</ele>
        <time>2021-10-08T17:46:33+02:00</time>
      </trkpt>
      <trkpt lat="44.46457" lon="1.72272">
        <ele>139</ele>
        <time>2021-10-08T17:46:33+02:00</time>
      </trkpt>
      <trkpt lat="44.46457" lon="1.7224">
        <ele>139</ele>
        <time>2021-10-08T17:46:33+02:00</time>
      </trkpt>
      <trkpt lat="44.46457" lon="1.72206">
        <ele>138</ele>
        <time>2021-10-08T17:46:33+02:00</time>
      </trkpt>
      <trkpt lat="44.46458" lon="1.72173">
        <ele>139</ele>
        <time>2021-10-08T17:46:33+02:00</time>
      </trkpt>
      <trkpt lat="44.46458" lon="1.7214">
        <ele>139</ele>
        <time>2021-10-08T17:46:33+02:00</time>
      </trkpt>
      <trkpt lat="44.46459" lon="1.72103">
        <ele>139</ele>
        <time>2021-10-08T17:46:33+02:00</time>
      </trkpt>
      <trkpt lat="44.4646" lon="1.72066">
        <ele>140</ele>
        <time>2021-10-08T17:46:33+02:00</time>
      </trkpt>
      <trkpt lat="44.46462" lon="1.72029">
        <ele>140</ele>
        <time>2021-10-08T17:46:33+02:00</time>
      </trkpt>
      <trkpt lat="44.46464" lon="1.71995">
        <ele>140</ele>
        <time>2021-10-08T17:46:33+02:00</time>
      </trkpt>
      <trkpt lat="44.46462" lon="1.7196">
        <ele>140</ele>
        <time>2021-10-08T17:46:33+02:00</time>
      </trkpt>
      <trkpt lat="44.46457" lon="1.71928">
        <ele>140</ele>
        <time>2021-10-08T17:46:33+02:00</time>
      </trkpt>
      <trkpt lat="44.46445" lon="1.71901">
        <ele>140</ele>
        <time>2021-10-08T17:46:33+02:00</time>
      </trkpt>
      <trkpt lat="44.4643" lon="1.71875">
        <ele>141</ele>
        <time>2021-10-08T17:46:33+02:00</time>
      </trkpt>
      <trkpt lat="44.46414" lon="1.71848">
        <ele>141</ele>
        <time>2021-10-08T17:46:33+02:00</time>
      </trkpt>
      <trkpt lat="44.46397" lon="1.71818">
        <ele>141</ele>
        <time>2021-10-08T17:46:33+02:00</time>
      </trkpt>
      <trkpt lat="44.46379" lon="1.71796">
        <ele>141</ele>
        <time>2021-10-08T17:46:33+02:00</time>
      </trkpt>
      <trkpt lat="44.46353" lon="1.71786">
        <ele>141</ele>
        <time>2021-10-08T17:46:33+02:00</time>
      </trkpt>
      <trkpt lat="44.46328" lon="1.7178">
        <ele>141</ele>
        <time>2021-10-08T17:46:33+02:00</time>
      </trkpt>
      <trkpt lat="44.46301" lon="1.71778">
        <ele>141</ele>
        <time>2021-10-08T17:46:33+02:00</time>
      </trkpt>
      <trkpt lat="44.46275" lon="1.71772">
        <ele>141</ele>
        <time>2021-10-08T17:46:33+02:00</time>
      </trkpt>
      <trkpt lat="44.46252" lon="1.71754">
        <ele>142</ele>
        <time>2021-10-08T17:46:33+02:00</time>
      </trkpt>
      <trkpt lat="44.46232" lon="1.71738">
        <ele>142</ele>
        <time>2021-10-08T17:46:33+02:00</time>
      </trkpt>
      <trkpt lat="44.46211" lon="1.71724">
        <ele>142</ele>
        <time>2021-10-08T17:46:33+02:00</time>
      </trkpt>
      <trkpt lat="44.46191" lon="1.71707">
        <ele>143</ele>
        <time>2021-10-08T17:46:33+02:00</time>
      </trkpt>
      <trkpt lat="44.46173" lon="1.71683">
        <ele>144</ele>
        <time>2021-10-08T17:46:33+02:00</time>
      </trkpt>
      <trkpt lat="44.46159" lon="1.71658">
        <ele>144</ele>
        <time>2021-10-08T17:46:33+02:00</time>
      </trkpt>
      <trkpt lat="44.46148" lon="1.71625">
        <ele>144</ele>
        <time>2021-10-08T17:46:33+02:00</time>
      </trkpt>
      <trkpt lat="44.46135" lon="1.71591">
        <ele>143</ele>
        <time>2021-10-08T17:46:33+02:00</time>
      </trkpt>
      <trkpt lat="44.46123" lon="1.7156">
        <ele>141</ele>
        <time>2021-10-08T17:46:33+02:00</time>
      </trkpt>
      <trkpt lat="44.46109" lon="1.71527">
        <ele>140</ele>
        <time>2021-10-08T17:46:33+02:00</time>
      </trkpt>
      <trkpt lat="44.46095" lon="1.71493">
        <ele>140</ele>
        <time>2021-10-08T17:46:33+02:00</time>
      </trkpt>
      <trkpt lat="44.46082" lon="1.71461">
        <ele>139</ele>
        <time>2021-10-08T17:46:33+02:00</time>
      </trkpt>
      <trkpt lat="44.46071" lon="1.7143">
        <ele>138</ele>
        <time>2021-10-08T17:46:33+02:00</time>
      </trkpt>
      <trkpt lat="44.46063" lon="1.714">
        <ele>138</ele>
        <time>2021-10-08T17:46:33+02:00</time>
      </trkpt>
      <trkpt lat="44.46057" lon="1.71363">
        <ele>140</ele>
        <time>2021-10-08T17:46:33+02:00</time>
      </trkpt>
      <trkpt lat="44.46051" lon="1.71325">
        <ele>141</ele>
        <time>2021-10-08T17:46:33+02:00</time>
      </trkpt>
      <trkpt lat="44.46044" lon="1.71289">
        <ele>143</ele>
        <time>2021-10-08T17:46:33+02:00</time>
      </trkpt>
      <trkpt lat="44.46039" lon="1.71257">
        <ele>146</ele>
        <time>2021-10-08T17:46:33+02:00</time>
      </trkpt>
      <trkpt lat="44.46036" lon="1.71224">
        <ele>146</ele>
        <time>2021-10-08T17:46:33+02:00</time>
      </trkpt>
      <trkpt lat="44.4603" lon="1.71186">
        <ele>147</ele>
        <time>2021-10-08T17:46:33+02:00</time>
      </trkpt>
      <trkpt lat="44.46025" lon="1.71155">
        <ele>147</ele>
        <time>2021-10-08T17:46:33+02:00</time>
      </trkpt>
      <trkpt lat="44.46021" lon="1.71123">
        <ele>146</ele>
        <time>2021-10-08T17:46:33+02:00</time>
      </trkpt>
      <trkpt lat="44.46015" lon="1.71092">
        <ele>148</ele>
        <time>2021-10-08T17:46:33+02:00</time>
      </trkpt>
      <trkpt lat="44.4601" lon="1.7106">
        <ele>148</ele>
        <time>2021-10-08T17:46:33+02:00</time>
      </trkpt>
      <trkpt lat="44.46006" lon="1.71021">
        <ele>147</ele>
        <time>2021-10-08T17:46:33+02:00</time>
      </trkpt>
      <trkpt lat="44.45999" lon="1.70984">
        <ele>146</ele>
        <time>2021-10-08T17:46:33+02:00</time>
      </trkpt>
      <trkpt lat="44.45994" lon="1.70952">
        <ele>145</ele>
        <time>2021-10-08T17:46:33+02:00</time>
      </trkpt>
      <trkpt lat="44.45988" lon="1.7092">
        <ele>143</ele>
        <time>2021-10-08T17:46:33+02:00</time>
      </trkpt>
      <trkpt lat="44.4598" lon="1.70888">
        <ele>143</ele>
        <time>2021-10-08T17:46:33+02:00</time>
      </trkpt>
      <trkpt lat="44.45971" lon="1.70853">
        <ele>145</ele>
        <time>2021-10-08T17:46:33+02:00</time>
      </trkpt>
      <trkpt lat="44.45959" lon="1.70819">
        <ele>146</ele>
        <time>2021-10-08T17:46:33+02:00</time>
      </trkpt>
      <trkpt lat="44.45949" lon="1.70785">
        <ele>148</ele>
        <time>2021-10-08T17:46:33+02:00</time>
      </trkpt>
      <trkpt lat="44.45937" lon="1.70752">
        <ele>151</ele>
        <time>2021-10-08T17:46:33+02:00</time>
      </trkpt>
      <trkpt lat="44.45929" lon="1.70715">
        <ele>153</ele>
        <time>2021-10-08T17:46:33+02:00</time>
      </trkpt>
      <trkpt lat="44.45921" lon="1.70677">
        <ele>152</ele>
        <time>2021-10-08T17:46:33+02:00</time>
      </trkpt>
      <trkpt lat="44.45907" lon="1.70649">
        <ele>152</ele>
        <time>2021-10-08T17:46:33+02:00</time>
      </trkpt>
      <trkpt lat="44.45898" lon="1.70619">
        <ele>151</ele>
        <time>2021-10-08T17:46:33+02:00</time>
      </trkpt>
      <trkpt lat="44.45882" lon="1.70587">
        <ele>150</ele>
        <time>2021-10-08T17:46:33+02:00</time>
      </trkpt>
      <trkpt lat="44.45872" lon="1.70557">
        <ele>147</ele>
        <time>2021-10-08T17:46:33+02:00</time>
      </trkpt>
      <trkpt lat="44.45864" lon="1.70525">
        <ele>146</ele>
        <time>2021-10-08T17:46:33+02:00</time>
      </trkpt>
      <trkpt lat="44.45857" lon="1.70493">
        <ele>145</ele>
        <time>2021-10-08T17:46:33+02:00</time>
      </trkpt>
      <trkpt lat="44.4585" lon="1.7046">
        <ele>146</ele>
        <time>2021-10-08T17:46:33+02:00</time>
      </trkpt>
      <trkpt lat="44.45842" lon="1.70423">
        <ele>147</ele>
        <time>2021-10-08T17:46:33+02:00</time>
      </trkpt>
      <trkpt lat="44.45832" lon="1.7039">
        <ele>148</ele>
        <time>2021-10-08T17:46:33+02:00</time>
      </trkpt>
      <trkpt lat="44.45821" lon="1.70362">
        <ele>149</ele>
        <time>2021-10-08T17:46:33+02:00</time>
      </trkpt>
      <trkpt lat="44.45816" lon="1.7033">
        <ele>149</ele>
        <time>2021-10-08T17:46:33+02:00</time>
      </trkpt>
      <trkpt lat="44.45809" lon="1.70299">
        <ele>149</ele>
        <time>2021-10-08T17:46:33+02:00</time>
      </trkpt>
      <trkpt lat="44.45805" lon="1.70264">
        <ele>147</ele>
        <time>2021-10-08T17:46:33+02:00</time>
      </trkpt>
      <trkpt lat="44.45799" lon="1.70232">
        <ele>145</ele>
        <time>2021-10-08T17:46:33+02:00</time>
      </trkpt>
      <trkpt lat="44.45794" lon="1.70201">
        <ele>144</ele>
        <time>2021-10-08T17:46:33+02:00</time>
      </trkpt>
      <trkpt lat="44.45787" lon="1.70166">
        <ele>142</ele>
        <time>2021-10-08T17:46:33+02:00</time>
      </trkpt>
      <trkpt lat="44.45778" lon="1.70136">
        <ele>142</ele>
        <time>2021-10-08T17:46:33+02:00</time>
      </trkpt>
      <trkpt lat="44.45769" lon="1.70104">
        <ele>142</ele>
        <time>2021-10-08T17:46:33+02:00</time>
      </trkpt>
      <trkpt lat="44.45762" lon="1.7007">
        <ele>141</ele>
        <time>2021-10-08T17:46:33+02:00</time>
      </trkpt>
      <trkpt lat="44.45751" lon="1.70035">
        <ele>141</ele>
        <time>2021-10-08T17:46:33+02:00</time>
      </trkpt>
      <trkpt lat="44.4574" lon="1.70003">
        <ele>141</ele>
        <time>2021-10-08T17:46:33+02:00</time>
      </trkpt>
      <trkpt lat="44.45732" lon="1.69973">
        <ele>141</ele>
        <time>2021-10-08T17:46:33+02:00</time>
      </trkpt>
      <trkpt lat="44.45726" lon="1.69941">
        <ele>141</ele>
        <time>2021-10-08T17:46:33+02:00</time>
      </trkpt>
      <trkpt lat="44.45717" lon="1.69908">
        <ele>143</ele>
        <time>2021-10-08T17:46:33+02:00</time>
      </trkpt>
      <trkpt lat="44.4571" lon="1.69877">
        <ele>146</ele>
        <time>2021-10-08T17:46:33+02:00</time>
      </trkpt>
      <trkpt lat="44.45701" lon="1.69845">
        <ele>149</ele>
        <time>2021-10-08T17:46:33+02:00</time>
      </trkpt>
      <trkpt lat="44.45698" lon="1.6981">
        <ele>150</ele>
        <time>2021-10-08T17:46:33+02:00</time>
      </trkpt>
      <trkpt lat="44.45697" lon="1.69775">
        <ele>150</ele>
        <time>2021-10-08T17:46:33+02:00</time>
      </trkpt>
      <trkpt lat="44.45691" lon="1.69742">
        <ele>150</ele>
        <time>2021-10-08T17:46:33+02:00</time>
      </trkpt>
      <trkpt lat="44.45677" lon="1.69717">
        <ele>150</ele>
        <time>2021-10-08T17:46:33+02:00</time>
      </trkpt>
      <trkpt lat="44.45654" lon="1.69713">
        <ele>150</ele>
        <time>2021-10-08T17:46:33+02:00</time>
      </trkpt>
      <trkpt lat="44.45629" lon="1.6971">
        <ele>149</ele>
        <time>2021-10-08T17:46:33+02:00</time>
      </trkpt>
      <trkpt lat="44.456" lon="1.69704">
        <ele>145</ele>
        <time>2021-10-08T17:46:33+02:00</time>
      </trkpt>
      <trkpt lat="44.45574" lon="1.697">
        <ele>144</ele>
        <time>2021-10-08T17:46:33+02:00</time>
      </trkpt>
      <trkpt lat="44.45549" lon="1.69698">
        <ele>142</ele>
        <time>2021-10-08T17:46:33+02:00</time>
      </trkpt>
      <trkpt lat="44.45523" lon="1.69693">
        <ele>138</ele>
        <time>2021-10-08T17:46:33+02:00</time>
      </trkpt>
      <trkpt lat="44.45495" lon="1.69685">
        <ele>138</ele>
        <time>2021-10-08T17:46:33+02:00</time>
      </trkpt>
      <trkpt lat="44.45467" lon="1.69678">
        <ele>136</ele>
        <time>2021-10-08T17:46:33+02:00</time>
      </trkpt>
      <trkpt lat="44.45442" lon="1.69662">
        <ele>134</ele>
        <time>2021-10-08T17:46:33+02:00</time>
      </trkpt>
      <trkpt lat="44.45435" lon="1.69625">
        <ele>133</ele>
        <time>2021-10-08T17:46:33+02:00</time>
      </trkpt>
      <trkpt lat="44.45434" lon="1.6959">
        <ele>132</ele>
        <time>2021-10-08T17:46:33+02:00</time>
      </trkpt>
      <trkpt lat="44.45436" lon="1.69551">
        <ele>133</ele>
        <time>2021-10-08T17:46:33+02:00</time>
      </trkpt>
      <trkpt lat="44.45448" lon="1.69521">
        <ele>134</ele>
        <time>2021-10-08T17:46:33+02:00</time>
      </trkpt>
      <trkpt lat="44.45471" lon="1.69506">
        <ele>136</ele>
        <time>2021-10-08T17:46:33+02:00</time>
      </trkpt>
      <trkpt lat="44.45491" lon="1.69491">
        <ele>137</ele>
        <time>2021-10-08T17:46:33+02:00</time>
      </trkpt>
      <trkpt lat="44.45516" lon="1.69479">
        <ele>138</ele>
        <time>2021-10-08T17:46:33+02:00</time>
      </trkpt>
      <trkpt lat="44.45543" lon="1.69475">
        <ele>139</ele>
        <time>2021-10-08T17:46:33+02:00</time>
      </trkpt>
      <trkpt lat="44.45567" lon="1.69473">
        <ele>139</ele>
        <time>2021-10-08T17:46:33+02:00</time>
      </trkpt>
      <trkpt lat="44.45594" lon="1.69471">
        <ele>139</ele>
        <time>2021-10-08T17:46:33+02:00</time>
      </trkpt>
      <trkpt lat="44.45618" lon="1.69467">
        <ele>140</ele>
        <time>2021-10-08T17:46:33+02:00</time>
      </trkpt>
      <trkpt lat="44.45643" lon="1.69448">
        <ele>137</ele>
        <time>2021-10-08T17:46:33+02:00</time>
      </trkpt>
      <trkpt lat="44.45664" lon="1.69421">
        <ele>136</ele>
        <time>2021-10-08T17:46:33+02:00</time>
      </trkpt>
      <trkpt lat="44.45674" lon="1.69383">
        <ele>136</ele>
        <time>2021-10-08T17:46:33+02:00</time>
      </trkpt>
      <trkpt lat="44.45683" lon="1.69349">
        <ele>138</ele>
        <time>2021-10-08T17:46:33+02:00</time>
      </trkpt>
      <trkpt lat="44.45694" lon="1.69321">
        <ele>140</ele>
        <time>2021-10-08T17:46:33+02:00</time>
      </trkpt>
      <trkpt lat="44.45703" lon="1.69287">
        <ele>141</ele>
        <time>2021-10-08T17:46:33+02:00</time>
      </trkpt>
      <trkpt lat="44.45717" lon="1.69254">
        <ele>141</ele>
        <time>2021-10-08T17:46:33+02:00</time>
      </trkpt>
      <trkpt lat="44.45729" lon="1.69219">
        <ele>141</ele>
        <time>2021-10-08T17:46:33+02:00</time>
      </trkpt>
      <trkpt lat="44.45736" lon="1.69185">
        <ele>141</ele>
        <time>2021-10-08T17:46:33+02:00</time>
      </trkpt>
      <trkpt lat="44.45747" lon="1.69157">
        <ele>140</ele>
        <time>2021-10-08T17:46:33+02:00</time>
      </trkpt>
      <trkpt lat="44.45759" lon="1.69125">
        <ele>141</ele>
        <time>2021-10-08T17:46:33+02:00</time>
      </trkpt>
      <trkpt lat="44.45774" lon="1.69097">
        <ele>141</ele>
        <time>2021-10-08T17:46:33+02:00</time>
      </trkpt>
      <trkpt lat="44.4579" lon="1.69073">
        <ele>141</ele>
        <time>2021-10-08T17:46:33+02:00</time>
      </trkpt>
      <trkpt lat="44.45805" lon="1.69047">
        <ele>142</ele>
        <time>2021-10-08T17:46:33+02:00</time>
      </trkpt>
      <trkpt lat="44.45819" lon="1.69022">
        <ele>142</ele>
        <time>2021-10-08T17:46:33+02:00</time>
      </trkpt>
      <trkpt lat="44.45839" lon="1.69004">
        <ele>143</ele>
        <time>2021-10-08T17:46:33+02:00</time>
      </trkpt>
      <trkpt lat="44.45857" lon="1.68985">
        <ele>142</ele>
        <time>2021-10-08T17:46:33+02:00</time>
      </trkpt>
      <trkpt lat="44.45874" lon="1.68957">
        <ele>141</ele>
        <time>2021-10-08T17:46:33+02:00</time>
      </trkpt>
      <trkpt lat="44.45891" lon="1.68933">
        <ele>140</ele>
        <time>2021-10-08T17:46:33+02:00</time>
      </trkpt>
      <trkpt lat="44.45906" lon="1.68904">
        <ele>141</ele>
        <time>2021-10-08T17:46:33+02:00</time>
      </trkpt>
      <trkpt lat="44.45928" lon="1.68883">
        <ele>141</ele>
        <time>2021-10-08T17:46:33+02:00</time>
      </trkpt>
      <trkpt lat="44.45949" lon="1.68858">
        <ele>141</ele>
        <time>2021-10-08T17:46:33+02:00</time>
      </trkpt>
      <trkpt lat="44.45967" lon="1.68838">
        <ele>141</ele>
        <time>2021-10-08T17:46:33+02:00</time>
      </trkpt>
      <trkpt lat="44.45984" lon="1.68817">
        <ele>141</ele>
        <time>2021-10-08T17:46:33+02:00</time>
      </trkpt>
      <trkpt lat="44.46005" lon="1.68793">
        <ele>142</ele>
        <time>2021-10-08T17:46:33+02:00</time>
      </trkpt>
      <trkpt lat="44.46025" lon="1.68771">
        <ele>143</ele>
        <time>2021-10-08T17:46:33+02:00</time>
      </trkpt>
      <trkpt lat="44.46044" lon="1.68753">
        <ele>143</ele>
        <time>2021-10-08T17:46:33+02:00</time>
      </trkpt>
      <trkpt lat="44.46064" lon="1.68733">
        <ele>143</ele>
        <time>2021-10-08T17:46:33+02:00</time>
      </trkpt>
      <trkpt lat="44.46084" lon="1.68717">
        <ele>143</ele>
        <time>2021-10-08T17:46:33+02:00</time>
      </trkpt>
      <trkpt lat="44.46103" lon="1.68695">
        <ele>142</ele>
        <time>2021-10-08T17:46:33+02:00</time>
      </trkpt>
      <trkpt lat="44.46121" lon="1.68677">
        <ele>143</ele>
        <time>2021-10-08T17:46:33+02:00</time>
      </trkpt>
      <trkpt lat="44.46142" lon="1.6866">
        <ele>144</ele>
        <time>2021-10-08T17:46:33+02:00</time>
      </trkpt>
      <trkpt lat="44.46164" lon="1.68644">
        <ele>143</ele>
        <time>2021-10-08T17:46:33+02:00</time>
      </trkpt>
      <trkpt lat="44.46186" lon="1.68627">
        <ele>142</ele>
        <time>2021-10-08T17:46:33+02:00</time>
      </trkpt>
      <trkpt lat="44.46206" lon="1.68613">
        <ele>143</ele>
        <time>2021-10-08T17:46:33+02:00</time>
      </trkpt>
      <trkpt lat="44.46229" lon="1.68597">
        <ele>144</ele>
        <time>2021-10-08T17:46:33+02:00</time>
      </trkpt>
      <trkpt lat="44.46252" lon="1.68579">
        <ele>144</ele>
        <time>2021-10-08T17:46:33+02:00</time>
      </trkpt>
      <trkpt lat="44.46276" lon="1.68564">
        <ele>145</ele>
        <time>2021-10-08T17:46:33+02:00</time>
      </trkpt>
      <trkpt lat="44.46302" lon="1.68547">
        <ele>144</ele>
        <time>2021-10-08T17:46:33+02:00</time>
      </trkpt>
      <trkpt lat="44.46323" lon="1.68527">
        <ele>143</ele>
        <time>2021-10-08T17:46:33+02:00</time>
      </trkpt>
      <trkpt lat="44.46346" lon="1.68509">
        <ele>142</ele>
        <time>2021-10-08T17:46:33+02:00</time>
      </trkpt>
      <trkpt lat="44.46369" lon="1.68489">
        <ele>141</ele>
        <time>2021-10-08T17:46:33+02:00</time>
      </trkpt>
      <trkpt lat="44.46393" lon="1.68472">
        <ele>141</ele>
        <time>2021-10-08T17:46:33+02:00</time>
      </trkpt>
      <trkpt lat="44.46414" lon="1.68459">
        <ele>141</ele>
        <time>2021-10-08T17:46:33+02:00</time>
      </trkpt>
      <trkpt lat="44.46437" lon="1.68447">
        <ele>142</ele>
        <time>2021-10-08T17:46:33+02:00</time>
      </trkpt>
      <trkpt lat="44.46461" lon="1.68436">
        <ele>142</ele>
        <time>2021-10-08T17:46:33+02:00</time>
      </trkpt>
      <trkpt lat="44.46483" lon="1.68423">
        <ele>143</ele>
        <time>2021-10-08T17:46:33+02:00</time>
      </trkpt>
      <trkpt lat="44.46502" lon="1.68406">
        <ele>144</ele>
        <time>2021-10-08T17:46:33+02:00</time>
      </trkpt>
      <trkpt lat="44.46526" lon="1.68395">
        <ele>144</ele>
        <time>2021-10-08T17:46:33+02:00</time>
      </trkpt>
      <trkpt lat="44.46548" lon="1.68385">
        <ele>145</ele>
        <time>2021-10-08T17:46:33+02:00</time>
      </trkpt>
      <trkpt lat="44.4657" lon="1.68375">
        <ele>144</ele>
        <time>2021-10-08T17:46:33+02:00</time>
      </trkpt>
      <trkpt lat="44.46592" lon="1.68368">
        <ele>145</ele>
        <time>2021-10-08T17:46:33+02:00</time>
      </trkpt>
      <trkpt lat="44.46615" lon="1.6836">
        <ele>143</ele>
        <time>2021-10-08T17:46:33+02:00</time>
      </trkpt>
      <trkpt lat="44.4664" lon="1.6835">
        <ele>144</ele>
        <time>2021-10-08T17:46:33+02:00</time>
      </trkpt>
      <trkpt lat="44.46665" lon="1.68345">
        <ele>145</ele>
        <time>2021-10-08T17:46:33+02:00</time>
      </trkpt>
      <trkpt lat="44.46691" lon="1.6834">
        <ele>144</ele>
        <time>2021-10-08T17:46:33+02:00</time>
      </trkpt>
      <trkpt lat="44.46717" lon="1.68331">
        <ele>145</ele>
        <time>2021-10-08T17:46:33+02:00</time>
      </trkpt>
      <trkpt lat="44.4674" lon="1.68325">
        <ele>145</ele>
        <time>2021-10-08T17:46:33+02:00</time>
      </trkpt>
      <trkpt lat="44.46763" lon="1.68315">
        <ele>145</ele>
        <time>2021-10-08T17:46:33+02:00</time>
      </trkpt>
      <trkpt lat="44.46789" lon="1.68306">
        <ele>145</ele>
        <time>2021-10-08T17:46:33+02:00</time>
      </trkpt>
      <trkpt lat="44.46815" lon="1.683">
        <ele>145</ele>
        <time>2021-10-08T17:46:33+02:00</time>
      </trkpt>
      <trkpt lat="44.46838" lon="1.68288">
        <ele>145</ele>
        <time>2021-10-08T17:46:33+02:00</time>
      </trkpt>
      <trkpt lat="44.4686" lon="1.68278">
        <ele>144</ele>
        <time>2021-10-08T17:46:33+02:00</time>
      </trkpt>
      <trkpt lat="44.46886" lon="1.68267">
        <ele>143</ele>
        <time>2021-10-08T17:46:33+02:00</time>
      </trkpt>
      <trkpt lat="44.46905" lon="1.68244">
        <ele>140</ele>
        <time>2021-10-08T17:46:33+02:00</time>
      </trkpt>
      <trkpt lat="44.46926" lon="1.68234">
        <ele>139</ele>
        <time>2021-10-08T17:46:33+02:00</time>
      </trkpt>
      <trkpt lat="44.46925" lon="1.68203">
        <ele>137</ele>
        <time>2021-10-08T17:46:33+02:00</time>
      </trkpt>
      <trkpt lat="44.46912" lon="1.68172">
        <ele>138</ele>
        <time>2021-10-08T17:46:33+02:00</time>
      </trkpt>
      <trkpt lat="44.46903" lon="1.6814">
        <ele>140</ele>
        <time>2021-10-08T17:46:33+02:00</time>
      </trkpt>
      <trkpt lat="44.46889" lon="1.68111">
        <ele>140</ele>
        <time>2021-10-08T17:46:33+02:00</time>
      </trkpt>
      <trkpt lat="44.46872" lon="1.68085">
        <ele>140</ele>
        <time>2021-10-08T17:46:33+02:00</time>
      </trkpt>
      <trkpt lat="44.46855" lon="1.68059">
        <ele>142</ele>
        <time>2021-10-08T17:46:33+02:00</time>
      </trkpt>
      <trkpt lat="44.46839" lon="1.68035">
        <ele>144</ele>
        <time>2021-10-08T17:46:33+02:00</time>
      </trkpt>
      <trkpt lat="44.4682" lon="1.6801">
        <ele>146</ele>
        <time>2021-10-08T17:46:33+02:00</time>
      </trkpt>
      <trkpt lat="44.46803" lon="1.67987">
        <ele>149</ele>
        <time>2021-10-08T17:46:33+02:00</time>
      </trkpt>
      <trkpt lat="44.46788" lon="1.67964">
        <ele>151</ele>
        <time>2021-10-08T17:46:33+02:00</time>
      </trkpt>
      <trkpt lat="44.46775" lon="1.67933">
        <ele>149</ele>
        <time>2021-10-08T17:46:33+02:00</time>
      </trkpt>
      <trkpt lat="44.46761" lon="1.67901">
        <ele>147</ele>
        <time>2021-10-08T17:46:33+02:00</time>
      </trkpt>
      <trkpt lat="44.46749" lon="1.67872">
        <ele>144</ele>
        <time>2021-10-08T17:46:33+02:00</time>
      </trkpt>
      <trkpt lat="44.46738" lon="1.67845">
        <ele>145</ele>
        <time>2021-10-08T17:46:33+02:00</time>
      </trkpt>
      <trkpt lat="44.46723" lon="1.67812">
        <ele>144</ele>
        <time>2021-10-08T17:46:33+02:00</time>
      </trkpt>
      <trkpt lat="44.46721" lon="1.67773">
        <ele>144</ele>
        <time>2021-10-08T17:46:33+02:00</time>
      </trkpt>
      <trkpt lat="44.46721" lon="1.67739">
        <ele>143</ele>
        <time>2021-10-08T17:46:33+02:00</time>
      </trkpt>
      <trkpt lat="44.4672" lon="1.67703">
        <ele>143</ele>
        <time>2021-10-08T17:46:33+02:00</time>
      </trkpt>
      <trkpt lat="44.46719" lon="1.67664">
        <ele>141</ele>
        <time>2021-10-08T17:46:33+02:00</time>
      </trkpt>
      <trkpt lat="44.46711" lon="1.67625">
        <ele>139</ele>
        <time>2021-10-08T17:46:33+02:00</time>
      </trkpt>
      <trkpt lat="44.46702" lon="1.67589">
        <ele>137</ele>
        <time>2021-10-08T17:46:33+02:00</time>
      </trkpt>
      <trkpt lat="44.46685" lon="1.67556">
        <ele>133</ele>
        <time>2021-10-08T17:46:33+02:00</time>
      </trkpt>
      <trkpt lat="44.46668" lon="1.67526">
        <ele>134</ele>
        <time>2021-10-08T17:46:33+02:00</time>
      </trkpt>
      <trkpt lat="44.46654" lon="1.67495">
        <ele>133</ele>
        <time>2021-10-08T17:46:33+02:00</time>
      </trkpt>
      <trkpt lat="44.46648" lon="1.67455">
        <ele>132</ele>
        <time>2021-10-08T17:46:33+02:00</time>
      </trkpt>
      <trkpt lat="44.4664" lon="1.67424">
        <ele>133</ele>
        <time>2021-10-08T17:46:33+02:00</time>
      </trkpt>
      <trkpt lat="44.4663" lon="1.67387">
        <ele>132</ele>
        <time>2021-10-08T17:46:33+02:00</time>
      </trkpt>
      <trkpt lat="44.46619" lon="1.67357">
        <ele>131</ele>
        <time>2021-10-08T17:46:33+02:00</time>
      </trkpt>
      <trkpt lat="44.46603" lon="1.67328">
        <ele>131</ele>
        <time>2021-10-08T17:46:33+02:00</time>
      </trkpt>
      <trkpt lat="44.46585" lon="1.67301">
        <ele>131</ele>
        <time>2021-10-08T17:46:33+02:00</time>
      </trkpt>
      <trkpt lat="44.46563" lon="1.67281">
        <ele>134</ele>
        <time>2021-10-08T17:46:33+02:00</time>
      </trkpt>
      <trkpt lat="44.4655" lon="1.6725">
        <ele>136</ele>
        <time>2021-10-08T17:46:33+02:00</time>
      </trkpt>
      <trkpt lat="44.46541" lon="1.67214">
        <ele>137</ele>
        <time>2021-10-08T17:46:33+02:00</time>
      </trkpt>
      <trkpt lat="44.46536" lon="1.6718">
        <ele>137</ele>
        <time>2021-10-08T17:46:33+02:00</time>
      </trkpt>
      <trkpt lat="44.46532" lon="1.67147">
        <ele>138</ele>
        <time>2021-10-08T17:46:33+02:00</time>
      </trkpt>
      <trkpt lat="44.4653" lon="1.67114">
        <ele>140</ele>
        <time>2021-10-08T17:46:33+02:00</time>
      </trkpt>
      <trkpt lat="44.46534" lon="1.67078">
        <ele>140</ele>
        <time>2021-10-08T17:46:33+02:00</time>
      </trkpt>
      <trkpt lat="44.46543" lon="1.67046">
        <ele>142</ele>
        <time>2021-10-08T17:46:33+02:00</time>
      </trkpt>
      <trkpt lat="44.4655" lon="1.67015">
        <ele>141</ele>
        <time>2021-10-08T17:46:33+02:00</time>
      </trkpt>
      <trkpt lat="44.46553" lon="1.66983">
        <ele>140</ele>
        <time>2021-10-08T17:46:33+02:00</time>
      </trkpt>
      <trkpt lat="44.46556" lon="1.66949">
        <ele>141</ele>
        <time>2021-10-08T17:46:33+02:00</time>
      </trkpt>
      <trkpt lat="44.46567" lon="1.66914">
        <ele>142</ele>
        <time>2021-10-08T17:46:33+02:00</time>
      </trkpt>
      <trkpt lat="44.46577" lon="1.66879">
        <ele>143</ele>
        <time>2021-10-08T17:46:33+02:00</time>
      </trkpt>
      <trkpt lat="44.46589" lon="1.66851">
        <ele>142</ele>
        <time>2021-10-08T17:46:33+02:00</time>
      </trkpt>
      <trkpt lat="44.46603" lon="1.66819">
        <ele>141</ele>
        <time>2021-10-08T17:46:33+02:00</time>
      </trkpt>
      <trkpt lat="44.46616" lon="1.66789">
        <ele>139</ele>
        <time>2021-10-08T17:46:33+02:00</time>
      </trkpt>
      <trkpt lat="44.46633" lon="1.66764">
        <ele>140</ele>
        <time>2021-10-08T17:46:33+02:00</time>
      </trkpt>
      <trkpt lat="44.46651" lon="1.66735">
        <ele>138</ele>
        <time>2021-10-08T17:46:33+02:00</time>
      </trkpt>
      <trkpt lat="44.46674" lon="1.66715">
        <ele>138</ele>
        <time>2021-10-08T17:46:33+02:00</time>
      </trkpt>
      <trkpt lat="44.46695" lon="1.66688">
        <ele>136</ele>
        <time>2021-10-08T17:46:33+02:00</time>
      </trkpt>
      <trkpt lat="44.46712" lon="1.66668">
        <ele>134</ele>
        <time>2021-10-08T17:46:33+02:00</time>
      </trkpt>
      <trkpt lat="44.46729" lon="1.66643">
        <ele>134</ele>
        <time>2021-10-08T17:46:33+02:00</time>
      </trkpt>
      <trkpt lat="44.46746" lon="1.6662">
        <ele>133</ele>
        <time>2021-10-08T17:46:33+02:00</time>
      </trkpt>
      <trkpt lat="44.46767" lon="1.66599">
        <ele>133</ele>
        <time>2021-10-08T17:46:33+02:00</time>
      </trkpt>
      <trkpt lat="44.46788" lon="1.66581">
        <ele>134</ele>
        <time>2021-10-08T17:46:33+02:00</time>
      </trkpt>
      <trkpt lat="44.46805" lon="1.6656">
        <ele>136</ele>
        <time>2021-10-08T17:46:33+02:00</time>
      </trkpt>
      <trkpt lat="44.46821" lon="1.66538">
        <ele>138</ele>
        <time>2021-10-08T17:46:33+02:00</time>
      </trkpt>
      <trkpt lat="44.4684" lon="1.66514">
        <ele>138</ele>
        <time>2021-10-08T17:46:33+02:00</time>
      </trkpt>
      <trkpt lat="44.46856" lon="1.66488">
        <ele>138</ele>
        <time>2021-10-08T17:46:33+02:00</time>
      </trkpt>
      <trkpt lat="44.46872" lon="1.66458">
        <ele>137</ele>
        <time>2021-10-08T17:46:33+02:00</time>
      </trkpt>
      <trkpt lat="44.46897" lon="1.66438">
        <ele>138</ele>
        <time>2021-10-08T17:46:33+02:00</time>
      </trkpt>
      <trkpt lat="44.46912" lon="1.66411">
        <ele>137</ele>
        <time>2021-10-08T17:46:33+02:00</time>
      </trkpt>
      <trkpt lat="44.46934" lon="1.66386">
        <ele>136</ele>
        <time>2021-10-08T17:46:33+02:00</time>
      </trkpt>
      <trkpt lat="44.46949" lon="1.66362">
        <ele>136</ele>
        <time>2021-10-08T17:46:33+02:00</time>
      </trkpt>
      <trkpt lat="44.46963" lon="1.66338">
        <ele>136</ele>
        <time>2021-10-08T17:46:33+02:00</time>
      </trkpt>
      <trkpt lat="44.46978" lon="1.66308">
        <ele>136</ele>
        <time>2021-10-08T17:46:33+02:00</time>
      </trkpt>
      <trkpt lat="44.46992" lon="1.66279">
        <ele>137</ele>
        <time>2021-10-08T17:46:33+02:00</time>
      </trkpt>
      <trkpt lat="44.47008" lon="1.66253">
        <ele>137</ele>
        <time>2021-10-08T17:46:33+02:00</time>
      </trkpt>
      <trkpt lat="44.47024" lon="1.6623">
        <ele>137</ele>
        <time>2021-10-08T17:46:33+02:00</time>
      </trkpt>
      <trkpt lat="44.4704" lon="1.66207">
        <ele>138</ele>
        <time>2021-10-08T17:46:33+02:00</time>
      </trkpt>
      <trkpt lat="44.4705" lon="1.66173">
        <ele>137</ele>
        <time>2021-10-08T17:46:33+02:00</time>
      </trkpt>
      <trkpt lat="44.47066" lon="1.66147">
        <ele>137</ele>
        <time>2021-10-08T17:46:33+02:00</time>
      </trkpt>
      <trkpt lat="44.47085" lon="1.6613">
        <ele>136</ele>
        <time>2021-10-08T17:46:33+02:00</time>
      </trkpt>
      <trkpt lat="44.47107" lon="1.6611">
        <ele>136</ele>
        <time>2021-10-08T17:46:33+02:00</time>
      </trkpt>
      <trkpt lat="44.4712" lon="1.6608">
        <ele>136</ele>
        <time>2021-10-08T17:46:33+02:00</time>
      </trkpt>
      <trkpt lat="44.47135" lon="1.66051">
        <ele>137</ele>
        <time>2021-10-08T17:46:33+02:00</time>
      </trkpt>
      <trkpt lat="44.47139" lon="1.66012">
        <ele>138</ele>
        <time>2021-10-08T17:46:33+02:00</time>
      </trkpt>
      <trkpt lat="44.47142" lon="1.65977">
        <ele>136</ele>
        <time>2021-10-08T17:46:33+02:00</time>
      </trkpt>
      <trkpt lat="44.47148" lon="1.65944">
        <ele>137</ele>
        <time>2021-10-08T17:46:33+02:00</time>
      </trkpt>
      <trkpt lat="44.47155" lon="1.65912">
        <ele>137</ele>
        <time>2021-10-08T17:46:33+02:00</time>
      </trkpt>
      <trkpt lat="44.47163" lon="1.65883">
        <ele>136</ele>
        <time>2021-10-08T17:46:33+02:00</time>
      </trkpt>
      <trkpt lat="44.47167" lon="1.65847">
        <ele>136</ele>
        <time>2021-10-08T17:46:33+02:00</time>
      </trkpt>
      <trkpt lat="44.4717" lon="1.6581">
        <ele>136</ele>
        <time>2021-10-08T17:46:33+02:00</time>
      </trkpt>
      <trkpt lat="44.47174" lon="1.65774">
        <ele>135</ele>
        <time>2021-10-08T17:46:33+02:00</time>
      </trkpt>
      <trkpt lat="44.47177" lon="1.6574">
        <ele>135</ele>
        <time>2021-10-08T17:46:33+02:00</time>
      </trkpt>
      <trkpt lat="44.4718" lon="1.65707">
        <ele>135</ele>
        <time>2021-10-08T17:46:33+02:00</time>
      </trkpt>
      <trkpt lat="44.47175" lon="1.65673">
        <ele>138</ele>
        <time>2021-10-08T17:46:33+02:00</time>
      </trkpt>
      <trkpt lat="44.47169" lon="1.65639">
        <ele>138</ele>
        <time>2021-10-08T17:46:33+02:00</time>
      </trkpt>
      <trkpt lat="44.47162" lon="1.65609">
        <ele>137</ele>
        <time>2021-10-08T17:46:33+02:00</time>
      </trkpt>
      <trkpt lat="44.47157" lon="1.65575">
        <ele>136</ele>
        <time>2021-10-08T17:46:33+02:00</time>
      </trkpt>
      <trkpt lat="44.4716" lon="1.65543">
        <ele>137</ele>
        <time>2021-10-08T17:46:33+02:00</time>
      </trkpt>
      <trkpt lat="44.47164" lon="1.65504">
        <ele>135</ele>
        <time>2021-10-08T17:46:33+02:00</time>
      </trkpt>
      <trkpt lat="44.47169" lon="1.65468">
        <ele>136</ele>
        <time>2021-10-08T17:46:33+02:00</time>
      </trkpt>
      <trkpt lat="44.47169" lon="1.65435">
        <ele>137</ele>
        <time>2021-10-08T17:46:33+02:00</time>
      </trkpt>
      <trkpt lat="44.47172" lon="1.654">
        <ele>137</ele>
        <time>2021-10-08T17:46:33+02:00</time>
      </trkpt>
      <trkpt lat="44.47178" lon="1.65366">
        <ele>136</ele>
        <time>2021-10-08T17:46:33+02:00</time>
      </trkpt>
      <trkpt lat="44.47181" lon="1.65329">
        <ele>135</ele>
        <time>2021-10-08T17:46:33+02:00</time>
      </trkpt>
      <trkpt lat="44.47177" lon="1.6529">
        <ele>132</ele>
        <time>2021-10-08T17:46:33+02:00</time>
      </trkpt>
      <trkpt lat="44.47178" lon="1.65256">
        <ele>131</ele>
        <time>2021-10-08T17:46:33+02:00</time>
      </trkpt>
      <trkpt lat="44.47182" lon="1.65219">
        <ele>132</ele>
        <time>2021-10-08T17:46:33+02:00</time>
      </trkpt>
      <trkpt lat="44.47186" lon="1.65188">
        <ele>133</ele>
        <time>2021-10-08T17:46:33+02:00</time>
      </trkpt>
      <trkpt lat="44.47192" lon="1.65154">
        <ele>135</ele>
        <time>2021-10-08T17:46:33+02:00</time>
      </trkpt>
      <trkpt lat="44.47199" lon="1.65122">
        <ele>137</ele>
        <time>2021-10-08T17:46:33+02:00</time>
      </trkpt>
      <trkpt lat="44.47208" lon="1.65092">
        <ele>138</ele>
        <time>2021-10-08T17:46:33+02:00</time>
      </trkpt>
      <trkpt lat="44.47221" lon="1.65059">
        <ele>140</ele>
        <time>2021-10-08T17:46:33+02:00</time>
      </trkpt>
      <trkpt lat="44.47234" lon="1.65028">
        <ele>139</ele>
        <time>2021-10-08T17:46:33+02:00</time>
      </trkpt>
      <trkpt lat="44.47247" lon="1.64997">
        <ele>139</ele>
        <time>2021-10-08T17:46:33+02:00</time>
      </trkpt>
      <trkpt lat="44.47257" lon="1.64967">
        <ele>140</ele>
        <time>2021-10-08T17:46:33+02:00</time>
      </trkpt>
      <trkpt lat="44.47272" lon="1.6494">
        <ele>139</ele>
        <time>2021-10-08T17:46:33+02:00</time>
      </trkpt>
      <trkpt lat="44.47289" lon="1.64911">
        <ele>138</ele>
        <time>2021-10-08T17:46:33+02:00</time>
      </trkpt>
      <trkpt lat="44.47305" lon="1.64886">
        <ele>137</ele>
        <time>2021-10-08T17:46:33+02:00</time>
      </trkpt>
      <trkpt lat="44.47327" lon="1.64867">
        <ele>135</ele>
        <time>2021-10-08T17:46:33+02:00</time>
      </trkpt>
      <trkpt lat="44.47345" lon="1.64841">
        <ele>132</ele>
        <time>2021-10-08T17:46:33+02:00</time>
      </trkpt>
      <trkpt lat="44.47361" lon="1.64814">
        <ele>132</ele>
        <time>2021-10-08T17:46:33+02:00</time>
      </trkpt>
      <trkpt lat="44.47375" lon="1.64786">
        <ele>137</ele>
        <time>2021-10-08T17:46:33+02:00</time>
      </trkpt>
      <trkpt lat="44.47398" lon="1.64787">
        <ele>140</ele>
        <time>2021-10-08T17:46:33+02:00</time>
      </trkpt>
      <trkpt lat="44.47413" lon="1.6476">
        <ele>140</ele>
        <time>2021-10-08T17:46:33+02:00</time>
      </trkpt>
      <trkpt lat="44.47428" lon="1.64733">
        <ele>141</ele>
        <time>2021-10-08T17:46:33+02:00</time>
      </trkpt>
      <trkpt lat="44.47444" lon="1.64708">
        <ele>143</ele>
        <time>2021-10-08T17:46:33+02:00</time>
      </trkpt>
      <trkpt lat="44.47461" lon="1.64687">
        <ele>143</ele>
        <time>2021-10-08T17:46:33+02:00</time>
      </trkpt>
      <trkpt lat="44.47482" lon="1.6467">
        <ele>144</ele>
        <time>2021-10-08T17:46:33+02:00</time>
      </trkpt>
      <trkpt lat="44.47503" lon="1.64654">
        <ele>142</ele>
        <time>2021-10-08T17:46:33+02:00</time>
      </trkpt>
      <trkpt lat="44.47524" lon="1.64644">
        <ele>141</ele>
        <time>2021-10-08T17:46:33+02:00</time>
      </trkpt>
      <trkpt lat="44.47542" lon="1.64625">
        <ele>131</ele>
        <time>2021-10-08T17:46:33+02:00</time>
      </trkpt>
      <trkpt lat="44.47563" lon="1.64612">
        <ele>139</ele>
        <time>2021-10-08T17:46:33+02:00</time>
      </trkpt>
      <trkpt lat="44.47583" lon="1.64598">
        <ele>141</ele>
        <time>2021-10-08T17:46:33+02:00</time>
      </trkpt>
      <trkpt lat="44.47606" lon="1.64589">
        <ele>142</ele>
        <time>2021-10-08T17:46:33+02:00</time>
      </trkpt>
      <trkpt lat="44.47629" lon="1.64588">
        <ele>139</ele>
        <time>2021-10-08T17:46:33+02:00</time>
      </trkpt>
      <trkpt lat="44.47652" lon="1.64587">
        <ele>135</ele>
        <time>2021-10-08T17:46:33+02:00</time>
      </trkpt>
      <trkpt lat="44.47671" lon="1.64568">
        <ele>136</ele>
        <time>2021-10-08T17:46:33+02:00</time>
      </trkpt>
      <trkpt lat="44.47694" lon="1.64566">
        <ele>141</ele>
        <time>2021-10-08T17:46:33+02:00</time>
      </trkpt>
      <trkpt lat="44.47711" lon="1.64546">
        <ele>140</ele>
        <time>2021-10-08T17:46:33+02:00</time>
      </trkpt>
      <trkpt lat="44.47733" lon="1.64557">
        <ele>140</ele>
        <time>2021-10-08T17:46:33+02:00</time>
      </trkpt>
      <trkpt lat="44.47755" lon="1.64546">
        <ele>140</ele>
        <time>2021-10-08T17:46:33+02:00</time>
      </trkpt>
      <trkpt lat="44.47778" lon="1.64547">
        <ele>140</ele>
        <time>2021-10-08T17:46:33+02:00</time>
      </trkpt>
      <trkpt lat="44.47803" lon="1.64552">
        <ele>141</ele>
        <time>2021-10-08T17:46:33+02:00</time>
      </trkpt>
      <trkpt lat="44.47827" lon="1.64556">
        <ele>143</ele>
        <time>2021-10-08T17:46:33+02:00</time>
      </trkpt>
      <trkpt lat="44.47849" lon="1.6456">
        <ele>144</ele>
        <time>2021-10-08T17:46:33+02:00</time>
      </trkpt>
      <trkpt lat="44.47871" lon="1.64572">
        <ele>144</ele>
        <time>2021-10-08T17:46:33+02:00</time>
      </trkpt>
      <trkpt lat="44.47894" lon="1.64563">
        <ele>144</ele>
        <time>2021-10-08T17:46:33+02:00</time>
      </trkpt>
      <trkpt lat="44.47917" lon="1.64569">
        <ele>146</ele>
        <time>2021-10-08T17:46:33+02:00</time>
      </trkpt>
      <trkpt lat="44.4794" lon="1.64575">
        <ele>146</ele>
        <time>2021-10-08T17:46:33+02:00</time>
      </trkpt>
      <trkpt lat="44.47966" lon="1.64575">
        <ele>148</ele>
        <time>2021-10-08T17:46:33+02:00</time>
      </trkpt>
      <trkpt lat="44.47988" lon="1.64584">
        <ele>148</ele>
        <time>2021-10-08T17:46:33+02:00</time>
      </trkpt>
      <trkpt lat="44.4801" lon="1.64577">
        <ele>145</ele>
        <time>2021-10-08T17:46:33+02:00</time>
      </trkpt>
      <trkpt lat="44.48033" lon="1.64576">
        <ele>145</ele>
        <time>2021-10-08T17:46:33+02:00</time>
      </trkpt>
      <trkpt lat="44.48056" lon="1.6458">
        <ele>147</ele>
        <time>2021-10-08T17:46:33+02:00</time>
      </trkpt>
      <trkpt lat="44.4808" lon="1.64581">
        <ele>144</ele>
        <time>2021-10-08T17:46:33+02:00</time>
      </trkpt>
      <trkpt lat="44.48103" lon="1.64583">
        <ele>142</ele>
        <time>2021-10-08T17:46:33+02:00</time>
      </trkpt>
      <trkpt lat="44.48128" lon="1.64575">
        <ele>141</ele>
        <time>2021-10-08T17:46:33+02:00</time>
      </trkpt>
      <trkpt lat="44.48153" lon="1.64572">
        <ele>138</ele>
        <time>2021-10-08T17:46:33+02:00</time>
      </trkpt>
      <trkpt lat="44.48176" lon="1.64567">
        <ele>133</ele>
        <time>2021-10-08T17:46:33+02:00</time>
      </trkpt>
      <trkpt lat="44.48199" lon="1.64567">
        <ele>132</ele>
        <time>2021-10-08T17:46:33+02:00</time>
      </trkpt>
      <trkpt lat="44.48222" lon="1.64561">
        <ele>132</ele>
        <time>2021-10-08T17:46:33+02:00</time>
      </trkpt>
      <trkpt lat="44.48244" lon="1.6455">
        <ele>131</ele>
        <time>2021-10-08T17:46:33+02:00</time>
      </trkpt>
      <trkpt lat="44.48269" lon="1.6455">
        <ele>132</ele>
        <time>2021-10-08T17:46:33+02:00</time>
      </trkpt>
      <trkpt lat="44.48292" lon="1.64539">
        <ele>131</ele>
        <time>2021-10-08T17:46:33+02:00</time>
      </trkpt>
      <trkpt lat="44.48316" lon="1.64535">
        <ele>131</ele>
        <time>2021-10-08T17:46:33+02:00</time>
      </trkpt>
      <trkpt lat="44.48339" lon="1.64533">
        <ele>128</ele>
        <time>2021-10-08T17:46:33+02:00</time>
      </trkpt>
      <trkpt lat="44.48363" lon="1.64517">
        <ele>129</ele>
        <time>2021-10-08T17:46:33+02:00</time>
      </trkpt>
      <trkpt lat="44.48384" lon="1.64498">
        <ele>130</ele>
        <time>2021-10-08T17:46:33+02:00</time>
      </trkpt>
      <trkpt lat="44.48404" lon="1.64477">
        <ele>129</ele>
        <time>2021-10-08T17:46:33+02:00</time>
      </trkpt>
      <trkpt lat="44.48409" lon="1.64445">
        <ele>130</ele>
        <time>2021-10-08T17:46:33+02:00</time>
      </trkpt>
      <trkpt lat="44.48394" lon="1.64419">
        <ele>132</ele>
        <time>2021-10-08T17:46:33+02:00</time>
      </trkpt>
      <trkpt lat="44.48385" lon="1.64389">
        <ele>134</ele>
        <time>2021-10-08T17:46:33+02:00</time>
      </trkpt>
      <trkpt lat="44.48402" lon="1.64363">
        <ele>133</ele>
        <time>2021-10-08T17:46:33+02:00</time>
      </trkpt>
      <trkpt lat="44.48418" lon="1.64341">
        <ele>133</ele>
        <time>2021-10-08T17:46:33+02:00</time>
      </trkpt>
      <trkpt lat="44.48435" lon="1.64317">
        <ele>134</ele>
        <time>2021-10-08T17:46:33+02:00</time>
      </trkpt>
      <trkpt lat="44.4845" lon="1.64292">
        <ele>136</ele>
        <time>2021-10-08T17:46:33+02:00</time>
      </trkpt>
      <trkpt lat="44.48462" lon="1.64265">
        <ele>136</ele>
        <time>2021-10-08T17:46:33+02:00</time>
      </trkpt>
      <trkpt lat="44.48476" lon="1.6424">
        <ele>136</ele>
        <time>2021-10-08T17:46:33+02:00</time>
      </trkpt>
      <trkpt lat="44.48492" lon="1.64215">
        <ele>136</ele>
        <time>2021-10-08T17:46:33+02:00</time>
      </trkpt>
      <trkpt lat="44.48515" lon="1.64232">
        <ele>136</ele>
        <time>2021-10-08T17:46:33+02:00</time>
      </trkpt>
      <trkpt lat="44.48535" lon="1.64251">
        <ele>134</ele>
        <time>2021-10-08T17:46:33+02:00</time>
      </trkpt>
      <trkpt lat="44.48556" lon="1.64269">
        <ele>136</ele>
        <time>2021-10-08T17:46:33+02:00</time>
      </trkpt>
      <trkpt lat="44.48577" lon="1.64291">
        <ele>135</ele>
        <time>2021-10-08T17:46:33+02:00</time>
      </trkpt>
      <trkpt lat="44.48598" lon="1.64313">
        <ele>133</ele>
        <time>2021-10-08T17:46:33+02:00</time>
      </trkpt>
      <trkpt lat="44.48613" lon="1.64339">
        <ele>133</ele>
        <time>2021-10-08T17:46:33+02:00</time>
      </trkpt>
      <trkpt lat="44.486" lon="1.64373">
        <ele>135</ele>
        <time>2021-10-08T17:46:33+02:00</time>
      </trkpt>
      <trkpt lat="44.48591" lon="1.64401">
        <ele>135</ele>
        <time>2021-10-08T17:46:33+02:00</time>
      </trkpt>
      <trkpt lat="44.48579" lon="1.64431">
        <ele>136</ele>
        <time>2021-10-08T17:46:33+02:00</time>
      </trkpt>
      <trkpt lat="44.48566" lon="1.6446">
        <ele>138</ele>
        <time>2021-10-08T17:46:33+02:00</time>
      </trkpt>
      <trkpt lat="44.48551" lon="1.64492">
        <ele>138</ele>
        <time>2021-10-08T17:46:33+02:00</time>
      </trkpt>
      <trkpt lat="44.48539" lon="1.64526">
        <ele>140</ele>
        <time>2021-10-08T17:46:33+02:00</time>
      </trkpt>
      <trkpt lat="44.48526" lon="1.64553">
        <ele>140</ele>
        <time>2021-10-08T17:46:33+02:00</time>
      </trkpt>
      <trkpt lat="44.48506" lon="1.6458">
        <ele>142</ele>
        <time>2021-10-08T17:46:33+02:00</time>
      </trkpt>
      <trkpt lat="44.48487" lon="1.64607">
        <ele>141</ele>
        <time>2021-10-08T17:46:33+02:00</time>
      </trkpt>
      <trkpt lat="44.48465" lon="1.64627">
        <ele>140</ele>
        <time>2021-10-08T17:46:33+02:00</time>
      </trkpt>
      <trkpt lat="44.48442" lon="1.64646">
        <ele>140</ele>
        <time>2021-10-08T17:46:33+02:00</time>
      </trkpt>
      <trkpt lat="44.4842" lon="1.64664">
        <ele>140</ele>
        <time>2021-10-08T17:46:33+02:00</time>
      </trkpt>
      <trkpt lat="44.48398" lon="1.64683">
        <ele>141</ele>
        <time>2021-10-08T17:46:33+02:00</time>
      </trkpt>
      <trkpt lat="44.48379" lon="1.64703">
        <ele>142</ele>
        <time>2021-10-08T17:46:33+02:00</time>
      </trkpt>
      <trkpt lat="44.48355" lon="1.64722">
        <ele>144</ele>
        <time>2021-10-08T17:46:33+02:00</time>
      </trkpt>
      <trkpt lat="44.48334" lon="1.64735">
        <ele>143</ele>
        <time>2021-10-08T17:46:33+02:00</time>
      </trkpt>
      <trkpt lat="44.48308" lon="1.64751">
        <ele>143</ele>
        <time>2021-10-08T17:46:33+02:00</time>
      </trkpt>
      <trkpt lat="44.48283" lon="1.64764">
        <ele>141</ele>
        <time>2021-10-08T17:46:33+02:00</time>
      </trkpt>
      <trkpt lat="44.48256" lon="1.64775">
        <ele>142</ele>
        <time>2021-10-08T17:46:33+02:00</time>
      </trkpt>
      <trkpt lat="44.48234" lon="1.64786">
        <ele>140</ele>
        <time>2021-10-08T17:46:33+02:00</time>
      </trkpt>
      <trkpt lat="44.48209" lon="1.64799">
        <ele>140</ele>
        <time>2021-10-08T17:46:33+02:00</time>
      </trkpt>
      <trkpt lat="44.48185" lon="1.64808">
        <ele>138</ele>
        <time>2021-10-08T17:46:33+02:00</time>
      </trkpt>
      <trkpt lat="44.48162" lon="1.64818">
        <ele>138</ele>
        <time>2021-10-08T17:46:33+02:00</time>
      </trkpt>
      <trkpt lat="44.48138" lon="1.64827">
        <ele>136</ele>
        <time>2021-10-08T17:46:33+02:00</time>
      </trkpt>
      <trkpt lat="44.48115" lon="1.64836">
        <ele>135</ele>
        <time>2021-10-08T17:46:33+02:00</time>
      </trkpt>
      <trkpt lat="44.48089" lon="1.64849">
        <ele>134</ele>
        <time>2021-10-08T17:46:33+02:00</time>
      </trkpt>
      <trkpt lat="44.48068" lon="1.6486">
        <ele>133</ele>
        <time>2021-10-08T17:46:33+02:00</time>
      </trkpt>
      <trkpt lat="44.48046" lon="1.64868">
        <ele>132</ele>
        <time>2021-10-08T17:46:33+02:00</time>
      </trkpt>
      <trkpt lat="44.48024" lon="1.64878">
        <ele>133</ele>
        <time>2021-10-08T17:46:33+02:00</time>
      </trkpt>
      <trkpt lat="44.47999" lon="1.64889">
        <ele>133</ele>
        <time>2021-10-08T17:46:33+02:00</time>
      </trkpt>
      <trkpt lat="44.47973" lon="1.649">
        <ele>132</ele>
        <time>2021-10-08T17:46:33+02:00</time>
      </trkpt>
      <trkpt lat="44.47948" lon="1.64914">
        <ele>132</ele>
        <time>2021-10-08T17:46:33+02:00</time>
      </trkpt>
      <trkpt lat="44.47924" lon="1.6493">
        <ele>132</ele>
        <time>2021-10-08T17:46:33+02:00</time>
      </trkpt>
      <trkpt lat="44.47902" lon="1.6495">
        <ele>132</ele>
        <time>2021-10-08T17:46:33+02:00</time>
      </trkpt>
      <trkpt lat="44.47881" lon="1.64972">
        <ele>132</ele>
        <time>2021-10-08T17:46:33+02:00</time>
      </trkpt>
      <trkpt lat="44.47862" lon="1.64996">
        <ele>132</ele>
        <time>2021-10-08T17:46:33+02:00</time>
      </trkpt>
      <trkpt lat="44.47841" lon="1.6502">
        <ele>133</ele>
        <time>2021-10-08T17:46:33+02:00</time>
      </trkpt>
      <trkpt lat="44.47821" lon="1.65042">
        <ele>133</ele>
        <time>2021-10-08T17:46:33+02:00</time>
      </trkpt>
      <trkpt lat="44.47801" lon="1.65067">
        <ele>134</ele>
        <time>2021-10-08T17:46:33+02:00</time>
      </trkpt>
      <trkpt lat="44.4778" lon="1.6509">
        <ele>134</ele>
        <time>2021-10-08T17:46:33+02:00</time>
      </trkpt>
      <trkpt lat="44.47759" lon="1.65114">
        <ele>133</ele>
        <time>2021-10-08T17:46:33+02:00</time>
      </trkpt>
      <trkpt lat="44.47739" lon="1.65137">
        <ele>132</ele>
        <time>2021-10-08T17:46:33+02:00</time>
      </trkpt>
      <trkpt lat="44.47719" lon="1.65159">
        <ele>132</ele>
        <time>2021-10-08T17:46:33+02:00</time>
      </trkpt>
      <trkpt lat="44.47698" lon="1.65183">
        <ele>133</ele>
        <time>2021-10-08T17:46:33+02:00</time>
      </trkpt>
      <trkpt lat="44.47677" lon="1.65206">
        <ele>133</ele>
        <time>2021-10-08T17:46:33+02:00</time>
      </trkpt>
      <trkpt lat="44.47653" lon="1.65221">
        <ele>133</ele>
        <time>2021-10-08T17:46:33+02:00</time>
      </trkpt>
      <trkpt lat="44.47632" lon="1.65234">
        <ele>132</ele>
        <time>2021-10-08T17:46:33+02:00</time>
      </trkpt>
      <trkpt lat="44.47609" lon="1.65255">
        <ele>130</ele>
        <time>2021-10-08T17:46:33+02:00</time>
      </trkpt>
      <trkpt lat="44.4759" lon="1.65276">
        <ele>130</ele>
        <time>2021-10-08T17:46:33+02:00</time>
      </trkpt>
      <trkpt lat="44.4757" lon="1.65297">
        <ele>129</ele>
        <time>2021-10-08T17:46:33+02:00</time>
      </trkpt>
      <trkpt lat="44.47549" lon="1.6532">
        <ele>130</ele>
        <time>2021-10-08T17:46:33+02:00</time>
      </trkpt>
      <trkpt lat="44.47535" lon="1.65353">
        <ele>130</ele>
        <time>2021-10-08T17:46:33+02:00</time>
      </trkpt>
      <trkpt lat="44.47523" lon="1.65382">
        <ele>132</ele>
        <time>2021-10-08T17:46:33+02:00</time>
      </trkpt>
      <trkpt lat="44.47428" lon="1.65592">
        <ele>131</ele>
        <time>2021-10-08T17:46:33+02:00</time>
      </trkpt>
      <trkpt lat="44.47409" lon="1.65613">
        <ele>135</ele>
        <time>2021-10-08T17:46:33+02:00</time>
      </trkpt>
      <trkpt lat="44.47401" lon="1.65645">
        <ele>136</ele>
        <time>2021-10-08T17:46:33+02:00</time>
      </trkpt>
      <trkpt lat="44.47395" lon="1.65679">
        <ele>137</ele>
        <time>2021-10-08T17:46:33+02:00</time>
      </trkpt>
      <trkpt lat="44.47391" lon="1.65712">
        <ele>139</ele>
        <time>2021-10-08T17:46:33+02:00</time>
      </trkpt>
      <trkpt lat="44.47383" lon="1.65741">
        <ele>139</ele>
        <time>2021-10-08T17:46:33+02:00</time>
      </trkpt>
      <trkpt lat="44.47378" lon="1.65773">
        <ele>142</ele>
        <time>2021-10-08T17:46:33+02:00</time>
      </trkpt>
      <trkpt lat="44.47381" lon="1.65807">
        <ele>144</ele>
        <time>2021-10-08T17:46:33+02:00</time>
      </trkpt>
      <trkpt lat="44.4738" lon="1.65845">
        <ele>146</ele>
        <time>2021-10-08T17:46:33+02:00</time>
      </trkpt>
      <trkpt lat="44.47382" lon="1.65877">
        <ele>150</ele>
        <time>2021-10-08T17:46:33+02:00</time>
      </trkpt>
      <trkpt lat="44.47374" lon="1.65912">
        <ele>152</ele>
        <time>2021-10-08T17:46:33+02:00</time>
      </trkpt>
      <trkpt lat="44.47359" lon="1.65942">
        <ele>153</ele>
        <time>2021-10-08T17:46:33+02:00</time>
      </trkpt>
      <trkpt lat="44.47348" lon="1.65972">
        <ele>154</ele>
        <time>2021-10-08T17:46:33+02:00</time>
      </trkpt>
      <trkpt lat="44.4734" lon="1.66005">
        <ele>153</ele>
        <time>2021-10-08T17:46:33+02:00</time>
      </trkpt>
      <trkpt lat="44.47334" lon="1.66037">
        <ele>154</ele>
        <time>2021-10-08T17:46:33+02:00</time>
      </trkpt>
      <trkpt lat="44.47341" lon="1.66077">
        <ele>154</ele>
        <time>2021-10-08T17:46:33+02:00</time>
      </trkpt>
      <trkpt lat="44.47337" lon="1.66117">
        <ele>153</ele>
        <time>2021-10-08T17:46:33+02:00</time>
      </trkpt>
      <trkpt lat="44.47331" lon="1.66147">
        <ele>150</ele>
        <time>2021-10-08T17:46:33+02:00</time>
      </trkpt>
      <trkpt lat="44.47324" lon="1.66181">
        <ele>145</ele>
        <time>2021-10-08T17:46:33+02:00</time>
      </trkpt>
      <trkpt lat="44.4732" lon="1.66213">
        <ele>143</ele>
        <time>2021-10-08T17:46:33+02:00</time>
      </trkpt>
      <trkpt lat="44.47314" lon="1.66244">
        <ele>141</ele>
        <time>2021-10-08T17:46:33+02:00</time>
      </trkpt>
      <trkpt lat="44.47307" lon="1.66277">
        <ele>138</ele>
        <time>2021-10-08T17:46:33+02:00</time>
      </trkpt>
      <trkpt lat="44.473" lon="1.66309">
        <ele>136</ele>
        <time>2021-10-08T17:46:33+02:00</time>
      </trkpt>
      <trkpt lat="44.47291" lon="1.66344">
        <ele>135</ele>
        <time>2021-10-08T17:46:33+02:00</time>
      </trkpt>
      <trkpt lat="44.4728" lon="1.66379">
        <ele>133</ele>
        <time>2021-10-08T17:46:33+02:00</time>
      </trkpt>
      <trkpt lat="44.4727" lon="1.66408">
        <ele>131</ele>
        <time>2021-10-08T17:46:33+02:00</time>
      </trkpt>
      <trkpt lat="44.47257" lon="1.66438">
        <ele>131</ele>
        <time>2021-10-08T17:46:33+02:00</time>
      </trkpt>
      <trkpt lat="44.47242" lon="1.66465">
        <ele>131</ele>
        <time>2021-10-08T17:46:33+02:00</time>
      </trkpt>
      <trkpt lat="44.47227" lon="1.6649">
        <ele>131</ele>
        <time>2021-10-08T17:46:33+02:00</time>
      </trkpt>
      <trkpt lat="44.47209" lon="1.66511">
        <ele>131</ele>
        <time>2021-10-08T17:46:33+02:00</time>
      </trkpt>
      <trkpt lat="44.4719" lon="1.6653">
        <ele>131</ele>
        <time>2021-10-08T17:46:33+02:00</time>
      </trkpt>
      <trkpt lat="44.47169" lon="1.66547">
        <ele>133</ele>
        <time>2021-10-08T17:46:33+02:00</time>
      </trkpt>
      <trkpt lat="44.47148" lon="1.66561">
        <ele>132</ele>
        <time>2021-10-08T17:46:33+02:00</time>
      </trkpt>
      <trkpt lat="44.47127" lon="1.66575">
        <ele>132</ele>
        <time>2021-10-08T17:46:33+02:00</time>
      </trkpt>
      <trkpt lat="44.47106" lon="1.6659">
        <ele>132</ele>
        <time>2021-10-08T17:46:33+02:00</time>
      </trkpt>
      <trkpt lat="44.47084" lon="1.66607">
        <ele>131</ele>
        <time>2021-10-08T17:46:33+02:00</time>
      </trkpt>
      <trkpt lat="44.47063" lon="1.66623">
        <ele>131</ele>
        <time>2021-10-08T17:46:33+02:00</time>
      </trkpt>
      <trkpt lat="44.47041" lon="1.66637">
        <ele>130</ele>
        <time>2021-10-08T17:46:33+02:00</time>
      </trkpt>
      <trkpt lat="44.4702" lon="1.66652">
        <ele>131</ele>
        <time>2021-10-08T17:46:33+02:00</time>
      </trkpt>
      <trkpt lat="44.46997" lon="1.66666">
        <ele>131</ele>
        <time>2021-10-08T17:46:33+02:00</time>
      </trkpt>
      <trkpt lat="44.46975" lon="1.6668">
        <ele>132</ele>
        <time>2021-10-08T17:46:33+02:00</time>
      </trkpt>
      <trkpt lat="44.46954" lon="1.66694">
        <ele>132</ele>
        <time>2021-10-08T17:46:33+02:00</time>
      </trkpt>
      <trkpt lat="44.46934" lon="1.66708">
        <ele>133</ele>
        <time>2021-10-08T17:46:33+02:00</time>
      </trkpt>
      <trkpt lat="44.4691" lon="1.66726">
        <ele>132</ele>
        <time>2021-10-08T17:46:33+02:00</time>
      </trkpt>
      <trkpt lat="44.46889" lon="1.66745">
        <ele>132</ele>
        <time>2021-10-08T17:46:33+02:00</time>
      </trkpt>
      <trkpt lat="44.46868" lon="1.66765">
        <ele>133</ele>
        <time>2021-10-08T17:46:33+02:00</time>
      </trkpt>
      <trkpt lat="44.46847" lon="1.66778">
        <ele>134</ele>
        <time>2021-10-08T17:46:33+02:00</time>
      </trkpt>
      <trkpt lat="44.46833" lon="1.66809">
        <ele>134</ele>
        <time>2021-10-08T17:46:33+02:00</time>
      </trkpt>
      <trkpt lat="44.46818" lon="1.66836">
        <ele>135</ele>
        <time>2021-10-08T17:46:33+02:00</time>
      </trkpt>
      <trkpt lat="44.46804" lon="1.66863">
        <ele>135</ele>
        <time>2021-10-08T17:46:33+02:00</time>
      </trkpt>
      <trkpt lat="44.46792" lon="1.66894">
        <ele>134</ele>
        <time>2021-10-08T17:46:33+02:00</time>
      </trkpt>
      <trkpt lat="44.46783" lon="1.66927">
        <ele>134</ele>
        <time>2021-10-08T17:46:33+02:00</time>
      </trkpt>
      <trkpt lat="44.46775" lon="1.66962">
        <ele>134</ele>
        <time>2021-10-08T17:46:33+02:00</time>
      </trkpt>
      <trkpt lat="44.4677" lon="1.66998">
        <ele>133</ele>
        <time>2021-10-08T17:46:33+02:00</time>
      </trkpt>
      <trkpt lat="44.46768" lon="1.67035">
        <ele>134</ele>
        <time>2021-10-08T17:46:33+02:00</time>
      </trkpt>
      <trkpt lat="44.46769" lon="1.67071">
        <ele>134</ele>
        <time>2021-10-08T17:46:33+02:00</time>
      </trkpt>
      <trkpt lat="44.46775" lon="1.67104">
        <ele>135</ele>
        <time>2021-10-08T17:46:33+02:00</time>
      </trkpt>
      <trkpt lat="44.46782" lon="1.6714">
        <ele>135</ele>
        <time>2021-10-08T17:46:33+02:00</time>
      </trkpt>
      <trkpt lat="44.46788" lon="1.67176">
        <ele>135</ele>
        <time>2021-10-08T17:46:33+02:00</time>
      </trkpt>
      <trkpt lat="44.46795" lon="1.67211">
        <ele>135</ele>
        <time>2021-10-08T17:46:33+02:00</time>
      </trkpt>
      <trkpt lat="44.46803" lon="1.67248">
        <ele>134</ele>
        <time>2021-10-08T17:46:33+02:00</time>
      </trkpt>
      <trkpt lat="44.46812" lon="1.67283">
        <ele>135</ele>
        <time>2021-10-08T17:46:33+02:00</time>
      </trkpt>
      <trkpt lat="44.4682" lon="1.67313">
        <ele>134</ele>
        <time>2021-10-08T17:46:33+02:00</time>
      </trkpt>
      <trkpt lat="44.4683" lon="1.6735">
        <ele>134</ele>
        <time>2021-10-08T17:46:33+02:00</time>
      </trkpt>
      <trkpt lat="44.46839" lon="1.67385">
        <ele>133</ele>
        <time>2021-10-08T17:46:33+02:00</time>
      </trkpt>
      <trkpt lat="44.46854" lon="1.67416">
        <ele>134</ele>
        <time>2021-10-08T17:46:33+02:00</time>
      </trkpt>
      <trkpt lat="44.46872" lon="1.67443">
        <ele>135</ele>
        <time>2021-10-08T17:46:33+02:00</time>
      </trkpt>
      <trkpt lat="44.46897" lon="1.67454">
        <ele>136</ele>
        <time>2021-10-08T17:46:33+02:00</time>
      </trkpt>
      <trkpt lat="44.4692" lon="1.6746">
        <ele>136</ele>
        <time>2021-10-08T17:46:33+02:00</time>
      </trkpt>
      <trkpt lat="44.46943" lon="1.67476">
        <ele>137</ele>
        <time>2021-10-08T17:46:33+02:00</time>
      </trkpt>
      <trkpt lat="44.46969" lon="1.67488">
        <ele>138</ele>
        <time>2021-10-08T17:46:33+02:00</time>
      </trkpt>
      <trkpt lat="44.4699" lon="1.67512">
        <ele>139</ele>
        <time>2021-10-08T17:46:33+02:00</time>
      </trkpt>
      <trkpt lat="44.47008" lon="1.67537">
        <ele>138</ele>
        <time>2021-10-08T17:46:33+02:00</time>
      </trkpt>
      <trkpt lat="44.47027" lon="1.67563">
        <ele>138</ele>
        <time>2021-10-08T17:46:33+02:00</time>
      </trkpt>
      <trkpt lat="44.4705" lon="1.67578">
        <ele>139</ele>
        <time>2021-10-08T17:46:33+02:00</time>
      </trkpt>
      <trkpt lat="44.47064" lon="1.67611">
        <ele>140</ele>
        <time>2021-10-08T17:46:33+02:00</time>
      </trkpt>
      <trkpt lat="44.47079" lon="1.67643">
        <ele>140</ele>
        <time>2021-10-08T17:46:33+02:00</time>
      </trkpt>
      <trkpt lat="44.47094" lon="1.67675">
        <ele>140</ele>
        <time>2021-10-08T17:46:33+02:00</time>
      </trkpt>
      <trkpt lat="44.47111" lon="1.67704">
        <ele>141</ele>
        <time>2021-10-08T17:46:33+02:00</time>
      </trkpt>
      <trkpt lat="44.47123" lon="1.67732">
        <ele>142</ele>
        <time>2021-10-08T17:46:33+02:00</time>
      </trkpt>
      <trkpt lat="44.4713" lon="1.67763">
        <ele>142</ele>
        <time>2021-10-08T17:46:33+02:00</time>
      </trkpt>
      <trkpt lat="44.47137" lon="1.678">
        <ele>144</ele>
        <time>2021-10-08T17:46:33+02:00</time>
      </trkpt>
      <trkpt lat="44.47144" lon="1.67836">
        <ele>143</ele>
        <time>2021-10-08T17:46:33+02:00</time>
      </trkpt>
      <trkpt lat="44.47154" lon="1.67864">
        <ele>141</ele>
        <time>2021-10-08T17:46:33+02:00</time>
      </trkpt>
      <trkpt lat="44.47164" lon="1.67893">
        <ele>141</ele>
        <time>2021-10-08T17:46:33+02:00</time>
      </trkpt>
      <trkpt lat="44.47175" lon="1.67922">
        <ele>141</ele>
        <time>2021-10-08T17:46:33+02:00</time>
      </trkpt>
      <trkpt lat="44.47187" lon="1.67952">
        <ele>141</ele>
        <time>2021-10-08T17:46:33+02:00</time>
      </trkpt>
      <trkpt lat="44.47194" lon="1.67983">
        <ele>141</ele>
        <time>2021-10-08T17:46:33+02:00</time>
      </trkpt>
      <trkpt lat="44.47202" lon="1.68014">
        <ele>141</ele>
        <time>2021-10-08T17:46:33+02:00</time>
      </trkpt>
      <trkpt lat="44.47206" lon="1.68045">
        <ele>140</ele>
        <time>2021-10-08T17:46:33+02:00</time>
      </trkpt>
      <trkpt lat="44.47211" lon="1.68078">
        <ele>139</ele>
        <time>2021-10-08T17:46:33+02:00</time>
      </trkpt>
      <trkpt lat="44.47214" lon="1.68112">
        <ele>138</ele>
        <time>2021-10-08T17:46:33+02:00</time>
      </trkpt>
      <trkpt lat="44.47215" lon="1.68143">
        <ele>137</ele>
        <time>2021-10-08T17:46:33+02:00</time>
      </trkpt>
      <trkpt lat="44.47218" lon="1.68175">
        <ele>138</ele>
        <time>2021-10-08T17:46:33+02:00</time>
      </trkpt>
      <trkpt lat="44.47219" lon="1.68209">
        <ele>137</ele>
        <time>2021-10-08T17:46:33+02:00</time>
      </trkpt>
      <trkpt lat="44.47223" lon="1.68243">
        <ele>138</ele>
        <time>2021-10-08T17:46:33+02:00</time>
      </trkpt>
      <trkpt lat="44.47225" lon="1.68277">
        <ele>137</ele>
        <time>2021-10-08T17:46:33+02:00</time>
      </trkpt>
      <trkpt lat="44.47227" lon="1.68311">
        <ele>138</ele>
        <time>2021-10-08T17:46:33+02:00</time>
      </trkpt>
      <trkpt lat="44.47229" lon="1.68344">
        <ele>138</ele>
        <time>2021-10-08T17:46:33+02:00</time>
      </trkpt>
      <trkpt lat="44.47228" lon="1.68378">
        <ele>137</ele>
        <time>2021-10-08T17:46:33+02:00</time>
      </trkpt>
      <trkpt lat="44.47222" lon="1.68411">
        <ele>136</ele>
        <time>2021-10-08T17:46:33+02:00</time>
      </trkpt>
      <trkpt lat="44.47212" lon="1.68441">
        <ele>136</ele>
        <time>2021-10-08T17:46:33+02:00</time>
      </trkpt>
      <trkpt lat="44.47198" lon="1.68467">
        <ele>135</ele>
        <time>2021-10-08T17:46:33+02:00</time>
      </trkpt>
      <trkpt lat="44.47183" lon="1.68493">
        <ele>135</ele>
        <time>2021-10-08T17:46:33+02:00</time>
      </trkpt>
      <trkpt lat="44.47168" lon="1.68516">
        <ele>136</ele>
        <time>2021-10-08T17:46:33+02:00</time>
      </trkpt>
      <trkpt lat="44.47151" lon="1.68546">
        <ele>135</ele>
        <time>2021-10-08T17:46:33+02:00</time>
      </trkpt>
      <trkpt lat="44.47137" lon="1.68571">
        <ele>134</ele>
        <time>2021-10-08T17:46:33+02:00</time>
      </trkpt>
      <trkpt lat="44.47119" lon="1.68601">
        <ele>134</ele>
        <time>2021-10-08T17:46:33+02:00</time>
      </trkpt>
      <trkpt lat="44.47104" lon="1.68624">
        <ele>134</ele>
        <time>2021-10-08T17:46:33+02:00</time>
      </trkpt>
      <trkpt lat="44.47085" lon="1.6865">
        <ele>134</ele>
        <time>2021-10-08T17:46:33+02:00</time>
      </trkpt>
      <trkpt lat="44.47062" lon="1.68658">
        <ele>134</ele>
        <time>2021-10-08T17:46:33+02:00</time>
      </trkpt>
      <trkpt lat="44.47059" lon="1.6869">
        <ele>134</ele>
        <time>2021-10-08T17:46:33+02:00</time>
      </trkpt>
      <trkpt lat="44.47043" lon="1.68718">
        <ele>134</ele>
        <time>2021-10-08T17:46:33+02:00</time>
      </trkpt>
      <trkpt lat="44.47025" lon="1.68746">
        <ele>134</ele>
        <time>2021-10-08T17:46:33+02:00</time>
      </trkpt>
      <trkpt lat="44.47007" lon="1.68775">
        <ele>135</ele>
        <time>2021-10-08T17:46:33+02:00</time>
      </trkpt>
      <trkpt lat="44.46992" lon="1.68798">
        <ele>134</ele>
        <time>2021-10-08T17:46:33+02:00</time>
      </trkpt>
      <trkpt lat="44.46974" lon="1.68829">
        <ele>134</ele>
        <time>2021-10-08T17:46:33+02:00</time>
      </trkpt>
      <trkpt lat="44.46958" lon="1.68852">
        <ele>134</ele>
        <time>2021-10-08T17:46:33+02:00</time>
      </trkpt>
      <trkpt lat="44.46944" lon="1.68876">
        <ele>135</ele>
        <time>2021-10-08T17:46:33+02:00</time>
      </trkpt>
      <trkpt lat="44.46929" lon="1.68901">
        <ele>135</ele>
        <time>2021-10-08T17:46:33+02:00</time>
      </trkpt>
      <trkpt lat="44.4691" lon="1.6893">
        <ele>134</ele>
        <time>2021-10-08T17:46:33+02:00</time>
      </trkpt>
      <trkpt lat="44.46894" lon="1.68952">
        <ele>134</ele>
        <time>2021-10-08T17:46:33+02:00</time>
      </trkpt>
      <trkpt lat="44.46875" lon="1.68979">
        <ele>135</ele>
        <time>2021-10-08T17:46:33+02:00</time>
      </trkpt>
      <trkpt lat="44.46854" lon="1.69003">
        <ele>135</ele>
        <time>2021-10-08T17:46:33+02:00</time>
      </trkpt>
      <trkpt lat="44.46833" lon="1.69018">
        <ele>135</ele>
        <time>2021-10-08T17:46:33+02:00</time>
      </trkpt>
      <trkpt lat="44.46808" lon="1.69034">
        <ele>135</ele>
        <time>2021-10-08T17:46:33+02:00</time>
      </trkpt>
      <trkpt lat="44.46784" lon="1.69052">
        <ele>135</ele>
        <time>2021-10-08T17:46:33+02:00</time>
      </trkpt>
      <trkpt lat="44.46759" lon="1.69066">
        <ele>134</ele>
        <time>2021-10-08T17:46:33+02:00</time>
      </trkpt>
      <trkpt lat="44.46736" lon="1.69085">
        <ele>135</ele>
        <time>2021-10-08T17:46:33+02:00</time>
      </trkpt>
      <trkpt lat="44.46714" lon="1.69106">
        <ele>137</ele>
        <time>2021-10-08T17:46:33+02:00</time>
      </trkpt>
      <trkpt lat="44.46687" lon="1.69118">
        <ele>136</ele>
        <time>2021-10-08T17:46:33+02:00</time>
      </trkpt>
      <trkpt lat="44.46665" lon="1.69113">
        <ele>137</ele>
        <time>2021-10-08T17:46:33+02:00</time>
      </trkpt>
      <trkpt lat="44.46643" lon="1.69122">
        <ele>136</ele>
        <time>2021-10-08T17:46:33+02:00</time>
      </trkpt>
      <trkpt lat="44.46621" lon="1.69146">
        <ele>135</ele>
        <time>2021-10-08T17:46:33+02:00</time>
      </trkpt>
      <trkpt lat="44.46602" lon="1.69166">
        <ele>136</ele>
        <time>2021-10-08T17:46:33+02:00</time>
      </trkpt>
      <trkpt lat="44.46582" lon="1.69182">
        <ele>135</ele>
        <time>2021-10-08T17:46:33+02:00</time>
      </trkpt>
      <trkpt lat="44.46557" lon="1.69199">
        <ele>135</ele>
        <time>2021-10-08T17:46:33+02:00</time>
      </trkpt>
      <trkpt lat="44.46536" lon="1.69212">
        <ele>136</ele>
        <time>2021-10-08T17:46:33+02:00</time>
      </trkpt>
      <trkpt lat="44.46515" lon="1.69225">
        <ele>136</ele>
        <time>2021-10-08T17:46:33+02:00</time>
      </trkpt>
      <trkpt lat="44.46492" lon="1.69243">
        <ele>135</ele>
        <time>2021-10-08T17:46:33+02:00</time>
      </trkpt>
      <trkpt lat="44.46469" lon="1.69266">
        <ele>136</ele>
        <time>2021-10-08T17:46:33+02:00</time>
      </trkpt>
      <trkpt lat="44.46449" lon="1.69291">
        <ele>136</ele>
        <time>2021-10-08T17:46:33+02:00</time>
      </trkpt>
      <trkpt lat="44.46429" lon="1.69317">
        <ele>136</ele>
        <time>2021-10-08T17:46:33+02:00</time>
      </trkpt>
      <trkpt lat="44.46413" lon="1.69342">
        <ele>136</ele>
        <time>2021-10-08T17:46:33+02:00</time>
      </trkpt>
      <trkpt lat="44.464" lon="1.69367">
        <ele>136</ele>
        <time>2021-10-08T17:46:33+02:00</time>
      </trkpt>
      <trkpt lat="44.46387" lon="1.69395">
        <ele>135</ele>
        <time>2021-10-08T17:46:33+02:00</time>
      </trkpt>
      <trkpt lat="44.46376" lon="1.69422">
        <ele>135</ele>
        <time>2021-10-08T17:46:33+02:00</time>
      </trkpt>
      <trkpt lat="44.46365" lon="1.69458">
        <ele>135</ele>
        <time>2021-10-08T17:46:33+02:00</time>
      </trkpt>
      <trkpt lat="44.46356" lon="1.69495">
        <ele>135</ele>
        <time>2021-10-08T17:46:33+02:00</time>
      </trkpt>
      <trkpt lat="44.46349" lon="1.69525">
        <ele>134</ele>
        <time>2021-10-08T17:46:33+02:00</time>
      </trkpt>
      <trkpt lat="44.46342" lon="1.69562">
        <ele>134</ele>
        <time>2021-10-08T17:46:33+02:00</time>
      </trkpt>
      <trkpt lat="44.46336" lon="1.69592">
        <ele>134</ele>
        <time>2021-10-08T17:46:33+02:00</time>
      </trkpt>
      <trkpt lat="44.46331" lon="1.69623">
        <ele>135</ele>
        <time>2021-10-08T17:46:33+02:00</time>
      </trkpt>
      <trkpt lat="44.46324" lon="1.69656">
        <ele>135</ele>
        <time>2021-10-08T17:46:33+02:00</time>
      </trkpt>
      <trkpt lat="44.46317" lon="1.69688">
        <ele>134</ele>
        <time>2021-10-08T17:46:33+02:00</time>
      </trkpt>
      <trkpt lat="44.46311" lon="1.69721">
        <ele>134</ele>
        <time>2021-10-08T17:46:33+02:00</time>
      </trkpt>
      <trkpt lat="44.46304" lon="1.69751">
        <ele>134</ele>
        <time>2021-10-08T17:46:33+02:00</time>
      </trkpt>
      <trkpt lat="44.46298" lon="1.69783">
        <ele>134</ele>
        <time>2021-10-08T17:46:33+02:00</time>
      </trkpt>
      <trkpt lat="44.46292" lon="1.69814">
        <ele>134</ele>
        <time>2021-10-08T17:46:33+02:00</time>
      </trkpt>
      <trkpt lat="44.46285" lon="1.69846">
        <ele>134</ele>
        <time>2021-10-08T17:46:33+02:00</time>
      </trkpt>
      <trkpt lat="44.46279" lon="1.69879">
        <ele>134</ele>
        <time>2021-10-08T17:46:33+02:00</time>
      </trkpt>
      <trkpt lat="44.46273" lon="1.69911">
        <ele>134</ele>
        <time>2021-10-08T17:46:33+02:00</time>
      </trkpt>
      <trkpt lat="44.46266" lon="1.69943">
        <ele>135</ele>
        <time>2021-10-08T17:46:33+02:00</time>
      </trkpt>
      <trkpt lat="44.46259" lon="1.69975">
        <ele>134</ele>
        <time>2021-10-08T17:46:33+02:00</time>
      </trkpt>
      <trkpt lat="44.46254" lon="1.70007">
        <ele>134</ele>
        <time>2021-10-08T17:46:33+02:00</time>
      </trkpt>
      <trkpt lat="44.46247" lon="1.70039">
        <ele>135</ele>
        <time>2021-10-08T17:46:33+02:00</time>
      </trkpt>
      <trkpt lat="44.46241" lon="1.7007">
        <ele>134</ele>
        <time>2021-10-08T17:46:33+02:00</time>
      </trkpt>
      <trkpt lat="44.46235" lon="1.70101">
        <ele>135</ele>
        <time>2021-10-08T17:46:33+02:00</time>
      </trkpt>
      <trkpt lat="44.46228" lon="1.70133">
        <ele>135</ele>
        <time>2021-10-08T17:46:33+02:00</time>
      </trkpt>
      <trkpt lat="44.46222" lon="1.70166">
        <ele>135</ele>
        <time>2021-10-08T17:46:33+02:00</time>
      </trkpt>
      <trkpt lat="44.46216" lon="1.702">
        <ele>138</ele>
        <time>2021-10-08T17:46:33+02:00</time>
      </trkpt>
      <trkpt lat="44.46212" lon="1.70233">
        <ele>138</ele>
        <time>2021-10-08T17:46:33+02:00</time>
      </trkpt>
      <trkpt lat="44.46208" lon="1.70265">
        <ele>138</ele>
        <time>2021-10-08T17:46:33+02:00</time>
      </trkpt>
      <trkpt lat="44.46207" lon="1.70298">
        <ele>139</ele>
        <time>2021-10-08T17:46:33+02:00</time>
      </trkpt>
      <trkpt lat="44.46209" lon="1.70333">
        <ele>138</ele>
        <time>2021-10-08T17:46:33+02:00</time>
      </trkpt>
      <trkpt lat="44.4621" lon="1.70368">
        <ele>138</ele>
        <time>2021-10-08T17:46:33+02:00</time>
      </trkpt>
      <trkpt lat="44.46213" lon="1.70402">
        <ele>139</ele>
        <time>2021-10-08T17:46:33+02:00</time>
      </trkpt>
      <trkpt lat="44.46219" lon="1.70434">
        <ele>138</ele>
        <time>2021-10-08T17:46:33+02:00</time>
      </trkpt>
      <trkpt lat="44.46226" lon="1.70471">
        <ele>138</ele>
        <time>2021-10-08T17:46:33+02:00</time>
      </trkpt>
      <trkpt lat="44.46235" lon="1.70501">
        <ele>138</ele>
        <time>2021-10-08T17:46:33+02:00</time>
      </trkpt>
      <trkpt lat="44.46245" lon="1.7053">
        <ele>139</ele>
        <time>2021-10-08T17:46:33+02:00</time>
      </trkpt>
      <trkpt lat="44.46256" lon="1.70559">
        <ele>139</ele>
        <time>2021-10-08T17:46:33+02:00</time>
      </trkpt>
      <trkpt lat="44.46266" lon="1.70589">
        <ele>139</ele>
        <time>2021-10-08T17:46:33+02:00</time>
      </trkpt>
      <trkpt lat="44.46277" lon="1.7062">
        <ele>139</ele>
        <time>2021-10-08T17:46:33+02:00</time>
      </trkpt>
      <trkpt lat="44.46287" lon="1.7065">
        <ele>138</ele>
        <time>2021-10-08T17:46:33+02:00</time>
      </trkpt>
      <trkpt lat="44.46298" lon="1.7068">
        <ele>138</ele>
        <time>2021-10-08T17:46:33+02:00</time>
      </trkpt>
      <trkpt lat="44.46309" lon="1.70709">
        <ele>138</ele>
        <time>2021-10-08T17:46:33+02:00</time>
      </trkpt>
      <trkpt lat="44.46321" lon="1.70738">
        <ele>138</ele>
        <time>2021-10-08T17:46:33+02:00</time>
      </trkpt>
      <trkpt lat="44.46334" lon="1.70765">
        <ele>138</ele>
        <time>2021-10-08T17:46:33+02:00</time>
      </trkpt>
      <trkpt lat="44.46346" lon="1.70792">
        <ele>139</ele>
        <time>2021-10-08T17:46:33+02:00</time>
      </trkpt>
      <trkpt lat="44.46358" lon="1.70819">
        <ele>139</ele>
        <time>2021-10-08T17:46:33+02:00</time>
      </trkpt>
      <trkpt lat="44.46372" lon="1.70847">
        <ele>140</ele>
        <time>2021-10-08T17:46:33+02:00</time>
      </trkpt>
      <trkpt lat="44.46383" lon="1.70875">
        <ele>140</ele>
        <time>2021-10-08T17:46:33+02:00</time>
      </trkpt>
      <trkpt lat="44.46396" lon="1.70902">
        <ele>141</ele>
        <time>2021-10-08T17:46:33+02:00</time>
      </trkpt>
      <trkpt lat="44.4641" lon="1.70934">
        <ele>142</ele>
        <time>2021-10-08T17:46:33+02:00</time>
      </trkpt>
      <trkpt lat="44.46423" lon="1.70966">
        <ele>140</ele>
        <time>2021-10-08T17:46:33+02:00</time>
      </trkpt>
      <trkpt lat="44.46437" lon="1.70999">
        <ele>139</ele>
        <time>2021-10-08T17:46:33+02:00</time>
      </trkpt>
      <trkpt lat="44.46448" lon="1.71027">
        <ele>139</ele>
        <time>2021-10-08T17:46:33+02:00</time>
      </trkpt>
      <trkpt lat="44.46461" lon="1.71057">
        <ele>138</ele>
        <time>2021-10-08T17:46:33+02:00</time>
      </trkpt>
      <trkpt lat="44.46473" lon="1.71084">
        <ele>138</ele>
        <time>2021-10-08T17:46:33+02:00</time>
      </trkpt>
      <trkpt lat="44.46485" lon="1.71113">
        <ele>138</ele>
        <time>2021-10-08T17:46:33+02:00</time>
      </trkpt>
      <trkpt lat="44.46498" lon="1.71143">
        <ele>138</ele>
        <time>2021-10-08T17:46:33+02:00</time>
      </trkpt>
      <trkpt lat="44.4651" lon="1.71172">
        <ele>139</ele>
        <time>2021-10-08T17:46:33+02:00</time>
      </trkpt>
      <trkpt lat="44.46523" lon="1.712">
        <ele>139</ele>
        <time>2021-10-08T17:46:33+02:00</time>
      </trkpt>
      <trkpt lat="44.46534" lon="1.71228">
        <ele>139</ele>
        <time>2021-10-08T17:46:33+02:00</time>
      </trkpt>
      <trkpt lat="44.46545" lon="1.71256">
        <ele>139</ele>
        <time>2021-10-08T17:46:33+02:00</time>
      </trkpt>
      <trkpt lat="44.46558" lon="1.71284">
        <ele>138</ele>
        <time>2021-10-08T17:46:33+02:00</time>
      </trkpt>
      <trkpt lat="44.46573" lon="1.71316">
        <ele>137</ele>
        <time>2021-10-08T17:46:33+02:00</time>
      </trkpt>
      <trkpt lat="44.46587" lon="1.7135">
        <ele>137</ele>
        <time>2021-10-08T17:46:33+02:00</time>
      </trkpt>
      <trkpt lat="44.46598" lon="1.71378">
        <ele>136</ele>
        <time>2021-10-08T17:46:33+02:00</time>
      </trkpt>
      <trkpt lat="44.4661" lon="1.71405">
        <ele>137</ele>
        <time>2021-10-08T17:46:33+02:00</time>
      </trkpt>
      <trkpt lat="44.46622" lon="1.71434">
        <ele>137</ele>
        <time>2021-10-08T17:46:33+02:00</time>
      </trkpt>
      <trkpt lat="44.46634" lon="1.71461">
        <ele>137</ele>
        <time>2021-10-08T17:46:33+02:00</time>
      </trkpt>
      <trkpt lat="44.46648" lon="1.71494">
        <ele>138</ele>
        <time>2021-10-08T17:46:33+02:00</time>
      </trkpt>
      <trkpt lat="44.46663" lon="1.71526">
        <ele>138</ele>
        <time>2021-10-08T17:46:33+02:00</time>
      </trkpt>
      <trkpt lat="44.46682" lon="1.71553">
        <ele>138</ele>
        <time>2021-10-08T17:46:33+02:00</time>
      </trkpt>
      <trkpt lat="44.46699" lon="1.71573">
        <ele>138</ele>
        <time>2021-10-08T17:46:33+02:00</time>
      </trkpt>
      <trkpt lat="44.46716" lon="1.71594">
        <ele>139</ele>
        <time>2021-10-08T17:46:33+02:00</time>
      </trkpt>
      <trkpt lat="44.46734" lon="1.71615">
        <ele>139</ele>
        <time>2021-10-08T17:46:33+02:00</time>
      </trkpt>
      <trkpt lat="44.46751" lon="1.71637">
        <ele>140</ele>
        <time>2021-10-08T17:46:33+02:00</time>
      </trkpt>
      <trkpt lat="44.46769" lon="1.71658">
        <ele>140</ele>
        <time>2021-10-08T17:46:33+02:00</time>
      </trkpt>
      <trkpt lat="44.4679" lon="1.71684">
        <ele>141</ele>
        <time>2021-10-08T17:46:33+02:00</time>
      </trkpt>
      <trkpt lat="44.4681" lon="1.71711">
        <ele>142</ele>
        <time>2021-10-08T17:46:33+02:00</time>
      </trkpt>
      <trkpt lat="44.46823" lon="1.71738">
        <ele>143</ele>
        <time>2021-10-08T17:46:33+02:00</time>
      </trkpt>
      <trkpt lat="44.46835" lon="1.71767">
        <ele>141</ele>
        <time>2021-10-08T17:46:33+02:00</time>
      </trkpt>
      <trkpt lat="44.46847" lon="1.71802">
        <ele>140</ele>
        <time>2021-10-08T17:46:33+02:00</time>
      </trkpt>
      <trkpt lat="44.46855" lon="1.71833">
        <ele>140</ele>
        <time>2021-10-08T17:46:33+02:00</time>
      </trkpt>
      <trkpt lat="44.4686" lon="1.71864">
        <ele>138</ele>
        <time>2021-10-08T17:46:33+02:00</time>
      </trkpt>
      <trkpt lat="44.46866" lon="1.71895">
        <ele>138</ele>
        <time>2021-10-08T17:46:33+02:00</time>
      </trkpt>
      <trkpt lat="44.4687" lon="1.71933">
        <ele>139</ele>
        <time>2021-10-08T17:46:33+02:00</time>
      </trkpt>
      <trkpt lat="44.46875" lon="1.71969">
        <ele>138</ele>
        <time>2021-10-08T17:46:33+02:00</time>
      </trkpt>
      <trkpt lat="44.46885" lon="1.72003">
        <ele>138</ele>
        <time>2021-10-08T17:46:33+02:00</time>
      </trkpt>
      <trkpt lat="44.46898" lon="1.72033">
        <ele>138</ele>
        <time>2021-10-08T17:46:33+02:00</time>
      </trkpt>
      <trkpt lat="44.46915" lon="1.72063">
        <ele>138</ele>
        <time>2021-10-08T17:46:33+02:00</time>
      </trkpt>
      <trkpt lat="44.46929" lon="1.72096">
        <ele>138</ele>
        <time>2021-10-08T17:46:33+02:00</time>
      </trkpt>
      <trkpt lat="44.46935" lon="1.72127">
        <ele>138</ele>
        <time>2021-10-08T17:46:33+02:00</time>
      </trkpt>
      <trkpt lat="44.4694" lon="1.72158">
        <ele>138</ele>
        <time>2021-10-08T17:46:33+02:00</time>
      </trkpt>
      <trkpt lat="44.46943" lon="1.72196">
        <ele>139</ele>
        <time>2021-10-08T17:46:33+02:00</time>
      </trkpt>
      <trkpt lat="44.46942" lon="1.72235">
        <ele>139</ele>
        <time>2021-10-08T17:46:33+02:00</time>
      </trkpt>
      <trkpt lat="44.4694" lon="1.72274">
        <ele>139</ele>
        <time>2021-10-08T17:46:33+02:00</time>
      </trkpt>
      <trkpt lat="44.46934" lon="1.72306">
        <ele>139</ele>
        <time>2021-10-08T17:46:33+02:00</time>
      </trkpt>
      <trkpt lat="44.46927" lon="1.72337">
        <ele>139</ele>
        <time>2021-10-08T17:46:33+02:00</time>
      </trkpt>
      <trkpt lat="44.4692" lon="1.72373">
        <ele>139</ele>
        <time>2021-10-08T17:46:33+02:00</time>
      </trkpt>
      <trkpt lat="44.46912" lon="1.72403">
        <ele>140</ele>
        <time>2021-10-08T17:46:33+02:00</time>
      </trkpt>
      <trkpt lat="44.46902" lon="1.72439">
        <ele>140</ele>
        <time>2021-10-08T17:46:33+02:00</time>
      </trkpt>
      <trkpt lat="44.46894" lon="1.72468">
        <ele>140</ele>
        <time>2021-10-08T17:46:33+02:00</time>
      </trkpt>
      <trkpt lat="44.46883" lon="1.72503">
        <ele>140</ele>
        <time>2021-10-08T17:46:33+02:00</time>
      </trkpt>
      <trkpt lat="44.46874" lon="1.72539">
        <ele>140</ele>
        <time>2021-10-08T17:46:33+02:00</time>
      </trkpt>
      <trkpt lat="44.46863" lon="1.72575">
        <ele>139</ele>
        <time>2021-10-08T17:46:33+02:00</time>
      </trkpt>
      <trkpt lat="44.46853" lon="1.72604">
        <ele>140</ele>
        <time>2021-10-08T17:46:33+02:00</time>
      </trkpt>
      <trkpt lat="44.46845" lon="1.72633">
        <ele>141</ele>
        <time>2021-10-08T17:46:33+02:00</time>
      </trkpt>
      <trkpt lat="44.46834" lon="1.72669">
        <ele>141</ele>
        <time>2021-10-08T17:46:33+02:00</time>
      </trkpt>
      <trkpt lat="44.46825" lon="1.72706">
        <ele>141</ele>
        <time>2021-10-08T17:46:33+02:00</time>
      </trkpt>
      <trkpt lat="44.46816" lon="1.72736">
        <ele>140</ele>
        <time>2021-10-08T17:46:33+02:00</time>
      </trkpt>
      <trkpt lat="44.46807" lon="1.72765">
        <ele>141</ele>
        <time>2021-10-08T17:46:33+02:00</time>
      </trkpt>
      <trkpt lat="44.46798" lon="1.72794">
        <ele>141</ele>
        <time>2021-10-08T17:46:33+02:00</time>
      </trkpt>
      <trkpt lat="44.46788" lon="1.72824">
        <ele>140</ele>
        <time>2021-10-08T17:46:33+02:00</time>
      </trkpt>
      <trkpt lat="44.46779" lon="1.72853">
        <ele>141</ele>
        <time>2021-10-08T17:46:33+02:00</time>
      </trkpt>
      <trkpt lat="44.46768" lon="1.72889">
        <ele>141</ele>
        <time>2021-10-08T17:46:33+02:00</time>
      </trkpt>
      <trkpt lat="44.46757" lon="1.72926">
        <ele>140</ele>
        <time>2021-10-08T17:46:33+02:00</time>
      </trkpt>
      <trkpt lat="44.46749" lon="1.72955">
        <ele>140</ele>
        <time>2021-10-08T17:46:33+02:00</time>
      </trkpt>
      <trkpt lat="44.46737" lon="1.72989">
        <ele>141</ele>
        <time>2021-10-08T17:46:33+02:00</time>
      </trkpt>
      <trkpt lat="44.46727" lon="1.73022">
        <ele>141</ele>
        <time>2021-10-08T17:46:33+02:00</time>
      </trkpt>
      <trkpt lat="44.46716" lon="1.73057">
        <ele>141</ele>
        <time>2021-10-08T17:46:33+02:00</time>
      </trkpt>
      <trkpt lat="44.46703" lon="1.73091">
        <ele>142</ele>
        <time>2021-10-08T17:46:33+02:00</time>
      </trkpt>
      <trkpt lat="44.4669" lon="1.73126">
        <ele>142</ele>
        <time>2021-10-08T17:46:33+02:00</time>
      </trkpt>
      <trkpt lat="44.46675" lon="1.73157">
        <ele>143</ele>
        <time>2021-10-08T17:46:33+02:00</time>
      </trkpt>
      <trkpt lat="44.46662" lon="1.7319">
        <ele>143</ele>
        <time>2021-10-08T17:46:33+02:00</time>
      </trkpt>
      <trkpt lat="44.46646" lon="1.73219">
        <ele>143</ele>
        <time>2021-10-08T17:46:33+02:00</time>
      </trkpt>
      <trkpt lat="44.46629" lon="1.73247">
        <ele>142</ele>
        <time>2021-10-08T17:46:33+02:00</time>
      </trkpt>
      <trkpt lat="44.46609" lon="1.73274">
        <ele>142</ele>
        <time>2021-10-08T17:46:33+02:00</time>
      </trkpt>
      <trkpt lat="44.4659" lon="1.73301">
        <ele>142</ele>
        <time>2021-10-08T17:46:33+02:00</time>
      </trkpt>
      <trkpt lat="44.4657" lon="1.73327">
        <ele>141</ele>
        <time>2021-10-08T17:46:33+02:00</time>
      </trkpt>
      <trkpt lat="44.46552" lon="1.73352">
        <ele>141</ele>
        <time>2021-10-08T17:46:33+02:00</time>
      </trkpt>
      <trkpt lat="44.46537" lon="1.73378">
        <ele>141</ele>
        <time>2021-10-08T17:46:33+02:00</time>
      </trkpt>
      <trkpt lat="44.46516" lon="1.73402">
        <ele>142</ele>
        <time>2021-10-08T17:46:33+02:00</time>
      </trkpt>
      <trkpt lat="44.46497" lon="1.73428">
        <ele>143</ele>
        <time>2021-10-08T17:46:33+02:00</time>
      </trkpt>
      <trkpt lat="44.46478" lon="1.73456">
        <ele>143</ele>
        <time>2021-10-08T17:46:33+02:00</time>
      </trkpt>
      <trkpt lat="44.46458" lon="1.73483">
        <ele>143</ele>
        <time>2021-10-08T17:46:33+02:00</time>
      </trkpt>
      <trkpt lat="44.46439" lon="1.73508">
        <ele>143</ele>
        <time>2021-10-08T17:46:33+02:00</time>
      </trkpt>
      <trkpt lat="44.46418" lon="1.73535">
        <ele>142</ele>
        <time>2021-10-08T17:46:33+02:00</time>
      </trkpt>
      <trkpt lat="44.46399" lon="1.73564">
        <ele>142</ele>
        <time>2021-10-08T17:46:33+02:00</time>
      </trkpt>
      <trkpt lat="44.46382" lon="1.73585">
        <ele>142</ele>
        <time>2021-10-08T17:46:33+02:00</time>
      </trkpt>
      <trkpt lat="44.46363" lon="1.73612">
        <ele>141</ele>
        <time>2021-10-08T17:46:33+02:00</time>
      </trkpt>
      <trkpt lat="44.46344" lon="1.73638">
        <ele>141</ele>
        <time>2021-10-08T17:46:33+02:00</time>
      </trkpt>
      <trkpt lat="44.46324" lon="1.73664">
        <ele>141</ele>
        <time>2021-10-08T17:46:33+02:00</time>
      </trkpt>
      <trkpt lat="44.46308" lon="1.73687">
        <ele>141</ele>
        <time>2021-10-08T17:46:33+02:00</time>
      </trkpt>
      <trkpt lat="44.46292" lon="1.73719">
        <ele>141</ele>
        <time>2021-10-08T17:46:33+02:00</time>
      </trkpt>
      <trkpt lat="44.46281" lon="1.73754">
        <ele>141</ele>
        <time>2021-10-08T17:46:33+02:00</time>
      </trkpt>
      <trkpt lat="44.46272" lon="1.7379">
        <ele>141</ele>
        <time>2021-10-08T17:46:33+02:00</time>
      </trkpt>
      <trkpt lat="44.46263" lon="1.73827">
        <ele>141</ele>
        <time>2021-10-08T17:46:33+02:00</time>
      </trkpt>
      <trkpt lat="44.46255" lon="1.73865">
        <ele>141</ele>
        <time>2021-10-08T17:46:33+02:00</time>
      </trkpt>
      <trkpt lat="44.46251" lon="1.73903">
        <ele>141</ele>
        <time>2021-10-08T17:46:33+02:00</time>
      </trkpt>
      <trkpt lat="44.46253" lon="1.73941">
        <ele>141</ele>
        <time>2021-10-08T17:46:33+02:00</time>
      </trkpt>
      <trkpt lat="44.46261" lon="1.73974">
        <ele>143</ele>
        <time>2021-10-08T17:46:33+02:00</time>
      </trkpt>
      <trkpt lat="44.46265" lon="1.74006">
        <ele>144</ele>
        <time>2021-10-08T17:46:33+02:00</time>
      </trkpt>
      <trkpt lat="44.46284" lon="1.74023">
        <ele>144</ele>
        <time>2021-10-08T17:46:33+02:00</time>
      </trkpt>
      <trkpt lat="44.46305" lon="1.74044">
        <ele>144</ele>
        <time>2021-10-08T17:46:33+02:00</time>
      </trkpt>
      <trkpt lat="44.46326" lon="1.74064">
        <ele>146</ele>
        <time>2021-10-08T17:46:33+02:00</time>
      </trkpt>
      <trkpt lat="44.46348" lon="1.74084">
        <ele>146</ele>
        <time>2021-10-08T17:46:33+02:00</time>
      </trkpt>
      <trkpt lat="44.46369" lon="1.74103">
        <ele>147</ele>
        <time>2021-10-08T17:46:33+02:00</time>
      </trkpt>
      <trkpt lat="44.46394" lon="1.74122">
        <ele>147</ele>
        <time>2021-10-08T17:46:33+02:00</time>
      </trkpt>
      <trkpt lat="44.46418" lon="1.74138">
        <ele>147</ele>
        <time>2021-10-08T17:46:33+02:00</time>
      </trkpt>
      <trkpt lat="44.46442" lon="1.74153">
        <ele>148</ele>
        <time>2021-10-08T17:46:33+02:00</time>
      </trkpt>
      <trkpt lat="44.46467" lon="1.74166">
        <ele>148</ele>
        <time>2021-10-08T17:46:33+02:00</time>
      </trkpt>
      <trkpt lat="44.46488" lon="1.74182">
        <ele>148</ele>
        <time>2021-10-08T17:46:33+02:00</time>
      </trkpt>
      <trkpt lat="44.46512" lon="1.74202">
        <ele>147</ele>
        <time>2021-10-08T17:46:33+02:00</time>
      </trkpt>
      <trkpt lat="44.46534" lon="1.74214">
        <ele>146</ele>
        <time>2021-10-08T17:46:33+02:00</time>
      </trkpt>
      <trkpt lat="44.46562" lon="1.74229">
        <ele>144</ele>
        <time>2021-10-08T17:46:33+02:00</time>
      </trkpt>
      <trkpt lat="44.46582" lon="1.74248">
        <ele>143</ele>
        <time>2021-10-08T17:46:33+02:00</time>
      </trkpt>
      <trkpt lat="44.46605" lon="1.74267">
        <ele>143</ele>
        <time>2021-10-08T17:46:33+02:00</time>
      </trkpt>
      <trkpt lat="44.46627" lon="1.74285">
        <ele>142</ele>
        <time>2021-10-08T17:46:33+02:00</time>
      </trkpt>
      <trkpt lat="44.46648" lon="1.74302">
        <ele>144</ele>
        <time>2021-10-08T17:46:33+02:00</time>
      </trkpt>
      <trkpt lat="44.46669" lon="1.74324">
        <ele>143</ele>
        <time>2021-10-08T17:46:33+02:00</time>
      </trkpt>
      <trkpt lat="44.46691" lon="1.74338">
        <ele>142</ele>
        <time>2021-10-08T17:46:33+02:00</time>
      </trkpt>
      <trkpt lat="44.46715" lon="1.74358">
        <ele>143</ele>
        <time>2021-10-08T17:46:33+02:00</time>
      </trkpt>
      <trkpt lat="44.46734" lon="1.74376">
        <ele>144</ele>
        <time>2021-10-08T17:46:33+02:00</time>
      </trkpt>
      <trkpt lat="44.46753" lon="1.74394">
        <ele>145</ele>
        <time>2021-10-08T17:46:33+02:00</time>
      </trkpt>
      <trkpt lat="44.46776" lon="1.74414">
        <ele>148</ele>
        <time>2021-10-08T17:46:33+02:00</time>
      </trkpt>
      <trkpt lat="44.46797" lon="1.74437">
        <ele>150</ele>
        <time>2021-10-08T17:46:33+02:00</time>
      </trkpt>
      <trkpt lat="44.46813" lon="1.74468">
        <ele>151</ele>
        <time>2021-10-08T17:46:33+02:00</time>
      </trkpt>
      <trkpt lat="44.46831" lon="1.74489">
        <ele>152</ele>
        <time>2021-10-08T17:46:33+02:00</time>
      </trkpt>
      <trkpt lat="44.46843" lon="1.74518">
        <ele>154</ele>
        <time>2021-10-08T17:46:33+02:00</time>
      </trkpt>
      <trkpt lat="44.46854" lon="1.7455">
        <ele>152</ele>
        <time>2021-10-08T17:46:33+02:00</time>
      </trkpt>
      <trkpt lat="44.46865" lon="1.74579">
        <ele>149</ele>
        <time>2021-10-08T17:46:33+02:00</time>
      </trkpt>
      <trkpt lat="44.46878" lon="1.74607">
        <ele>149</ele>
        <time>2021-10-08T17:46:33+02:00</time>
      </trkpt>
      <trkpt lat="44.46888" lon="1.74636">
        <ele>148</ele>
        <time>2021-10-08T17:46:33+02:00</time>
      </trkpt>
      <trkpt lat="44.46899" lon="1.74663">
        <ele>148</ele>
        <time>2021-10-08T17:46:33+02:00</time>
      </trkpt>
      <trkpt lat="44.46909" lon="1.74694">
        <ele>148</ele>
        <time>2021-10-08T17:46:33+02:00</time>
      </trkpt>
      <trkpt lat="44.46917" lon="1.74725">
        <ele>147</ele>
        <time>2021-10-08T17:46:33+02:00</time>
      </trkpt>
      <trkpt lat="44.46926" lon="1.74757">
        <ele>146</ele>
        <time>2021-10-08T17:46:33+02:00</time>
      </trkpt>
      <trkpt lat="44.46928" lon="1.74794">
        <ele>143</ele>
        <time>2021-10-08T17:46:33+02:00</time>
      </trkpt>
      <trkpt lat="44.46928" lon="1.74826">
        <ele>141</ele>
        <time>2021-10-08T17:46:33+02:00</time>
      </trkpt>
      <trkpt lat="44.46927" lon="1.74858">
        <ele>140</ele>
        <time>2021-10-08T17:46:33+02:00</time>
      </trkpt>
      <trkpt lat="44.46925" lon="1.74897">
        <ele>140</ele>
        <time>2021-10-08T17:46:33+02:00</time>
      </trkpt>
      <trkpt lat="44.46922" lon="1.74934">
        <ele>141</ele>
        <time>2021-10-08T17:46:33+02:00</time>
      </trkpt>
      <trkpt lat="44.46921" lon="1.74971">
        <ele>143</ele>
        <time>2021-10-08T17:46:33+02:00</time>
      </trkpt>
      <trkpt lat="44.46918" lon="1.75008">
        <ele>145</ele>
        <time>2021-10-08T17:46:33+02:00</time>
      </trkpt>
      <trkpt lat="44.46914" lon="1.75042">
        <ele>146</ele>
        <time>2021-10-08T17:46:33+02:00</time>
      </trkpt>
      <trkpt lat="44.46911" lon="1.7508">
        <ele>146</ele>
        <time>2021-10-08T17:46:33+02:00</time>
      </trkpt>
      <trkpt lat="44.46906" lon="1.75119">
        <ele>148</ele>
        <time>2021-10-08T17:46:33+02:00</time>
      </trkpt>
      <trkpt lat="44.46899" lon="1.75149">
        <ele>149</ele>
        <time>2021-10-08T17:46:33+02:00</time>
      </trkpt>
      <trkpt lat="44.46895" lon="1.75186">
        <ele>151</ele>
        <time>2021-10-08T17:46:33+02:00</time>
      </trkpt>
      <trkpt lat="44.46889" lon="1.75223">
        <ele>149</ele>
        <time>2021-10-08T17:46:33+02:00</time>
      </trkpt>
      <trkpt lat="44.46885" lon="1.7526">
        <ele>148</ele>
        <time>2021-10-08T17:46:33+02:00</time>
      </trkpt>
      <trkpt lat="44.46882" lon="1.75299">
        <ele>146</ele>
        <time>2021-10-08T17:46:33+02:00</time>
      </trkpt>
      <trkpt lat="44.46877" lon="1.75337">
        <ele>146</ele>
        <time>2021-10-08T17:46:33+02:00</time>
      </trkpt>
      <trkpt lat="44.46872" lon="1.75374">
        <ele>146</ele>
        <time>2021-10-08T17:46:33+02:00</time>
      </trkpt>
      <trkpt lat="44.46868" lon="1.75413">
        <ele>145</ele>
        <time>2021-10-08T17:46:33+02:00</time>
      </trkpt>
      <trkpt lat="44.46864" lon="1.75444">
        <ele>145</ele>
        <time>2021-10-08T17:46:33+02:00</time>
      </trkpt>
      <trkpt lat="44.46859" lon="1.75481">
        <ele>144</ele>
        <time>2021-10-08T17:46:33+02:00</time>
      </trkpt>
      <trkpt lat="44.46853" lon="1.75519">
        <ele>143</ele>
        <time>2021-10-08T17:46:33+02:00</time>
      </trkpt>
      <trkpt lat="44.46847" lon="1.7555">
        <ele>143</ele>
        <time>2021-10-08T17:46:33+02:00</time>
      </trkpt>
      <trkpt lat="44.46841" lon="1.7558">
        <ele>143</ele>
        <time>2021-10-08T17:46:33+02:00</time>
      </trkpt>
      <trkpt lat="44.46835" lon="1.75611">
        <ele>143</ele>
        <time>2021-10-08T17:46:33+02:00</time>
      </trkpt>
      <trkpt lat="44.46829" lon="1.75649">
        <ele>143</ele>
        <time>2021-10-08T17:46:33+02:00</time>
      </trkpt>
      <trkpt lat="44.46821" lon="1.75686">
        <ele>143</ele>
        <time>2021-10-08T17:46:33+02:00</time>
      </trkpt>
      <trkpt lat="44.46814" lon="1.75723">
        <ele>143</ele>
        <time>2021-10-08T17:46:33+02:00</time>
      </trkpt>
      <trkpt lat="44.46806" lon="1.75761">
        <ele>143</ele>
        <time>2021-10-08T17:46:33+02:00</time>
      </trkpt>
      <trkpt lat="44.46799" lon="1.75798">
        <ele>143</ele>
        <time>2021-10-08T17:46:33+02:00</time>
      </trkpt>
      <trkpt lat="44.46792" lon="1.75835">
        <ele>143</ele>
        <time>2021-10-08T17:46:33+02:00</time>
      </trkpt>
      <trkpt lat="44.46786" lon="1.75866">
        <ele>143</ele>
        <time>2021-10-08T17:46:33+02:00</time>
      </trkpt>
      <trkpt lat="44.46779" lon="1.75904">
        <ele>143</ele>
        <time>2021-10-08T17:46:33+02:00</time>
      </trkpt>
      <trkpt lat="44.46772" lon="1.75934">
        <ele>143</ele>
        <time>2021-10-08T17:46:33+02:00</time>
      </trkpt>
      <trkpt lat="44.46764" lon="1.75972">
        <ele>143</ele>
        <time>2021-10-08T17:46:33+02:00</time>
      </trkpt>
      <trkpt lat="44.46755" lon="1.76009">
        <ele>143</ele>
        <time>2021-10-08T17:46:33+02:00</time>
      </trkpt>
      <trkpt lat="44.46749" lon="1.76044">
        <ele>143</ele>
        <time>2021-10-08T17:46:33+02:00</time>
      </trkpt>
      <trkpt lat="44.46742" lon="1.76076">
        <ele>143</ele>
        <time>2021-10-08T17:46:33+02:00</time>
      </trkpt>
      <trkpt lat="44.46733" lon="1.76108">
        <ele>143</ele>
        <time>2021-10-08T17:46:33+02:00</time>
      </trkpt>
      <trkpt lat="44.46721" lon="1.76143">
        <ele>143</ele>
        <time>2021-10-08T17:46:33+02:00</time>
      </trkpt>
      <trkpt lat="44.46711" lon="1.76172">
        <ele>142</ele>
        <time>2021-10-08T17:46:33+02:00</time>
      </trkpt>
      <trkpt lat="44.467" lon="1.76206">
        <ele>143</ele>
        <time>2021-10-08T17:46:33+02:00</time>
      </trkpt>
      <trkpt lat="44.46688" lon="1.7624">
        <ele>144</ele>
        <time>2021-10-08T17:46:33+02:00</time>
      </trkpt>
      <trkpt lat="44.46677" lon="1.76276">
        <ele>143</ele>
        <time>2021-10-08T17:46:33+02:00</time>
      </trkpt>
      <trkpt lat="44.46669" lon="1.76305">
        <ele>144</ele>
        <time>2021-10-08T17:46:33+02:00</time>
      </trkpt>
      <trkpt lat="44.46661" lon="1.76343">
        <ele>144</ele>
        <time>2021-10-08T17:46:33+02:00</time>
      </trkpt>
      <trkpt lat="44.46658" lon="1.76381">
        <ele>144</ele>
        <time>2021-10-08T17:46:33+02:00</time>
      </trkpt>
      <trkpt lat="44.46659" lon="1.76419">
        <ele>144</ele>
        <time>2021-10-08T17:46:33+02:00</time>
      </trkpt>
      <trkpt lat="44.46663" lon="1.76458">
        <ele>142</ele>
        <time>2021-10-08T17:46:33+02:00</time>
      </trkpt>
      <trkpt lat="44.46671" lon="1.76492">
        <ele>142</ele>
        <time>2021-10-08T17:46:33+02:00</time>
      </trkpt>
      <trkpt lat="44.46686" lon="1.76521">
        <ele>141</ele>
        <time>2021-10-08T17:46:33+02:00</time>
      </trkpt>
      <trkpt lat="44.46704" lon="1.76545">
        <ele>142</ele>
        <time>2021-10-08T17:46:33+02:00</time>
      </trkpt>
      <trkpt lat="44.46723" lon="1.76565">
        <ele>142</ele>
        <time>2021-10-08T17:46:33+02:00</time>
      </trkpt>
      <trkpt lat="44.46744" lon="1.76585">
        <ele>142</ele>
        <time>2021-10-08T17:46:33+02:00</time>
      </trkpt>
      <trkpt lat="44.46761" lon="1.76607">
        <ele>141</ele>
        <time>2021-10-08T17:46:33+02:00</time>
      </trkpt>
      <trkpt lat="44.46779" lon="1.76628">
        <ele>141</ele>
        <time>2021-10-08T17:46:33+02:00</time>
      </trkpt>
      <trkpt lat="44.46797" lon="1.76649">
        <ele>140</ele>
        <time>2021-10-08T17:46:33+02:00</time>
      </trkpt>
      <trkpt lat="44.46816" lon="1.76666">
        <ele>141</ele>
        <time>2021-10-08T17:46:33+02:00</time>
      </trkpt>
      <trkpt lat="44.46836" lon="1.76682">
        <ele>141</ele>
        <time>2021-10-08T17:46:33+02:00</time>
      </trkpt>
      <trkpt lat="44.46861" lon="1.76698">
        <ele>142</ele>
        <time>2021-10-08T17:46:33+02:00</time>
      </trkpt>
      <trkpt lat="44.46885" lon="1.76712">
        <ele>142</ele>
        <time>2021-10-08T17:46:33+02:00</time>
      </trkpt>
      <trkpt lat="44.4691" lon="1.76726">
        <ele>143</ele>
        <time>2021-10-08T17:46:33+02:00</time>
      </trkpt>
      <trkpt lat="44.46936" lon="1.76739">
        <ele>144</ele>
        <time>2021-10-08T17:46:33+02:00</time>
      </trkpt>
      <trkpt lat="44.46957" lon="1.76752">
        <ele>145</ele>
        <time>2021-10-08T17:46:33+02:00</time>
      </trkpt>
      <trkpt lat="44.46976" lon="1.76768">
        <ele>145</ele>
        <time>2021-10-08T17:46:33+02:00</time>
      </trkpt>
      <trkpt lat="44.46995" lon="1.76786">
        <ele>146</ele>
        <time>2021-10-08T17:46:33+02:00</time>
      </trkpt>
      <trkpt lat="44.47016" lon="1.76809">
        <ele>146</ele>
        <time>2021-10-08T17:46:33+02:00</time>
      </trkpt>
      <trkpt lat="44.47039" lon="1.76832">
        <ele>145</ele>
        <time>2021-10-08T17:46:33+02:00</time>
      </trkpt>
      <trkpt lat="44.4706" lon="1.76856">
        <ele>145</ele>
        <time>2021-10-08T17:46:33+02:00</time>
      </trkpt>
      <trkpt lat="44.47081" lon="1.76876">
        <ele>145</ele>
        <time>2021-10-08T17:46:33+02:00</time>
      </trkpt>
      <trkpt lat="44.47103" lon="1.76898">
        <ele>145</ele>
        <time>2021-10-08T17:46:33+02:00</time>
      </trkpt>
      <trkpt lat="44.47121" lon="1.76917">
        <ele>145</ele>
        <time>2021-10-08T17:46:33+02:00</time>
      </trkpt>
      <trkpt lat="44.47142" lon="1.76943">
        <ele>145</ele>
        <time>2021-10-08T17:46:33+02:00</time>
      </trkpt>
      <trkpt lat="44.47159" lon="1.76965">
        <ele>146</ele>
        <time>2021-10-08T17:46:33+02:00</time>
      </trkpt>
      <trkpt lat="44.47176" lon="1.76987">
        <ele>146</ele>
        <time>2021-10-08T17:46:33+02:00</time>
      </trkpt>
      <trkpt lat="44.4719" lon="1.77012">
        <ele>147</ele>
        <time>2021-10-08T17:46:33+02:00</time>
      </trkpt>
      <trkpt lat="44.47201" lon="1.7704">
        <ele>146</ele>
        <time>2021-10-08T17:46:33+02:00</time>
      </trkpt>
      <trkpt lat="44.47214" lon="1.77068">
        <ele>146</ele>
        <time>2021-10-08T17:46:33+02:00</time>
      </trkpt>
      <trkpt lat="44.47226" lon="1.77095">
        <ele>144</ele>
        <time>2021-10-08T17:46:33+02:00</time>
      </trkpt>
      <trkpt lat="44.47238" lon="1.77122">
        <ele>145</ele>
        <time>2021-10-08T17:46:33+02:00</time>
      </trkpt>
      <trkpt lat="44.47252" lon="1.77153">
        <ele>145</ele>
        <time>2021-10-08T17:46:33+02:00</time>
      </trkpt>
      <trkpt lat="44.47265" lon="1.77185">
        <ele>145</ele>
        <time>2021-10-08T17:46:33+02:00</time>
      </trkpt>
      <trkpt lat="44.47277" lon="1.77216">
        <ele>146</ele>
        <time>2021-10-08T17:46:33+02:00</time>
      </trkpt>
      <trkpt lat="44.47291" lon="1.77245">
        <ele>147</ele>
        <time>2021-10-08T17:46:33+02:00</time>
      </trkpt>
      <trkpt lat="44.47304" lon="1.77276">
        <ele>146</ele>
        <time>2021-10-08T17:46:33+02:00</time>
      </trkpt>
      <trkpt lat="44.47317" lon="1.77306">
        <ele>147</ele>
        <time>2021-10-08T17:46:33+02:00</time>
      </trkpt>
      <trkpt lat="44.47331" lon="1.77338">
        <ele>146</ele>
        <time>2021-10-08T17:46:33+02:00</time>
      </trkpt>
      <trkpt lat="44.47345" lon="1.7737">
        <ele>146</ele>
        <time>2021-10-08T17:46:33+02:00</time>
      </trkpt>
      <trkpt lat="44.47359" lon="1.77402">
        <ele>147</ele>
        <time>2021-10-08T17:46:33+02:00</time>
      </trkpt>
      <trkpt lat="44.47373" lon="1.77434">
        <ele>147</ele>
        <time>2021-10-08T17:46:33+02:00</time>
      </trkpt>
      <trkpt lat="44.47387" lon="1.77465">
        <ele>148</ele>
        <time>2021-10-08T17:46:33+02:00</time>
      </trkpt>
      <trkpt lat="44.47403" lon="1.77493">
        <ele>149</ele>
        <time>2021-10-08T17:46:33+02:00</time>
      </trkpt>
      <trkpt lat="44.4742" lon="1.77517">
        <ele>150</ele>
        <time>2021-10-08T17:46:33+02:00</time>
      </trkpt>
      <trkpt lat="44.47439" lon="1.77542">
        <ele>150</ele>
        <time>2021-10-08T17:46:33+02:00</time>
      </trkpt>
      <trkpt lat="44.47457" lon="1.77564">
        <ele>149</ele>
        <time>2021-10-08T17:46:33+02:00</time>
      </trkpt>
      <trkpt lat="44.47469" lon="1.77592">
        <ele>149</ele>
        <time>2021-10-08T17:46:33+02:00</time>
      </trkpt>
      <trkpt lat="44.47481" lon="1.77627">
        <ele>148</ele>
        <time>2021-10-08T17:46:33+02:00</time>
      </trkpt>
      <trkpt lat="44.47489" lon="1.77664">
        <ele>147</ele>
        <time>2021-10-08T17:46:33+02:00</time>
      </trkpt>
      <trkpt lat="44.47496" lon="1.77699">
        <ele>146</ele>
        <time>2021-10-08T17:46:33+02:00</time>
      </trkpt>
      <trkpt lat="44.47504" lon="1.77729">
        <ele>144</ele>
        <time>2021-10-08T17:46:33+02:00</time>
      </trkpt>
      <trkpt lat="44.47511" lon="1.77766">
        <ele>140</ele>
        <time>2021-10-08T17:46:33+02:00</time>
      </trkpt>
      <trkpt lat="44.47515" lon="1.77799">
        <ele>139</ele>
        <time>2021-10-08T17:46:33+02:00</time>
      </trkpt>
      <trkpt lat="44.47513" lon="1.77833">
        <ele>140</ele>
        <time>2021-10-08T17:46:33+02:00</time>
      </trkpt>
      <trkpt lat="44.47505" lon="1.77865">
        <ele>141</ele>
        <time>2021-10-08T17:46:33+02:00</time>
      </trkpt>
      <trkpt lat="44.47497" lon="1.77898">
        <ele>142</ele>
        <time>2021-10-08T17:46:33+02:00</time>
      </trkpt>
      <trkpt lat="44.47488" lon="1.7793">
        <ele>144</ele>
        <time>2021-10-08T17:46:33+02:00</time>
      </trkpt>
      <trkpt lat="44.47477" lon="1.7796">
        <ele>146</ele>
        <time>2021-10-08T17:46:33+02:00</time>
      </trkpt>
      <trkpt lat="44.47466" lon="1.77989">
        <ele>148</ele>
        <time>2021-10-08T17:46:33+02:00</time>
      </trkpt>
      <trkpt lat="44.47452" lon="1.7802">
        <ele>150</ele>
        <time>2021-10-08T17:46:33+02:00</time>
      </trkpt>
      <trkpt lat="44.47435" lon="1.78045">
        <ele>151</ele>
        <time>2021-10-08T17:46:33+02:00</time>
      </trkpt>
      <trkpt lat="44.4742" lon="1.7807">
        <ele>147</ele>
        <time>2021-10-08T17:46:33+02:00</time>
      </trkpt>
      <trkpt lat="44.47404" lon="1.78093">
        <ele>148</ele>
        <time>2021-10-08T17:46:33+02:00</time>
      </trkpt>
      <trkpt lat="44.47387" lon="1.78121">
        <ele>148</ele>
        <time>2021-10-08T17:46:33+02:00</time>
      </trkpt>
      <trkpt lat="44.47371" lon="1.78145">
        <ele>147</ele>
        <time>2021-10-08T17:46:33+02:00</time>
      </trkpt>
      <trkpt lat="44.47355" lon="1.78168">
        <ele>148</ele>
        <time>2021-10-08T17:46:33+02:00</time>
      </trkpt>
      <trkpt lat="44.47338" lon="1.78196">
        <ele>149</ele>
        <time>2021-10-08T17:46:33+02:00</time>
      </trkpt>
      <trkpt lat="44.47321" lon="1.78219">
        <ele>149</ele>
        <time>2021-10-08T17:46:33+02:00</time>
      </trkpt>
      <trkpt lat="44.47305" lon="1.78247">
        <ele>148</ele>
        <time>2021-10-08T17:46:33+02:00</time>
      </trkpt>
      <trkpt lat="44.47294" lon="1.78279">
        <ele>148</ele>
        <time>2021-10-08T17:46:33+02:00</time>
      </trkpt>
      <trkpt lat="44.47289" lon="1.78314">
        <ele>146</ele>
        <time>2021-10-08T17:46:33+02:00</time>
      </trkpt>
      <trkpt lat="44.47268" lon="1.78333">
        <ele>144</ele>
        <time>2021-10-08T17:46:33+02:00</time>
      </trkpt>
      <trkpt lat="44.47244" lon="1.78343">
        <ele>145</ele>
        <time>2021-10-08T17:46:33+02:00</time>
      </trkpt>
      <trkpt lat="44.47221" lon="1.78356">
        <ele>146</ele>
        <time>2021-10-08T17:46:33+02:00</time>
      </trkpt>
      <trkpt lat="44.47198" lon="1.78365">
        <ele>148</ele>
        <time>2021-10-08T17:46:33+02:00</time>
      </trkpt>
      <trkpt lat="44.47173" lon="1.78376">
        <ele>148</ele>
        <time>2021-10-08T17:46:33+02:00</time>
      </trkpt>
      <trkpt lat="44.47149" lon="1.78387">
        <ele>149</ele>
        <time>2021-10-08T17:46:33+02:00</time>
      </trkpt>
      <trkpt lat="44.47126" lon="1.78399">
        <ele>148</ele>
        <time>2021-10-08T17:46:33+02:00</time>
      </trkpt>
      <trkpt lat="44.47105" lon="1.78409">
        <ele>149</ele>
        <time>2021-10-08T17:46:33+02:00</time>
      </trkpt>
      <trkpt lat="44.47082" lon="1.78419">
        <ele>148</ele>
        <time>2021-10-08T17:46:33+02:00</time>
      </trkpt>
      <trkpt lat="44.47056" lon="1.78428">
        <ele>149</ele>
        <time>2021-10-08T17:46:33+02:00</time>
      </trkpt>
      <trkpt lat="44.4703" lon="1.78435">
        <ele>148</ele>
        <time>2021-10-08T17:46:33+02:00</time>
      </trkpt>
      <trkpt lat="44.47006" lon="1.78438">
        <ele>147</ele>
        <time>2021-10-08T17:46:33+02:00</time>
      </trkpt>
      <trkpt lat="44.4698" lon="1.78442">
        <ele>146</ele>
        <time>2021-10-08T17:46:33+02:00</time>
      </trkpt>
      <trkpt lat="44.46954" lon="1.78445">
        <ele>145</ele>
        <time>2021-10-08T17:46:33+02:00</time>
      </trkpt>
      <trkpt lat="44.46929" lon="1.78446">
        <ele>146</ele>
        <time>2021-10-08T17:46:33+02:00</time>
      </trkpt>
      <trkpt lat="44.46903" lon="1.78448">
        <ele>147</ele>
        <time>2021-10-08T17:46:33+02:00</time>
      </trkpt>
      <trkpt lat="44.4688" lon="1.78448">
        <ele>148</ele>
        <time>2021-10-08T17:46:33+02:00</time>
      </trkpt>
      <trkpt lat="44.46857" lon="1.78449">
        <ele>148</ele>
        <time>2021-10-08T17:46:33+02:00</time>
      </trkpt>
      <trkpt lat="44.46834" lon="1.78451">
        <ele>148</ele>
        <time>2021-10-08T17:46:33+02:00</time>
      </trkpt>
      <trkpt lat="44.4681" lon="1.78453">
        <ele>148</ele>
        <time>2021-10-08T17:46:33+02:00</time>
      </trkpt>
      <trkpt lat="44.46784" lon="1.78453">
        <ele>149</ele>
        <time>2021-10-08T17:46:33+02:00</time>
      </trkpt>
      <trkpt lat="44.46758" lon="1.78454">
        <ele>150</ele>
        <time>2021-10-08T17:46:33+02:00</time>
      </trkpt>
      <trkpt lat="44.46732" lon="1.78455">
        <ele>149</ele>
        <time>2021-10-08T17:46:33+02:00</time>
      </trkpt>
      <trkpt lat="44.46708" lon="1.78456">
        <ele>149</ele>
        <time>2021-10-08T17:46:33+02:00</time>
      </trkpt>
      <trkpt lat="44.46682" lon="1.78462">
        <ele>148</ele>
        <time>2021-10-08T17:46:33+02:00</time>
      </trkpt>
      <trkpt lat="44.46657" lon="1.78473">
        <ele>148</ele>
        <time>2021-10-08T17:46:33+02:00</time>
      </trkpt>
      <trkpt lat="44.46634" lon="1.78488">
        <ele>148</ele>
        <time>2021-10-08T17:46:33+02:00</time>
      </trkpt>
      <trkpt lat="44.46613" lon="1.78502">
        <ele>149</ele>
        <time>2021-10-08T17:46:33+02:00</time>
      </trkpt>
      <trkpt lat="44.4659" lon="1.78518">
        <ele>150</ele>
        <time>2021-10-08T17:46:33+02:00</time>
      </trkpt>
      <trkpt lat="44.46566" lon="1.78532">
        <ele>150</ele>
        <time>2021-10-08T17:46:33+02:00</time>
      </trkpt>
      <trkpt lat="44.46543" lon="1.78549">
        <ele>150</ele>
        <time>2021-10-08T17:46:33+02:00</time>
      </trkpt>
      <trkpt lat="44.46518" lon="1.78565">
        <ele>150</ele>
        <time>2021-10-08T17:46:33+02:00</time>
      </trkpt>
      <trkpt lat="44.46494" lon="1.7858">
        <ele>151</ele>
        <time>2021-10-08T17:46:33+02:00</time>
      </trkpt>
      <trkpt lat="44.46473" lon="1.78596">
        <ele>151</ele>
        <time>2021-10-08T17:46:33+02:00</time>
      </trkpt>
      <trkpt lat="44.46451" lon="1.78609">
        <ele>151</ele>
        <time>2021-10-08T17:46:33+02:00</time>
      </trkpt>
      <trkpt lat="44.46428" lon="1.78624">
        <ele>151</ele>
        <time>2021-10-08T17:46:33+02:00</time>
      </trkpt>
      <trkpt lat="44.46403" lon="1.78638">
        <ele>151</ele>
        <time>2021-10-08T17:46:33+02:00</time>
      </trkpt>
      <trkpt lat="44.4638" lon="1.78654">
        <ele>151</ele>
        <time>2021-10-08T17:46:33+02:00</time>
      </trkpt>
      <trkpt lat="44.4636" lon="1.78677">
        <ele>150</ele>
        <time>2021-10-08T17:46:33+02:00</time>
      </trkpt>
      <trkpt lat="44.46347" lon="1.78708">
        <ele>149</ele>
        <time>2021-10-08T17:46:33+02:00</time>
      </trkpt>
      <trkpt lat="44.46337" lon="1.7874">
        <ele>149</ele>
        <time>2021-10-08T17:46:33+02:00</time>
      </trkpt>
      <trkpt lat="44.4633" lon="1.78774">
        <ele>149</ele>
        <time>2021-10-08T17:46:33+02:00</time>
      </trkpt>
      <trkpt lat="44.46329" lon="1.78807">
        <ele>148</ele>
        <time>2021-10-08T17:46:33+02:00</time>
      </trkpt>
      <trkpt lat="44.46334" lon="1.7884">
        <ele>149</ele>
        <time>2021-10-08T17:46:33+02:00</time>
      </trkpt>
      <trkpt lat="44.46345" lon="1.78874">
        <ele>152</ele>
        <time>2021-10-08T17:46:33+02:00</time>
      </trkpt>
      <trkpt lat="44.46361" lon="1.78901">
        <ele>153</ele>
        <time>2021-10-08T17:46:33+02:00</time>
      </trkpt>
      <trkpt lat="44.46381" lon="1.78921">
        <ele>155</ele>
        <time>2021-10-08T17:46:33+02:00</time>
      </trkpt>
      <trkpt lat="44.46404" lon="1.7893">
        <ele>155</ele>
        <time>2021-10-08T17:46:33+02:00</time>
      </trkpt>
      <trkpt lat="44.46428" lon="1.78937">
        <ele>156</ele>
        <time>2021-10-08T17:46:33+02:00</time>
      </trkpt>
      <trkpt lat="44.46451" lon="1.78943">
        <ele>156</ele>
        <time>2021-10-08T17:46:33+02:00</time>
      </trkpt>
      <trkpt lat="44.46474" lon="1.78949">
        <ele>155</ele>
        <time>2021-10-08T17:46:33+02:00</time>
      </trkpt>
      <trkpt lat="44.465" lon="1.78956">
        <ele>155</ele>
        <time>2021-10-08T17:46:33+02:00</time>
      </trkpt>
      <trkpt lat="44.46526" lon="1.78961">
        <ele>156</ele>
        <time>2021-10-08T17:46:33+02:00</time>
      </trkpt>
      <trkpt lat="44.4655" lon="1.78966">
        <ele>158</ele>
        <time>2021-10-08T17:46:33+02:00</time>
      </trkpt>
      <trkpt lat="44.46574" lon="1.7897">
        <ele>158</ele>
        <time>2021-10-08T17:46:33+02:00</time>
      </trkpt>
      <trkpt lat="44.46598" lon="1.78975">
        <ele>160</ele>
        <time>2021-10-08T17:46:33+02:00</time>
      </trkpt>
      <trkpt lat="44.46622" lon="1.7898">
        <ele>161</ele>
        <time>2021-10-08T17:46:33+02:00</time>
      </trkpt>
      <trkpt lat="44.46647" lon="1.78985">
        <ele>162</ele>
        <time>2021-10-08T17:46:33+02:00</time>
      </trkpt>
      <trkpt lat="44.46671" lon="1.7899">
        <ele>163</ele>
        <time>2021-10-08T17:46:33+02:00</time>
      </trkpt>
      <trkpt lat="44.46694" lon="1.78997">
        <ele>163</ele>
        <time>2021-10-08T17:46:33+02:00</time>
      </trkpt>
      <trkpt lat="44.46718" lon="1.79006">
        <ele>164</ele>
        <time>2021-10-08T17:46:33+02:00</time>
      </trkpt>
      <trkpt lat="44.46741" lon="1.79016">
        <ele>164</ele>
        <time>2021-10-08T17:46:33+02:00</time>
      </trkpt>
      <trkpt lat="44.46764" lon="1.79028">
        <ele>165</ele>
        <time>2021-10-08T17:46:33+02:00</time>
      </trkpt>
      <trkpt lat="44.46787" lon="1.79041">
        <ele>164</ele>
        <time>2021-10-08T17:46:33+02:00</time>
      </trkpt>
      <trkpt lat="44.46811" lon="1.79054">
        <ele>164</ele>
        <time>2021-10-08T17:46:33+02:00</time>
      </trkpt>
      <trkpt lat="44.46834" lon="1.79065">
        <ele>163</ele>
        <time>2021-10-08T17:46:33+02:00</time>
      </trkpt>
      <trkpt lat="44.46857" lon="1.79078">
        <ele>164</ele>
        <time>2021-10-08T17:46:33+02:00</time>
      </trkpt>
      <trkpt lat="44.46879" lon="1.79092">
        <ele>164</ele>
        <time>2021-10-08T17:46:33+02:00</time>
      </trkpt>
      <trkpt lat="44.46901" lon="1.79109">
        <ele>164</ele>
        <time>2021-10-08T17:46:33+02:00</time>
      </trkpt>
      <trkpt lat="44.46923" lon="1.79125">
        <ele>164</ele>
        <time>2021-10-08T17:46:33+02:00</time>
      </trkpt>
      <trkpt lat="44.46943" lon="1.79144">
        <ele>164</ele>
        <time>2021-10-08T17:46:33+02:00</time>
      </trkpt>
      <trkpt lat="44.46964" lon="1.7916">
        <ele>164</ele>
        <time>2021-10-08T17:46:33+02:00</time>
      </trkpt>
      <trkpt lat="44.46987" lon="1.79178">
        <ele>165</ele>
        <time>2021-10-08T17:46:33+02:00</time>
      </trkpt>
      <trkpt lat="44.47011" lon="1.79192">
        <ele>164</ele>
        <time>2021-10-08T17:46:33+02:00</time>
      </trkpt>
      <trkpt lat="44.47037" lon="1.79206">
        <ele>165</ele>
        <time>2021-10-08T17:46:33+02:00</time>
      </trkpt>
      <trkpt lat="44.47062" lon="1.79217">
        <ele>165</ele>
        <time>2021-10-08T17:46:33+02:00</time>
      </trkpt>
      <trkpt lat="44.47088" lon="1.79226">
        <ele>164</ele>
        <time>2021-10-08T17:46:33+02:00</time>
      </trkpt>
      <trkpt lat="44.47114" lon="1.79234">
        <ele>165</ele>
        <time>2021-10-08T17:46:33+02:00</time>
      </trkpt>
      <trkpt lat="44.47139" lon="1.79243">
        <ele>165</ele>
        <time>2021-10-08T17:46:33+02:00</time>
      </trkpt>
      <trkpt lat="44.47163" lon="1.79246">
        <ele>165</ele>
        <time>2021-10-08T17:46:33+02:00</time>
      </trkpt>
      <trkpt lat="44.47188" lon="1.79247">
        <ele>165</ele>
        <time>2021-10-08T17:46:33+02:00</time>
      </trkpt>
      <trkpt lat="44.47212" lon="1.79249">
        <ele>166</ele>
        <time>2021-10-08T17:46:33+02:00</time>
      </trkpt>
      <trkpt lat="44.47236" lon="1.79255">
        <ele>168</ele>
        <time>2021-10-08T17:46:33+02:00</time>
      </trkpt>
      <trkpt lat="44.47258" lon="1.79263">
        <ele>169</ele>
        <time>2021-10-08T17:46:33+02:00</time>
      </trkpt>
      <trkpt lat="44.47284" lon="1.79272">
        <ele>168</ele>
        <time>2021-10-08T17:46:33+02:00</time>
      </trkpt>
      <trkpt lat="44.47307" lon="1.79276">
        <ele>169</ele>
        <time>2021-10-08T17:46:33+02:00</time>
      </trkpt>
      <trkpt lat="44.47331" lon="1.79276">
        <ele>168</ele>
        <time>2021-10-08T17:46:33+02:00</time>
      </trkpt>
      <trkpt lat="44.47357" lon="1.79276">
        <ele>168</ele>
        <time>2021-10-08T17:46:33+02:00</time>
      </trkpt>
      <trkpt lat="44.47383" lon="1.79279">
        <ele>168</ele>
        <time>2021-10-08T17:46:33+02:00</time>
      </trkpt>
      <trkpt lat="44.47408" lon="1.79282">
        <ele>169</ele>
        <time>2021-10-08T17:46:33+02:00</time>
      </trkpt>
      <trkpt lat="44.47434" lon="1.79288">
        <ele>170</ele>
        <time>2021-10-08T17:46:33+02:00</time>
      </trkpt>
      <trkpt lat="44.47456" lon="1.79294">
        <ele>170</ele>
        <time>2021-10-08T17:46:33+02:00</time>
      </trkpt>
      <trkpt lat="44.4748" lon="1.79302">
        <ele>171</ele>
        <time>2021-10-08T17:46:33+02:00</time>
      </trkpt>
      <trkpt lat="44.47505" lon="1.7931">
        <ele>172</ele>
        <time>2021-10-08T17:46:33+02:00</time>
      </trkpt>
      <trkpt lat="44.4753" lon="1.79319">
        <ele>172</ele>
        <time>2021-10-08T17:46:33+02:00</time>
      </trkpt>
      <trkpt lat="44.47555" lon="1.79327">
        <ele>171</ele>
        <time>2021-10-08T17:46:33+02:00</time>
      </trkpt>
      <trkpt lat="44.4758" lon="1.79336">
        <ele>171</ele>
        <time>2021-10-08T17:46:33+02:00</time>
      </trkpt>
      <trkpt lat="44.47603" lon="1.79345">
        <ele>171</ele>
        <time>2021-10-08T17:46:33+02:00</time>
      </trkpt>
      <trkpt lat="44.47628" lon="1.79354">
        <ele>171</ele>
        <time>2021-10-08T17:46:33+02:00</time>
      </trkpt>
      <trkpt lat="44.47652" lon="1.79367">
        <ele>171</ele>
        <time>2021-10-08T17:46:33+02:00</time>
      </trkpt>
      <trkpt lat="44.47675" lon="1.79385">
        <ele>172</ele>
        <time>2021-10-08T17:46:33+02:00</time>
      </trkpt>
      <trkpt lat="44.47697" lon="1.79406">
        <ele>171</ele>
        <time>2021-10-08T17:46:33+02:00</time>
      </trkpt>
      <trkpt lat="44.47717" lon="1.79426">
        <ele>170</ele>
        <time>2021-10-08T17:46:33+02:00</time>
      </trkpt>
      <trkpt lat="44.47736" lon="1.79445">
        <ele>169</ele>
        <time>2021-10-08T17:46:33+02:00</time>
      </trkpt>
      <trkpt lat="44.47755" lon="1.79464">
        <ele>167</ele>
        <time>2021-10-08T17:46:33+02:00</time>
      </trkpt>
      <trkpt lat="44.47778" lon="1.79476">
        <ele>165</ele>
        <time>2021-10-08T17:46:33+02:00</time>
      </trkpt>
      <trkpt lat="44.47804" lon="1.79481">
        <ele>166</ele>
        <time>2021-10-08T17:46:33+02:00</time>
      </trkpt>
      <trkpt lat="44.47829" lon="1.79482">
        <ele>169</ele>
        <time>2021-10-08T17:46:33+02:00</time>
      </trkpt>
      <trkpt lat="44.47852" lon="1.79497">
        <ele>173</ele>
        <time>2021-10-08T17:46:33+02:00</time>
      </trkpt>
      <trkpt lat="44.47873" lon="1.79514">
        <ele>177</ele>
        <time>2021-10-08T17:46:33+02:00</time>
      </trkpt>
      <trkpt lat="44.4789" lon="1.79543">
        <ele>179</ele>
        <time>2021-10-08T17:46:33+02:00</time>
      </trkpt>
      <trkpt lat="44.47906" lon="1.79568">
        <ele>177</ele>
        <time>2021-10-08T17:46:33+02:00</time>
      </trkpt>
      <trkpt lat="44.4792" lon="1.79593">
        <ele>176</ele>
        <time>2021-10-08T17:46:33+02:00</time>
      </trkpt>
      <trkpt lat="44.47935" lon="1.7962">
        <ele>175</ele>
        <time>2021-10-08T17:46:33+02:00</time>
      </trkpt>
      <trkpt lat="44.47951" lon="1.79646">
        <ele>174</ele>
        <time>2021-10-08T17:46:33+02:00</time>
      </trkpt>
      <trkpt lat="44.47969" lon="1.79666">
        <ele>174</ele>
        <time>2021-10-08T17:46:33+02:00</time>
      </trkpt>
      <trkpt lat="44.47983" lon="1.79698">
        <ele>178</ele>
        <time>2021-10-08T17:46:33+02:00</time>
      </trkpt>
      <trkpt lat="44.47995" lon="1.79728">
        <ele>179</ele>
        <time>2021-10-08T17:46:33+02:00</time>
      </trkpt>
      <trkpt lat="44.48004" lon="1.79758">
        <ele>180</ele>
        <time>2021-10-08T17:46:33+02:00</time>
      </trkpt>
      <trkpt lat="44.4801" lon="1.79791">
        <ele>180</ele>
        <time>2021-10-08T17:46:33+02:00</time>
      </trkpt>
      <trkpt lat="44.48015" lon="1.79823">
        <ele>180</ele>
        <time>2021-10-08T17:46:33+02:00</time>
      </trkpt>
      <trkpt lat="44.48022" lon="1.79855">
        <ele>180</ele>
        <time>2021-10-08T17:46:33+02:00</time>
      </trkpt>
      <trkpt lat="44.4803" lon="1.79888">
        <ele>179</ele>
        <time>2021-10-08T17:46:33+02:00</time>
      </trkpt>
      <trkpt lat="44.48035" lon="1.79922">
        <ele>179</ele>
        <time>2021-10-08T17:46:33+02:00</time>
      </trkpt>
      <trkpt lat="44.48041" lon="1.79953">
        <ele>177</ele>
        <time>2021-10-08T17:46:33+02:00</time>
      </trkpt>
      <trkpt lat="44.48041" lon="1.79987">
        <ele>178</ele>
        <time>2021-10-08T17:46:33+02:00</time>
      </trkpt>
      <trkpt lat="44.48036" lon="1.80019">
        <ele>179</ele>
        <time>2021-10-08T17:46:33+02:00</time>
      </trkpt>
      <trkpt lat="44.4803" lon="1.80052">
        <ele>179</ele>
        <time>2021-10-08T17:46:33+02:00</time>
      </trkpt>
      <trkpt lat="44.48025" lon="1.80085">
        <ele>180</ele>
        <time>2021-10-08T17:46:33+02:00</time>
      </trkpt>
      <trkpt lat="44.48018" lon="1.80118">
        <ele>182</ele>
        <time>2021-10-08T17:46:33+02:00</time>
      </trkpt>
      <trkpt lat="44.48008" lon="1.80148">
        <ele>181</ele>
        <time>2021-10-08T17:46:33+02:00</time>
      </trkpt>
      <trkpt lat="44.47996" lon="1.80179">
        <ele>181</ele>
        <time>2021-10-08T17:46:33+02:00</time>
      </trkpt>
      <trkpt lat="44.47982" lon="1.80211">
        <ele>181</ele>
        <time>2021-10-08T17:46:33+02:00</time>
      </trkpt>
      <trkpt lat="44.47967" lon="1.80242">
        <ele>180</ele>
        <time>2021-10-08T17:46:33+02:00</time>
      </trkpt>
      <trkpt lat="44.47955" lon="1.80274">
        <ele>181</ele>
        <time>2021-10-08T17:46:33+02:00</time>
      </trkpt>
      <trkpt lat="44.47943" lon="1.80307">
        <ele>181</ele>
        <time>2021-10-08T17:46:33+02:00</time>
      </trkpt>
      <trkpt lat="44.47928" lon="1.8034">
        <ele>181</ele>
        <time>2021-10-08T17:46:33+02:00</time>
      </trkpt>
      <trkpt lat="44.47915" lon="1.80372">
        <ele>181</ele>
        <time>2021-10-08T17:46:33+02:00</time>
      </trkpt>
      <trkpt lat="44.47903" lon="1.80405">
        <ele>181</ele>
        <time>2021-10-08T17:46:33+02:00</time>
      </trkpt>
      <trkpt lat="44.4789" lon="1.80431">
        <ele>180</ele>
        <time>2021-10-08T17:46:33+02:00</time>
      </trkpt>
      <trkpt lat="44.47875" lon="1.80455">
        <ele>180</ele>
        <time>2021-10-08T17:46:33+02:00</time>
      </trkpt>
      <trkpt lat="44.47859" lon="1.80477">
        <ele>180</ele>
        <time>2021-10-08T17:46:33+02:00</time>
      </trkpt>
      <trkpt lat="44.47839" lon="1.80503">
        <ele>180</ele>
        <time>2021-10-08T17:46:33+02:00</time>
      </trkpt>
      <trkpt lat="44.47821" lon="1.8053">
        <ele>179</ele>
        <time>2021-10-08T17:46:33+02:00</time>
      </trkpt>
      <trkpt lat="44.47801" lon="1.80557">
        <ele>179</ele>
        <time>2021-10-08T17:46:33+02:00</time>
      </trkpt>
      <trkpt lat="44.47784" lon="1.80579">
        <ele>178</ele>
        <time>2021-10-08T17:46:33+02:00</time>
      </trkpt>
      <trkpt lat="44.47768" lon="1.80606">
        <ele>181</ele>
        <time>2021-10-08T17:46:33+02:00</time>
      </trkpt>
      <trkpt lat="44.47749" lon="1.80631">
        <ele>181</ele>
        <time>2021-10-08T17:46:33+02:00</time>
      </trkpt>
      <trkpt lat="44.47729" lon="1.80657">
        <ele>181</ele>
        <time>2021-10-08T17:46:33+02:00</time>
      </trkpt>
      <trkpt lat="44.47711" lon="1.80683">
        <ele>181</ele>
        <time>2021-10-08T17:46:33+02:00</time>
      </trkpt>
      <trkpt lat="44.47696" lon="1.80711">
        <ele>180</ele>
        <time>2021-10-08T17:46:33+02:00</time>
      </trkpt>
      <trkpt lat="44.47686" lon="1.80743">
        <ele>180</ele>
        <time>2021-10-08T17:46:33+02:00</time>
      </trkpt>
      <trkpt lat="44.47677" lon="1.80776">
        <ele>181</ele>
        <time>2021-10-08T17:46:33+02:00</time>
      </trkpt>
      <trkpt lat="44.47668" lon="1.80809">
        <ele>180</ele>
        <time>2021-10-08T17:46:33+02:00</time>
      </trkpt>
      <trkpt lat="44.47664" lon="1.80841">
        <ele>180</ele>
        <time>2021-10-08T17:46:33+02:00</time>
      </trkpt>
      <trkpt lat="44.47658" lon="1.80878">
        <ele>180</ele>
        <time>2021-10-08T17:46:33+02:00</time>
      </trkpt>
      <trkpt lat="44.47657" lon="1.80913">
        <ele>181</ele>
        <time>2021-10-08T17:46:33+02:00</time>
      </trkpt>
      <trkpt lat="44.47654" lon="1.8095">
        <ele>181</ele>
        <time>2021-10-08T17:46:33+02:00</time>
      </trkpt>
      <trkpt lat="44.47653" lon="1.80981">
        <ele>181</ele>
        <time>2021-10-08T17:46:33+02:00</time>
      </trkpt>
      <trkpt lat="44.47649" lon="1.81015">
        <ele>182</ele>
        <time>2021-10-08T17:46:33+02:00</time>
      </trkpt>
      <trkpt lat="44.47652" lon="1.81052">
        <ele>182</ele>
        <time>2021-10-08T17:46:33+02:00</time>
      </trkpt>
      <trkpt lat="44.47656" lon="1.81086">
        <ele>181</ele>
        <time>2021-10-08T17:46:33+02:00</time>
      </trkpt>
      <trkpt lat="44.47665" lon="1.81118">
        <ele>181</ele>
        <time>2021-10-08T17:46:33+02:00</time>
      </trkpt>
      <trkpt lat="44.47676" lon="1.81152">
        <ele>183</ele>
        <time>2021-10-08T17:46:33+02:00</time>
      </trkpt>
      <trkpt lat="44.47685" lon="1.81184">
        <ele>182</ele>
        <time>2021-10-08T17:46:33+02:00</time>
      </trkpt>
      <trkpt lat="44.47689" lon="1.81216">
        <ele>182</ele>
        <time>2021-10-08T17:46:33+02:00</time>
      </trkpt>
      <trkpt lat="44.47693" lon="1.81251">
        <ele>181</ele>
        <time>2021-10-08T17:46:33+02:00</time>
      </trkpt>
      <trkpt lat="44.47688" lon="1.81287">
        <ele>178</ele>
        <time>2021-10-08T17:46:33+02:00</time>
      </trkpt>
      <trkpt lat="44.47668" lon="1.81312">
        <ele>177</ele>
        <time>2021-10-08T17:46:33+02:00</time>
      </trkpt>
      <trkpt lat="44.47644" lon="1.81331">
        <ele>176</ele>
        <time>2021-10-08T17:46:33+02:00</time>
      </trkpt>
      <trkpt lat="44.47622" lon="1.81346">
        <ele>175</ele>
        <time>2021-10-08T17:46:33+02:00</time>
      </trkpt>
      <trkpt lat="44.47597" lon="1.81357">
        <ele>177</ele>
        <time>2021-10-08T17:46:33+02:00</time>
      </trkpt>
      <trkpt lat="44.47571" lon="1.81355">
        <ele>178</ele>
        <time>2021-10-08T17:46:33+02:00</time>
      </trkpt>
      <trkpt lat="44.47546" lon="1.81356">
        <ele>178</ele>
        <time>2021-10-08T17:46:33+02:00</time>
      </trkpt>
      <trkpt lat="44.47524" lon="1.81373">
        <ele>180</ele>
        <time>2021-10-08T17:46:33+02:00</time>
      </trkpt>
      <trkpt lat="44.47507" lon="1.814">
        <ele>180</ele>
        <time>2021-10-08T17:46:33+02:00</time>
      </trkpt>
      <trkpt lat="44.47494" lon="1.8143">
        <ele>180</ele>
        <time>2021-10-08T17:46:33+02:00</time>
      </trkpt>
      <trkpt lat="44.47483" lon="1.81462">
        <ele>182</ele>
        <time>2021-10-08T17:46:33+02:00</time>
      </trkpt>
      <trkpt lat="44.47477" lon="1.81494">
        <ele>180</ele>
        <time>2021-10-08T17:46:33+02:00</time>
      </trkpt>
      <trkpt lat="44.47476" lon="1.81529">
        <ele>180</ele>
        <time>2021-10-08T17:46:33+02:00</time>
      </trkpt>
      <trkpt lat="44.47478" lon="1.81565">
        <ele>178</ele>
        <time>2021-10-08T17:46:33+02:00</time>
      </trkpt>
      <trkpt lat="44.47483" lon="1.816">
        <ele>176</ele>
        <time>2021-10-08T17:46:33+02:00</time>
      </trkpt>
      <trkpt lat="44.47491" lon="1.81632">
        <ele>174</ele>
        <time>2021-10-08T17:46:33+02:00</time>
      </trkpt>
      <trkpt lat="44.47504" lon="1.8166">
        <ele>172</ele>
        <time>2021-10-08T17:46:33+02:00</time>
      </trkpt>
      <trkpt lat="44.47525" lon="1.81682">
        <ele>171</ele>
        <time>2021-10-08T17:46:33+02:00</time>
      </trkpt>
      <trkpt lat="44.47549" lon="1.81696">
        <ele>173</ele>
        <time>2021-10-08T17:46:33+02:00</time>
      </trkpt>
      <trkpt lat="44.47565" lon="1.81724">
        <ele>175</ele>
        <time>2021-10-08T17:46:33+02:00</time>
      </trkpt>
      <trkpt lat="44.47581" lon="1.81751">
        <ele>177</ele>
        <time>2021-10-08T17:46:33+02:00</time>
      </trkpt>
      <trkpt lat="44.47602" lon="1.81774">
        <ele>178</ele>
        <time>2021-10-08T17:46:33+02:00</time>
      </trkpt>
      <trkpt lat="44.47619" lon="1.81802">
        <ele>180</ele>
        <time>2021-10-08T17:46:33+02:00</time>
      </trkpt>
      <trkpt lat="44.47629" lon="1.81838">
        <ele>181</ele>
        <time>2021-10-08T17:46:33+02:00</time>
      </trkpt>
      <trkpt lat="44.47644" lon="1.81869">
        <ele>180</ele>
        <time>2021-10-08T17:46:33+02:00</time>
      </trkpt>
      <trkpt lat="44.47659" lon="1.81901">
        <ele>180</ele>
        <time>2021-10-08T17:46:33+02:00</time>
      </trkpt>
      <trkpt lat="44.47672" lon="1.81926">
        <ele>178</ele>
        <time>2021-10-08T17:46:33+02:00</time>
      </trkpt>
      <trkpt lat="44.47686" lon="1.81958">
        <ele>180</ele>
        <time>2021-10-08T17:46:33+02:00</time>
      </trkpt>
      <trkpt lat="44.47701" lon="1.81988">
        <ele>180</ele>
        <time>2021-10-08T17:46:33+02:00</time>
      </trkpt>
      <trkpt lat="44.47716" lon="1.82018">
        <ele>181</ele>
        <time>2021-10-08T17:46:33+02:00</time>
      </trkpt>
      <trkpt lat="44.47728" lon="1.82052">
        <ele>183</ele>
        <time>2021-10-08T17:46:33+02:00</time>
      </trkpt>
      <trkpt lat="44.47736" lon="1.82089">
        <ele>183</ele>
        <time>2021-10-08T17:46:33+02:00</time>
      </trkpt>
      <trkpt lat="44.47742" lon="1.82125">
        <ele>182</ele>
        <time>2021-10-08T17:46:33+02:00</time>
      </trkpt>
      <trkpt lat="44.47748" lon="1.82156">
        <ele>180</ele>
        <time>2021-10-08T17:46:33+02:00</time>
      </trkpt>
      <trkpt lat="44.47754" lon="1.82193">
        <ele>180</ele>
        <time>2021-10-08T17:46:33+02:00</time>
      </trkpt>
      <trkpt lat="44.47759" lon="1.82231">
        <ele>180</ele>
        <time>2021-10-08T17:46:33+02:00</time>
      </trkpt>
      <trkpt lat="44.47764" lon="1.82267">
        <ele>181</ele>
        <time>2021-10-08T17:46:33+02:00</time>
      </trkpt>
      <trkpt lat="44.47771" lon="1.82303">
        <ele>181</ele>
        <time>2021-10-08T17:46:33+02:00</time>
      </trkpt>
      <trkpt lat="44.47776" lon="1.8234">
        <ele>181</ele>
        <time>2021-10-08T17:46:33+02:00</time>
      </trkpt>
      <trkpt lat="44.47782" lon="1.82377">
        <ele>182</ele>
        <time>2021-10-08T17:46:33+02:00</time>
      </trkpt>
      <trkpt lat="44.47786" lon="1.82413">
        <ele>183</ele>
        <time>2021-10-08T17:46:33+02:00</time>
      </trkpt>
      <trkpt lat="44.47791" lon="1.82444">
        <ele>182</ele>
        <time>2021-10-08T17:46:33+02:00</time>
      </trkpt>
      <trkpt lat="44.47792" lon="1.82476">
        <ele>183</ele>
        <time>2021-10-08T17:46:33+02:00</time>
      </trkpt>
      <trkpt lat="44.47795" lon="1.82514">
        <ele>183</ele>
        <time>2021-10-08T17:46:33+02:00</time>
      </trkpt>
      <trkpt lat="44.47801" lon="1.8255">
        <ele>183</ele>
        <time>2021-10-08T17:46:33+02:00</time>
      </trkpt>
      <trkpt lat="44.47803" lon="1.82588">
        <ele>184</ele>
        <time>2021-10-08T17:46:33+02:00</time>
      </trkpt>
      <trkpt lat="44.47804" lon="1.82626">
        <ele>182</ele>
        <time>2021-10-08T17:46:33+02:00</time>
      </trkpt>
      <trkpt lat="44.47809" lon="1.82663">
        <ele>182</ele>
        <time>2021-10-08T17:46:33+02:00</time>
      </trkpt>
      <trkpt lat="44.47813" lon="1.82699">
        <ele>184</ele>
        <time>2021-10-08T17:46:33+02:00</time>
      </trkpt>
      <trkpt lat="44.47815" lon="1.8273">
        <ele>184</ele>
        <time>2021-10-08T17:46:33+02:00</time>
      </trkpt>
      <trkpt lat="44.47814" lon="1.82768">
        <ele>184</ele>
        <time>2021-10-08T17:46:33+02:00</time>
      </trkpt>
      <trkpt lat="44.47815" lon="1.82806">
        <ele>182</ele>
        <time>2021-10-08T17:46:33+02:00</time>
      </trkpt>
      <trkpt lat="44.47816" lon="1.82844">
        <ele>182</ele>
        <time>2021-10-08T17:46:33+02:00</time>
      </trkpt>
      <trkpt lat="44.47815" lon="1.82881">
        <ele>183</ele>
        <time>2021-10-08T17:46:33+02:00</time>
      </trkpt>
      <trkpt lat="44.47809" lon="1.82919">
        <ele>181</ele>
        <time>2021-10-08T17:46:33+02:00</time>
      </trkpt>
      <trkpt lat="44.47806" lon="1.82957">
        <ele>181</ele>
        <time>2021-10-08T17:46:33+02:00</time>
      </trkpt>
      <trkpt lat="44.47803" lon="1.82994">
        <ele>182</ele>
        <time>2021-10-08T17:46:33+02:00</time>
      </trkpt>
      <trkpt lat="44.478" lon="1.83031">
        <ele>183</ele>
        <time>2021-10-08T17:46:33+02:00</time>
      </trkpt>
      <trkpt lat="44.47798" lon="1.83069">
        <ele>182</ele>
        <time>2021-10-08T17:46:33+02:00</time>
      </trkpt>
      <trkpt lat="44.47794" lon="1.83106">
        <ele>180</ele>
        <time>2021-10-08T17:46:33+02:00</time>
      </trkpt>
      <trkpt lat="44.47792" lon="1.83142">
        <ele>179</ele>
        <time>2021-10-08T17:46:33+02:00</time>
      </trkpt>
      <trkpt lat="44.47788" lon="1.83178">
        <ele>179</ele>
        <time>2021-10-08T17:46:33+02:00</time>
      </trkpt>
      <trkpt lat="44.47782" lon="1.83214">
        <ele>178</ele>
        <time>2021-10-08T17:46:33+02:00</time>
      </trkpt>
      <trkpt lat="44.47772" lon="1.83246">
        <ele>179</ele>
        <time>2021-10-08T17:46:33+02:00</time>
      </trkpt>
      <trkpt lat="44.47755" lon="1.83272">
        <ele>179</ele>
        <time>2021-10-08T17:46:33+02:00</time>
      </trkpt>
      <trkpt lat="44.47731" lon="1.83285">
        <ele>178</ele>
        <time>2021-10-08T17:46:33+02:00</time>
      </trkpt>
      <trkpt lat="44.47706" lon="1.83287">
        <ele>178</ele>
        <time>2021-10-08T17:46:33+02:00</time>
      </trkpt>
      <trkpt lat="44.47681" lon="1.83286">
        <ele>177</ele>
        <time>2021-10-08T17:46:33+02:00</time>
      </trkpt>
      <trkpt lat="44.47658" lon="1.83286">
        <ele>177</ele>
        <time>2021-10-08T17:46:33+02:00</time>
      </trkpt>
      <trkpt lat="44.47635" lon="1.83287">
        <ele>175</ele>
        <time>2021-10-08T17:46:33+02:00</time>
      </trkpt>
      <trkpt lat="44.47609" lon="1.83297">
        <ele>174</ele>
        <time>2021-10-08T17:46:33+02:00</time>
      </trkpt>
      <trkpt lat="44.4759" lon="1.83318">
        <ele>173</ele>
        <time>2021-10-08T17:46:33+02:00</time>
      </trkpt>
      <trkpt lat="44.47571" lon="1.83339">
        <ele>174</ele>
        <time>2021-10-08T17:46:33+02:00</time>
      </trkpt>
      <trkpt lat="44.47552" lon="1.83359">
        <ele>174</ele>
        <time>2021-10-08T17:46:33+02:00</time>
      </trkpt>
      <trkpt lat="44.47536" lon="1.83389">
        <ele>176</ele>
        <time>2021-10-08T17:46:33+02:00</time>
      </trkpt>
      <trkpt lat="44.47533" lon="1.83425">
        <ele>180</ele>
        <time>2021-10-08T17:46:33+02:00</time>
      </trkpt>
      <trkpt lat="44.47546" lon="1.83457">
        <ele>182</ele>
        <time>2021-10-08T17:46:33+02:00</time>
      </trkpt>
      <trkpt lat="44.4756" lon="1.83484">
        <ele>182</ele>
        <time>2021-10-08T17:46:33+02:00</time>
      </trkpt>
      <trkpt lat="44.47574" lon="1.83508">
        <ele>182</ele>
        <time>2021-10-08T17:46:33+02:00</time>
      </trkpt>
      <trkpt lat="44.47581" lon="1.83539">
        <ele>181</ele>
        <time>2021-10-08T17:46:33+02:00</time>
      </trkpt>
      <trkpt lat="44.47588" lon="1.8357">
        <ele>179</ele>
        <time>2021-10-08T17:46:33+02:00</time>
      </trkpt>
      <trkpt lat="44.47609" lon="1.83586">
        <ele>179</ele>
        <time>2021-10-08T17:46:33+02:00</time>
      </trkpt>
      <trkpt lat="44.4763" lon="1.83601">
        <ele>179</ele>
        <time>2021-10-08T17:46:33+02:00</time>
      </trkpt>
      <trkpt lat="44.4765" lon="1.83616">
        <ele>179</ele>
        <time>2021-10-08T17:46:33+02:00</time>
      </trkpt>
      <trkpt lat="44.47673" lon="1.83634">
        <ele>176</ele>
        <time>2021-10-08T17:46:33+02:00</time>
      </trkpt>
      <trkpt lat="44.47695" lon="1.83645">
        <ele>174</ele>
        <time>2021-10-08T17:46:33+02:00</time>
      </trkpt>
      <trkpt lat="44.47718" lon="1.83644">
        <ele>171</ele>
        <time>2021-10-08T17:46:33+02:00</time>
      </trkpt>
      <trkpt lat="44.47744" lon="1.83642">
        <ele>169</ele>
        <time>2021-10-08T17:46:33+02:00</time>
      </trkpt>
      <trkpt lat="44.4777" lon="1.83634">
        <ele>169</ele>
        <time>2021-10-08T17:46:33+02:00</time>
      </trkpt>
      <trkpt lat="44.47797" lon="1.83623">
        <ele>169</ele>
        <time>2021-10-08T17:46:33+02:00</time>
      </trkpt>
      <trkpt lat="44.47826" lon="1.83619">
        <ele>170</ele>
        <time>2021-10-08T17:46:33+02:00</time>
      </trkpt>
      <trkpt lat="44.47853" lon="1.83619">
        <ele>172</ele>
        <time>2021-10-08T17:46:33+02:00</time>
      </trkpt>
      <trkpt lat="44.47879" lon="1.83622">
        <ele>172</ele>
        <time>2021-10-08T17:46:33+02:00</time>
      </trkpt>
      <trkpt lat="44.47906" lon="1.83626">
        <ele>173</ele>
        <time>2021-10-08T17:46:33+02:00</time>
      </trkpt>
      <trkpt lat="44.47936" lon="1.83632">
        <ele>173</ele>
        <time>2021-10-08T17:46:33+02:00</time>
      </trkpt>
      <trkpt lat="44.47964" lon="1.83641">
        <ele>172</ele>
        <time>2021-10-08T17:46:33+02:00</time>
      </trkpt>
      <trkpt lat="44.47992" lon="1.83651">
        <ele>172</ele>
        <time>2021-10-08T17:46:33+02:00</time>
      </trkpt>
      <trkpt lat="44.48015" lon="1.83659">
        <ele>171</ele>
        <time>2021-10-08T17:46:33+02:00</time>
      </trkpt>
      <trkpt lat="44.48038" lon="1.83668">
        <ele>168</ele>
        <time>2021-10-08T17:46:33+02:00</time>
      </trkpt>
      <trkpt lat="44.48062" lon="1.83677">
        <ele>166</ele>
        <time>2021-10-08T17:46:33+02:00</time>
      </trkpt>
      <trkpt lat="44.48086" lon="1.83685">
        <ele>164</ele>
        <time>2021-10-08T17:46:33+02:00</time>
      </trkpt>
      <trkpt lat="44.48109" lon="1.83693">
        <ele>163</ele>
        <time>2021-10-08T17:46:33+02:00</time>
      </trkpt>
      <trkpt lat="44.48133" lon="1.83698">
        <ele>162</ele>
        <time>2021-10-08T17:46:33+02:00</time>
      </trkpt>
      <trkpt lat="44.48157" lon="1.83703">
        <ele>162</ele>
        <time>2021-10-08T17:46:33+02:00</time>
      </trkpt>
      <trkpt lat="44.48181" lon="1.83712">
        <ele>162</ele>
        <time>2021-10-08T17:46:33+02:00</time>
      </trkpt>
      <trkpt lat="44.48204" lon="1.83717">
        <ele>161</ele>
        <time>2021-10-08T17:46:33+02:00</time>
      </trkpt>
      <trkpt lat="44.48228" lon="1.83721">
        <ele>161</ele>
        <time>2021-10-08T17:46:33+02:00</time>
      </trkpt>
      <trkpt lat="44.4825" lon="1.83729">
        <ele>161</ele>
        <time>2021-10-08T17:46:33+02:00</time>
      </trkpt>
      <trkpt lat="44.48272" lon="1.83739">
        <ele>161</ele>
        <time>2021-10-08T17:46:33+02:00</time>
      </trkpt>
      <trkpt lat="44.48299" lon="1.83752">
        <ele>162</ele>
        <time>2021-10-08T17:46:33+02:00</time>
      </trkpt>
      <trkpt lat="44.48324" lon="1.83765">
        <ele>162</ele>
        <time>2021-10-08T17:46:33+02:00</time>
      </trkpt>
      <trkpt lat="44.48346" lon="1.83774">
        <ele>162</ele>
        <time>2021-10-08T17:46:33+02:00</time>
      </trkpt>
      <trkpt lat="44.48368" lon="1.83783">
        <ele>162</ele>
        <time>2021-10-08T17:46:33+02:00</time>
      </trkpt>
      <trkpt lat="44.48389" lon="1.83796">
        <ele>162</ele>
        <time>2021-10-08T17:46:33+02:00</time>
      </trkpt>
      <trkpt lat="44.48411" lon="1.83806">
        <ele>160</ele>
        <time>2021-10-08T17:46:33+02:00</time>
      </trkpt>
      <trkpt lat="44.48433" lon="1.83815">
        <ele>160</ele>
        <time>2021-10-08T17:46:33+02:00</time>
      </trkpt>
      <trkpt lat="44.4846" lon="1.83824">
        <ele>161</ele>
        <time>2021-10-08T17:46:33+02:00</time>
      </trkpt>
      <trkpt lat="44.48483" lon="1.8383">
        <ele>159</ele>
        <time>2021-10-08T17:46:33+02:00</time>
      </trkpt>
      <trkpt lat="44.4851" lon="1.83839">
        <ele>161</ele>
        <time>2021-10-08T17:46:33+02:00</time>
      </trkpt>
      <trkpt lat="44.48533" lon="1.8385">
        <ele>159</ele>
        <time>2021-10-08T17:46:33+02:00</time>
      </trkpt>
      <trkpt lat="44.48556" lon="1.83865">
        <ele>158</ele>
        <time>2021-10-08T17:46:33+02:00</time>
      </trkpt>
      <trkpt lat="44.48575" lon="1.83888">
        <ele>157</ele>
        <time>2021-10-08T17:46:33+02:00</time>
      </trkpt>
      <trkpt lat="44.48585" lon="1.83926">
        <ele>155</ele>
        <time>2021-10-08T17:46:33+02:00</time>
      </trkpt>
      <trkpt lat="44.48584" lon="1.8396">
        <ele>153</ele>
        <time>2021-10-08T17:46:33+02:00</time>
      </trkpt>
      <trkpt lat="44.48583" lon="1.83994">
        <ele>151</ele>
        <time>2021-10-08T17:46:33+02:00</time>
      </trkpt>
      <trkpt lat="44.48583" lon="1.84028">
        <ele>152</ele>
        <time>2021-10-08T17:46:33+02:00</time>
      </trkpt>
      <trkpt lat="44.48583" lon="1.84063">
        <ele>151</ele>
        <time>2021-10-08T17:46:33+02:00</time>
      </trkpt>
      <trkpt lat="44.48582" lon="1.84095">
        <ele>152</ele>
        <time>2021-10-08T17:46:33+02:00</time>
      </trkpt>
      <trkpt lat="44.48581" lon="1.8413">
        <ele>150</ele>
        <time>2021-10-08T17:46:33+02:00</time>
      </trkpt>
      <trkpt lat="44.48577" lon="1.84162">
        <ele>151</ele>
        <time>2021-10-08T17:46:33+02:00</time>
      </trkpt>
      <trkpt lat="44.48553" lon="1.84163">
        <ele>151</ele>
        <time>2021-10-08T17:46:33+02:00</time>
      </trkpt>
      <trkpt lat="44.48529" lon="1.84164">
        <ele>152</ele>
        <time>2021-10-08T17:46:33+02:00</time>
      </trkpt>
      <trkpt lat="44.48509" lon="1.84178">
        <ele>151</ele>
        <time>2021-10-08T17:46:33+02:00</time>
      </trkpt>
      <trkpt lat="44.48492" lon="1.842">
        <ele>150</ele>
        <time>2021-10-08T17:46:33+02:00</time>
      </trkpt>
      <trkpt lat="44.48477" lon="1.84227">
        <ele>151</ele>
        <time>2021-10-08T17:46:33+02:00</time>
      </trkpt>
      <trkpt lat="44.48473" lon="1.84262">
        <ele>151</ele>
        <time>2021-10-08T17:46:33+02:00</time>
      </trkpt>
      <trkpt lat="44.48477" lon="1.84294">
        <ele>150</ele>
        <time>2021-10-08T17:46:33+02:00</time>
      </trkpt>
      <trkpt lat="44.48453" lon="1.84308">
        <ele>150</ele>
        <time>2021-10-08T17:46:33+02:00</time>
      </trkpt>
      <trkpt lat="44.48427" lon="1.84314">
        <ele>150</ele>
        <time>2021-10-08T17:46:33+02:00</time>
      </trkpt>
      <trkpt lat="44.48406" lon="1.84328">
        <ele>151</ele>
        <time>2021-10-08T17:46:33+02:00</time>
      </trkpt>
      <trkpt lat="44.48384" lon="1.84339">
        <ele>150</ele>
        <time>2021-10-08T17:46:33+02:00</time>
      </trkpt>
      <trkpt lat="44.48362" lon="1.84352">
        <ele>149</ele>
        <time>2021-10-08T17:46:33+02:00</time>
      </trkpt>
      <trkpt lat="44.48341" lon="1.84365">
        <ele>148</ele>
        <time>2021-10-08T17:46:33+02:00</time>
      </trkpt>
      <trkpt lat="44.48345" lon="1.84397">
        <ele>148</ele>
        <time>2021-10-08T17:46:33+02:00</time>
      </trkpt>
      <trkpt lat="44.48354" lon="1.84428">
        <ele>148</ele>
        <time>2021-10-08T17:46:33+02:00</time>
      </trkpt>
      <trkpt lat="44.48357" lon="1.84464">
        <ele>147</ele>
        <time>2021-10-08T17:46:33+02:00</time>
      </trkpt>
      <trkpt lat="44.48364" lon="1.84495">
        <ele>148</ele>
        <time>2021-10-08T17:46:33+02:00</time>
      </trkpt>
      <trkpt lat="44.48374" lon="1.84527">
        <ele>148</ele>
        <time>2021-10-08T17:46:33+02:00</time>
      </trkpt>
      <trkpt lat="44.48384" lon="1.84556">
        <ele>147</ele>
        <time>2021-10-08T17:46:33+02:00</time>
      </trkpt>
      <trkpt lat="44.48392" lon="1.84586">
        <ele>148</ele>
        <time>2021-10-08T17:46:33+02:00</time>
      </trkpt>
      <trkpt lat="44.48402" lon="1.84621">
        <ele>148</ele>
        <time>2021-10-08T17:46:33+02:00</time>
      </trkpt>
      <trkpt lat="44.48411" lon="1.84655">
        <ele>149</ele>
        <time>2021-10-08T17:46:33+02:00</time>
      </trkpt>
      <trkpt lat="44.4842" lon="1.84688">
        <ele>149</ele>
        <time>2021-10-08T17:46:33+02:00</time>
      </trkpt>
      <trkpt lat="44.48427" lon="1.84718">
        <ele>149</ele>
        <time>2021-10-08T17:46:33+02:00</time>
      </trkpt>
      <trkpt lat="44.48437" lon="1.84749">
        <ele>149</ele>
        <time>2021-10-08T17:46:33+02:00</time>
      </trkpt>
      <trkpt lat="44.48446" lon="1.84782">
        <ele>149</ele>
        <time>2021-10-08T17:46:33+02:00</time>
      </trkpt>
      <trkpt lat="44.48454" lon="1.84814">
        <ele>149</ele>
        <time>2021-10-08T17:46:33+02:00</time>
      </trkpt>
      <trkpt lat="44.48464" lon="1.84845">
        <ele>150</ele>
        <time>2021-10-08T17:46:33+02:00</time>
      </trkpt>
      <trkpt lat="44.4847" lon="1.84878">
        <ele>150</ele>
        <time>2021-10-08T17:46:33+02:00</time>
      </trkpt>
      <trkpt lat="44.48479" lon="1.84913">
        <ele>149</ele>
        <time>2021-10-08T17:46:33+02:00</time>
      </trkpt>
      <trkpt lat="44.48488" lon="1.84945">
        <ele>149</ele>
        <time>2021-10-08T17:46:33+02:00</time>
      </trkpt>
      <trkpt lat="44.48498" lon="1.84977">
        <ele>150</ele>
        <time>2021-10-08T17:46:33+02:00</time>
      </trkpt>
      <trkpt lat="44.48515" lon="1.84998">
        <ele>150</ele>
        <time>2021-10-08T17:46:33+02:00</time>
      </trkpt>
      <trkpt lat="44.4854" lon="1.84995">
        <ele>150</ele>
        <time>2021-10-08T17:46:33+02:00</time>
      </trkpt>
      <trkpt lat="44.48562" lon="1.84987">
        <ele>152</ele>
        <time>2021-10-08T17:46:33+02:00</time>
      </trkpt>
      <trkpt lat="44.48585" lon="1.84981">
        <ele>153</ele>
        <time>2021-10-08T17:46:33+02:00</time>
      </trkpt>
      <trkpt lat="44.48585" lon="1.84946">
        <ele>152</ele>
        <time>2021-10-08T17:46:33+02:00</time>
      </trkpt>
      <trkpt lat="44.48584" lon="1.84913">
        <ele>152</ele>
        <time>2021-10-08T17:46:33+02:00</time>
      </trkpt>
      <trkpt lat="44.48583" lon="1.84876">
        <ele>152</ele>
        <time>2021-10-08T17:46:33+02:00</time>
      </trkpt>
      <trkpt lat="44.48583" lon="1.84841">
        <ele>153</ele>
        <time>2021-10-08T17:46:33+02:00</time>
      </trkpt>
      <trkpt lat="44.48587" lon="1.84806">
        <ele>153</ele>
        <time>2021-10-08T17:46:33+02:00</time>
      </trkpt>
      <trkpt lat="44.48614" lon="1.84801">
        <ele>151</ele>
        <time>2021-10-08T17:46:33+02:00</time>
      </trkpt>
      <trkpt lat="44.48642" lon="1.84798">
        <ele>151</ele>
        <time>2021-10-08T17:46:33+02:00</time>
      </trkpt>
      <trkpt lat="44.48667" lon="1.84795">
        <ele>151</ele>
        <time>2021-10-08T17:46:33+02:00</time>
      </trkpt>
      <trkpt lat="44.4869" lon="1.84793">
        <ele>152</ele>
        <time>2021-10-08T17:46:33+02:00</time>
      </trkpt>
      <trkpt lat="44.48713" lon="1.84791">
        <ele>152</ele>
        <time>2021-10-08T17:46:33+02:00</time>
      </trkpt>
      <trkpt lat="44.48738" lon="1.84797">
        <ele>153</ele>
        <time>2021-10-08T17:46:33+02:00</time>
      </trkpt>
      <trkpt lat="44.48746" lon="1.84828">
        <ele>154</ele>
        <time>2021-10-08T17:46:33+02:00</time>
      </trkpt>
      <trkpt lat="44.48761" lon="1.84853">
        <ele>156</ele>
        <time>2021-10-08T17:46:33+02:00</time>
      </trkpt>
      <trkpt lat="44.48768" lon="1.84884">
        <ele>160</ele>
        <time>2021-10-08T17:46:33+02:00</time>
      </trkpt>
      <trkpt lat="44.48771" lon="1.84916">
        <ele>165</ele>
        <time>2021-10-08T17:46:33+02:00</time>
      </trkpt>
      <trkpt lat="44.48779" lon="1.84946">
        <ele>169</ele>
        <time>2021-10-08T17:46:33+02:00</time>
      </trkpt>
      <trkpt lat="44.4878" lon="1.84978">
        <ele>172</ele>
        <time>2021-10-08T17:46:33+02:00</time>
      </trkpt>
      <trkpt lat="44.4878" lon="1.8501">
        <ele>175</ele>
        <time>2021-10-08T17:46:33+02:00</time>
      </trkpt>
      <trkpt lat="44.48785" lon="1.85043">
        <ele>177</ele>
        <time>2021-10-08T17:46:33+02:00</time>
      </trkpt>
      <trkpt lat="44.4879" lon="1.85074">
        <ele>178</ele>
        <time>2021-10-08T17:46:33+02:00</time>
      </trkpt>
      <trkpt lat="44.48814" lon="1.85066">
        <ele>178</ele>
        <time>2021-10-08T17:46:33+02:00</time>
      </trkpt>
      <trkpt lat="44.48837" lon="1.85052">
        <ele>177</ele>
        <time>2021-10-08T17:46:33+02:00</time>
      </trkpt>
      <trkpt lat="44.4886" lon="1.85034">
        <ele>176</ele>
        <time>2021-10-08T17:46:33+02:00</time>
      </trkpt>
      <trkpt lat="44.48882" lon="1.85017">
        <ele>174</ele>
        <time>2021-10-08T17:46:33+02:00</time>
      </trkpt>
      <trkpt lat="44.48901" lon="1.84998">
        <ele>173</ele>
        <time>2021-10-08T17:46:33+02:00</time>
      </trkpt>
      <trkpt lat="44.4892" lon="1.84974">
        <ele>171</ele>
        <time>2021-10-08T17:46:33+02:00</time>
      </trkpt>
      <trkpt lat="44.48944" lon="1.84964">
        <ele>169</ele>
        <time>2021-10-08T17:46:33+02:00</time>
      </trkpt>
      <trkpt lat="44.48966" lon="1.84979">
        <ele>169</ele>
        <time>2021-10-08T17:46:33+02:00</time>
      </trkpt>
      <trkpt lat="44.48979" lon="1.85006">
        <ele>171</ele>
        <time>2021-10-08T17:46:33+02:00</time>
      </trkpt>
      <trkpt lat="44.48994" lon="1.8503">
        <ele>174</ele>
        <time>2021-10-08T17:46:33+02:00</time>
      </trkpt>
      <trkpt lat="44.49008" lon="1.85056">
        <ele>178</ele>
        <time>2021-10-08T17:46:33+02:00</time>
      </trkpt>
      <trkpt lat="44.49024" lon="1.85079">
        <ele>182</ele>
        <time>2021-10-08T17:46:33+02:00</time>
      </trkpt>
      <trkpt lat="44.49033" lon="1.85108">
        <ele>185</ele>
        <time>2021-10-08T17:46:33+02:00</time>
      </trkpt>
      <trkpt lat="44.49027" lon="1.8514">
        <ele>187</ele>
        <time>2021-10-08T17:46:33+02:00</time>
      </trkpt>
      <trkpt lat="44.49018" lon="1.8517">
        <ele>188</ele>
        <time>2021-10-08T17:46:33+02:00</time>
      </trkpt>
      <trkpt lat="44.49002" lon="1.85197">
        <ele>187</ele>
        <time>2021-10-08T17:46:33+02:00</time>
      </trkpt>
      <trkpt lat="44.48984" lon="1.85219">
        <ele>187</ele>
        <time>2021-10-08T17:46:33+02:00</time>
      </trkpt>
      <trkpt lat="44.4896" lon="1.85228">
        <ele>185</ele>
        <time>2021-10-08T17:46:33+02:00</time>
      </trkpt>
      <trkpt lat="44.48939" lon="1.85241">
        <ele>184</ele>
        <time>2021-10-08T17:46:33+02:00</time>
      </trkpt>
    </trkseg>
  </trk>
</gpx>